GFSCGP_prec_cthk_000.txt.gz
RH
86 92 89 75 63 61 62 61 58 57 54 46 44 32 22 28 29 27 29 31 31 29 27 24 20 22 28 29 28 24 23 23 24 25 27 29 32 36 39 40 42 45 47 49
97 89 79 80 72 74 61 64 61 59 55 47 47 35 22 28 28 28 30 31 30 25 21 23 25 28 30 30 26 26 26 26 25 26 27 29 32 34 36 38 41 42 42 42
85 86 82 82 77 73 70 63 67 64 60 51 47 41 23 23 26 29 29 28 25 23 24 28 29 31 32 30 29 28 28 27 25 25 28 30 34 37 38 38 37 36 35 35
93 88 88 86 82 71 83 65 70 65 65 58 48 51 30 22 27 30 30 29 28 28 31 30 32 33 32 32 31 30 29 28 27 28 29 33 35 35 36 37 37 36 36 36
88 86 96 87 77 70 68 72 73 67 62 53 50 51 34 22 28 29 29 32 32 32 34 34 33 33 33 32 32 30 28 29 29 29 32 35 36 38 38 38 37 37 37 35
90 86 90 85 81 73 75 76 74 68 61 61 50 47 36 25 26 28 30 34 35 34 34 34 34 34 33 34 33 31 30 31 34 36 38 39 40 39 38 38 37 34 32 32
83 84 76 72 83 75 81 79 86 73 68 59 46 46 35 23 25 27 32 34 37 35 34 34 34 34 35 34 33 33 37 39 41 42 41 41 41 39 36 32 31 31 32 33
85 93 83 82 73 74 79 76 72 70 65 54 47 43 30 24 24 26 30 31 35 36 36 36 35 36 36 36 37 40 43 43 44 45 43 41 35 32 30 30 32 34 34 34
84 81 71 64 61 77 83 75 65 66 60 60 52 39 29 29 30 29 31 33 37 38 38 37 37 39 40 41 43 44 45 45 46 45 41 34 32 34 35 35 36 37 36 33
69 69 62 64 65 71 71 69 68 67 65 61 51 43 39 31 32 32 34 36 38 39 39 40 41 43 44 44 45 44 45 48 48 42 37 36 36 38 40 41 38 33 28 25
64 66 73 66 66 69 66 60 61 61 62 59 54 41 32 30 33 37 39 38 39 41 42 44 45 45 43 45 47 48 50 48 43 39 39 40 42 40 36 32 28 25 23 22
63 64 70 63 62 66 62 61 59 63 58 55 49 38 30 34 37 40 42 42 43 45 46 44 42 43 46 50 52 49 45 42 41 41 41 42 39 38 34 28 25 24 24 24
66 69 80 78 68 65 59 60 59 58 52 48 46 39 33 37 40 41 42 43 43 42 42 42 46 49 51 51 48 47 44 43 43 43 44 43 40 36 33 32 27 26 26 25
68 67 65 70 61 63 64 60 59 52 49 44 39 34 38 42 45 46 46 42 40 41 44 48 51 50 49 50 49 46 45 45 44 44 44 41 37 36 35 29 28 28 27 25
78 72 71 64 63 62 66 60 45 34 29 39 38 47 47 45 48 48 42 39 40 48 48 48 46 47 47 48 47 46 46 47 46 46 44 41 38 34 31 31 30 28 25 25
79 73 69 67 63 54 51 50 39 37 39 41 47 49 47 47 46 45 40 40 50 47 42 42 44 45 47 47 48 47 46 47 47 46 45 42 39 34 32 30 28 26 24 23
74 71 62 67 60 53 45 37 49 47 46 50 52 49 49 50 45 40 46 56 48 40 39 41 43 46 46 45 45 45 48 50 52 51 47 42 34 32 31 27 25 24 21 17
65 69 66 61 57 52 37 43 40 46 48 47 48 47 42 44 46 54 58 51 40 39 40 41 44 45 44 44 46 50 53 56 52 48 42 38 34 31 28 25 19 15 15 17
66 67 64 59 58 51 49 46 50 49 54 49 48 50 51 56 58 52 45 39 39 39 40 42 44 44 44 47 49 54 57 53 45 40 39 36 32 28 20 15 14 18 18 17
65 61 58 72 72 64 54 57 53 51 58 55 56 60 62 60 53 44 40 40 38 38 40 42 45 46 47 50 52 52 52 45 41 41 36 30 23 17 15 17 20 19 18 18
68 69 67 71 67 61 53 49 50 56 49 53 57 58 53 46 41 40 40 39 38 39 42 45 47 48 50 53 54 52 45 41 41 33 27 21 17 16 19 22 21 20 20 20
66 70 69 68 66 61 50 48 48 50 52 48 44 42 41 42 42 41 40 38 40 42 44 46 49 52 54 55 52 45 42 39 32 26 21 18 19 21 25 23 21 23 22 23
49 44 53 58 55 52 54 58 55 48 43 43 43 44 44 44 42 39 38 40 42 44 46 48 51 54 54 51 45 41 38 31 26 22 20 20 22 26 25 24 25 24 24 24
62 67 69 62 61 63 59 52 44 44 45 46 46 46 44 42 41 41 41 40 43 46 48 52 56 58 53 49 44 38 30 27 24 23 22 23 27 26 25 27 27 25 25 26
66 65 66 68 66 60 54 51 50 50 49 47 46 44 43 42 42 43 43 43 47 50 52 54 52 51 51 47 37 31 29 26 25 24 24 28 28 27 27 27 27 27 29 31
67 65 66 64 61 60 58 55 51 50 48 46 44 42 41 42 42 43 45 49 51 52 53 52 52 54 46 37 33 30 29 27 26 25 29 29 28 28 28 27 27 28 29 29

GFSCGP_prec_cthk_003.txt.gz
RH
87 94 95 87 75 68 68 61 55 58 56 52 46 42 40 28 24 30 30 32 33 34 32 32 29 27 21 17 21 28 30 30 28 28 30 32 33 33 36 38 39 39 40 40
93 94 91 87 78 72 69 69 62 61 57 54 51 43 41 27 20 27 30 32 31 31 33 32 27 21 23 28 31 32 31 29 28 29 30 30 32 34 36 38 40 39 37 36
84 90 86 88 83 78 70 64 62 66 64 59 50 43 43 30 21 25 31 32 31 32 31 26 23 27 32 34 33 32 30 30 30 29 29 30 32 32 35 37 38 39 40 39
94 93 85 91 83 75 75 68 63 68 69 65 53 49 46 35 24 26 32 33 31 32 27 26 28 32 34 35 35 33 32 31 30 28 27 28 31 36 40 41 42 40 38 35
93 91 86 88 83 75 76 73 74 71 68 59 53 52 44 37 23 25 33 35 34 33 30 31 33 35 36 36 35 34 32 31 29 28 33 37 40 42 43 41 38 33 30 30
96 90 93 80 83 81 73 77 77 70 66 61 52 51 46 31 24 25 30 34 37 33 33 34 35 37 38 37 36 35 35 34 33 36 40 42 43 42 39 33 29 30 30 32
96 91 91 89 85 84 80 82 91 91 80 62 52 51 41 33 28 26 28 32 36 34 34 35 37 39 39 38 38 38 38 37 39 41 44 44 42 37 32 30 30 32 33 32
98 99 85 84 93 83 83 80 81 82 71 59 54 48 34 32 31 30 29 33 35 35 35 36 40 41 41 40 40 40 42 42 43 45 46 45 40 35 33 34 34 32 28 24
87 86 78 83 82 75 91 85 75 71 66 64 54 43 38 35 35 35 31 32 34 36 37 40 42 43 44 45 44 44 44 45 47 46 45 41 37 37 36 35 34 31 27 25
75 79 78 72 78 78 78 73 86 70 70 67 57 49 45 38 36 35 35 36 36 37 40 43 45 46 47 48 46 46 48 49 47 44 40 39 39 38 39 37 33 28 24 22
69 68 72 69 69 73 70 79 75 73 67 61 57 48 40 36 34 36 37 36 37 39 43 47 47 49 49 48 50 51 50 48 44 42 42 41 40 42 38 32 28 24 22 22
66 65 72 66 66 67 62 68 79 69 65 63 60 52 37 33 35 35 37 39 42 46 49 50 50 50 49 53 53 49 48 47 44 43 42 42 42 42 38 34 31 25 24 23
69 70 75 75 72 66 68 64 66 65 60 60 60 51 37 32 35 38 39 41 44 48 49 48 47 50 54 52 49 49 48 45 44 43 44 44 43 41 38 35 30 25 24 24
72 70 67 67 61 60 61 60 62 63 63 61 55 48 30 28 36 41 45 49 52 50 46 45 51 53 49 48 48 47 45 45 45 44 46 47 47 43 40 34 26 26 26 24
73 71 65 62 58 60 57 61 69 62 59 62 51 36 28 33 42 47 48 52 49 45 44 51 50 47 47 47 45 44 44 45 46 47 49 49 45 41 37 29 28 27 24 19
75 76 68 65 64 64 66 64 62 63 61 48 34 28 30 40 45 50 52 50 47 42 50 54 51 48 46 44 44 44 46 48 50 51 51 48 41 36 30 29 28 23 17 14
79 74 74 78 69 65 61 56 61 60 55 37 37 33 41 47 51 51 49 46 43 48 59 52 46 42 41 44 46 47 48 51 53 53 45 41 36 33 30 28 21 16 15 17
82 85 80 75 71 70 57 57 50 47 44 41 40 43 48 52 53 48 46 47 51 57 49 39 38 40 44 47 48 49 52 54 55 48 43 38 35 32 27 20 16 17 18 20
83 81 83 74 69 60 56 53 45 41 44 44 47 49 50 51 50 50 53 57 53 42 34 32 36 43 46 48 50 51 55 54 50 43 40 36 32 26 20 18 19 20 21 19
71 70 71 83 68 58 50 54 55 50 49 48 50 53 53 53 56 60 62 53 39 31 29 34 40 44 47 49 51 54 55 52 47 43 40 33 26 22 20 21 22 22 21 21
73 73 81 80 69 62 59 55 52 56 49 53 53 52 54 60 62 59 49 39 32 29 34 39 44 47 50 52 56 57 54 49 45 43 34 27 24 23 23 23 23 22 23 22
73 75 75 77 72 67 62 57 55 53 51 53 59 60 59 56 48 43 38 34 32 36 39 44 46 49 52 56 58 54 50 47 45 36 29 26 25 24 25 24 23 24 23 23
72 70 71 69 62 59 57 54 51 52 50 55 53 49 47 44 41 38 35 35 37 40 44 47 48 50 55 56 54 48 48 46 37 31 29 27 26 27 26 24 24 24 24 26
63 60 59 53 50 58 64 62 64 62 60 47 44 43 43 41 40 38 38 38 41 44 46 47 49 54 56 54 49 51 46 38 33 30 28 27 28 28 26 25 25 25 26 29
52 56 63 70 72 69 64 62 58 56 54 51 49 47 45 41 39 39 41 42 43 44 46 49 54 55 51 53 52 44 39 35 31 29 29 30 30 28 25 25 27 26 32 36
63 65 69 69 66 66 67 67 66 64 58 54 49 45 40 38 39 40 41 42 44 45 49 52 53 54 56 53 42 39 35 31 29 29 33 32 30 27 26 27 27 33 35 38

GFSCGP_prec_cthk_006.txt.gz
RH
80 83 88 79 85 79 70 63 61 57 54 52 50 42 40 42 36 29 25 29 29 32 33 31 29 28 27 27 28 23 23 28 34 36 34 35 38 38 38 39 40 39 37 34
92 87 80 94 89 85 73 66 62 63 55 53 51 43 44 43 35 29 23 30 30 32 34 34 32 29 28 27 24 25 30 33 35 34 35 36 36 35 34 33 33 33 36 37
90 75 87 94 86 86 76 70 64 64 60 59 52 42 42 41 37 32 22 28 31 32 33 34 32 31 29 25 27 33 35 35 33 34 35 34 32 31 31 34 37 39 40 40
87 88 95 91 88 86 78 70 70 69 73 67 54 49 42 39 37 33 25 26 31 32 33 35 33 29 26 29 32 34 35 35 33 33 31 31 33 36 40 42 42 40 35 32
86 93 96 94 84 82 77 74 70 72 76 67 58 52 39 39 37 32 25 28 32 33 34 35 33 28 31 33 34 35 35 33 33 34 35 37 40 43 43 41 38 35 33 32
81 91 95 82 87 84 81 74 76 71 71 69 54 50 42 35 31 29 27 30 32 33 36 38 34 33 34 35 36 36 36 36 36 37 38 41 44 45 44 41 37 33 30 28
92 96 92 88 94 88 82 80 94 92 84 64 50 49 40 39 34 31 28 27 29 34 36 37 34 36 37 38 39 38 39 39 38 38 41 46 47 45 40 35 31 31 30 29
98 97 96 82 88 90 81 75 70 73 65 55 58 49 37 36 35 34 31 29 30 33 36 36 38 38 40 41 40 41 42 39 38 42 47 47 44 40 36 34 34 33 30 24
97 96 95 87 80 83 91 83 69 63 58 56 50 45 39 36 35 35 35 32 33 36 39 39 40 41 41 42 43 43 42 40 44 48 47 43 41 38 37 38 37 33 29 23
84 97 90 90 89 86 86 77 79 66 66 61 51 46 43 37 35 35 35 34 36 39 38 39 42 44 45 45 45 44 44 49 48 46 45 43 41 40 39 39 37 34 30 25
85 81 87 88 87 87 82 90 81 64 58 54 51 45 39 37 33 33 35 36 38 40 41 42 46 48 47 48 47 49 52 47 46 46 45 44 43 41 42 42 39 36 30 25
82 72 90 77 74 79 78 71 77 74 66 55 51 47 42 38 34 33 34 37 41 42 44 47 51 51 50 49 51 55 49 48 46 45 46 45 43 43 44 44 41 34 28 26
73 70 78 88 81 76 80 70 70 60 55 55 59 49 43 42 38 34 34 37 40 43 46 49 52 51 50 52 55 49 48 46 46 47 47 47 46 46 48 45 37 30 28 26
73 67 59 61 57 57 61 61 64 60 65 59 51 48 47 50 43 31 34 38 43 48 53 55 53 51 52 55 49 48 47 46 47 48 48 49 49 51 45 38 32 29 27 24
79 68 65 60 56 57 58 61 59 57 57 56 55 52 53 46 36 28 30 39 46 52 55 53 50 50 57 53 51 50 45 46 48 49 49 51 53 47 42 35 31 28 24 21
77 75 66 63 62 58 57 56 59 57 58 53 55 47 44 29 29 31 37 45 51 54 52 50 49 58 58 54 50 45 45 47 50 52 53 54 50 46 37 33 28 24 23 22
79 75 73 69 63 62 63 53 54 51 50 52 52 45 39 32 30 35 42 49 50 49 49 49 55 63 54 47 43 44 47 51 54 55 56 54 48 39 34 30 26 25 24 24
80 76 75 74 68 69 51 52 50 49 47 49 51 44 42 39 40 44 48 50 49 48 49 53 59 52 42 40 43 46 50 53 55 56 55 51 43 37 33 29 27 25 26 27
83 87 85 76 89 61 52 54 53 52 47 43 42 43 44 45 47 49 51 51 52 52 56 58 47 37 36 42 46 50 52 54 55 55 52 45 39 36 33 30 27 27 29 26
87 91 94 88 72 63 55 55 51 48 40 36 39 43 46 49 50 51 54 53 55 59 58 43 33 32 40 45 49 50 52 54 56 54 49 43 39 36 32 28 29 31 28 24
82 84 93 79 80 59 57 57 58 54 49 49 49 51 52 52 53 56 60 63 63 55 40 32 32 37 43 46 50 53 55 56 55 53 46 41 37 33 29 30 32 29 24 22
78 75 71 80 92 90 60 60 57 55 55 53 51 48 51 56 59 60 60 55 43 36 31 31 36 41 45 48 52 54 56 55 52 49 44 39 34 30 31 33 30 25 23 23
74 68 68 68 65 66 68 64 60 56 52 52 54 55 56 54 53 49 43 37 32 31 33 36 41 44 48 51 54 56 55 53 52 44 39 33 30 32 36 33 27 25 25 25
72 72 70 74 71 67 65 57 53 58 59 58 53 54 49 50 43 38 35 33 33 35 38 41 44 48 51 53 55 53 52 52 42 36 31 30 34 38 35 29 28 27 29 31
69 73 66 64 61 57 53 59 65 62 61 60 59 58 54 45 40 36 35 36 38 39 41 44 46 49 52 55 53 54 47 39 32 30 32 36 39 37 31 29 30 33 35 35
52 51 50 51 56 63 67 67 67 67 66 64 63 57 49 42 39 38 39 39 40 41 42 44 49 53 55 55 55 42 34 30 31 34 38 40 38 34 32 33 34 35 35 37

GFSCGP_prec_cthk_009.txt.gz
RH
59 67 71 53 59 71 72 74 68 64 61 61 56 46 39 39 40 41 34 31 27 28 30 31 33 34 33 33 33 31 31 33 35 32 38 42 42 40 41 42 40 36 35 33
80 86 56 44 59 80 77 74 67 67 68 61 53 46 42 41 42 42 36 34 27 30 31 33 34 35 33 31 29 31 32 34 31 36 40 40 39 38 37 33 32 30 31 37
88 78 61 61 69 87 80 81 68 71 73 57 54 50 44 42 43 38 35 33 30 29 34 32 33 34 34 31 30 29 30 30 43 38 37 35 34 35 32 31 34 38 42 42
86 79 92 70 76 87 83 78 73 73 75 64 58 47 41 43 38 36 36 37 32 29 33 33 32 34 34 31 31 28 27 28 34 35 35 34 35 34 36 39 41 42 40 36
77 78 89 75 80 87 90 82 75 78 69 76 68 60 46 46 37 36 36 36 32 29 32 35 34 35 33 32 30 28 28 31 32 32 34 36 37 38 40 44 44 40 35 30
82 84 91 64 88 90 83 82 78 80 76 70 59 58 45 45 38 36 37 37 34 31 33 35 36 36 34 33 31 32 32 33 35 37 37 37 39 42 44 43 38 32 27 27
95 97 90 90 98 97 91 90 95 89 84 62 57 57 48 43 35 33 33 34 34 31 35 36 36 35 36 34 34 36 37 38 40 39 37 39 43 46 43 38 32 31 31 30
97 97 91 91 93 95 93 86 73 74 67 56 53 52 45 41 39 36 36 36 36 33 34 34 34 35 37 36 37 39 40 41 41 38 39 43 47 45 40 37 34 35 35 33
90 88 91 90 88 90 91 90 70 65 54 56 52 49 43 38 38 37 37 38 37 36 36 36 36 37 38 38 40 41 42 42 40 39 44 45 43 41 41 39 38 38 37 34
96 92 91 95 93 93 89 75 76 61 61 58 53 50 48 38 34 35 36 40 40 38 40 40 38 38 39 41 41 43 44 42 41 48 45 43 42 42 42 41 39 39 38 35
97 96 97 97 91 94 95 85 74 60 56 57 57 51 43 39 36 36 35 37 41 37 41 44 42 42 43 44 45 46 44 46 51 46 43 42 44 45 44 43 41 40 37 31
95 96 98 82 80 83 87 79 67 62 60 54 51 52 45 40 37 34 34 36 39 39 42 44 44 44 46 48 48 47 49 53 48 44 43 44 46 46 45 45 43 41 35 31
85 88 97 94 80 86 83 75 72 67 60 54 51 52 46 45 42 38 35 35 39 41 42 43 43 46 48 50 51 50 54 50 46 44 46 47 47 48 47 47 43 38 33 32
82 77 76 70 62 70 78 77 66 63 64 58 54 55 46 49 46 43 37 35 39 43 44 45 47 51 53 53 51 53 56 51 49 48 47 48 51 51 50 48 43 36 34 30
83 74 67 62 58 62 65 70 72 67 62 59 54 54 51 53 49 47 43 34 33 39 43 47 51 54 54 52 51 57 54 52 49 48 49 52 53 53 50 48 41 35 32 28
78 76 66 66 62 60 60 61 60 58 58 59 52 53 58 53 48 41 37 32 32 38 46 52 54 55 53 50 57 61 53 47 46 48 52 54 55 52 49 44 37 34 32 31
80 79 69 68 62 62 61 51 52 50 50 52 50 48 51 54 45 38 32 31 33 40 49 51 53 52 51 55 60 54 46 45 47 52 54 55 54 51 47 40 36 34 34 32
82 80 76 77 65 72 52 49 48 49 49 49 48 49 52 52 45 40 37 36 40 45 51 51 52 53 54 59 54 44 43 45 51 54 55 54 51 48 43 38 36 35 33 32
83 87 84 83 81 68 56 52 51 51 49 46 45 48 48 52 48 47 44 45 48 50 50 53 54 57 63 54 45 40 44 50 53 54 54 51 48 46 40 38 34 30 31 31
88 88 90 84 75 74 59 53 50 53 51 44 44 44 44 46 48 47 49 50 50 51 54 56 59 61 57 42 37 41 47 51 53 55 51 49 49 42 38 31 28 32 31 27
94 94 94 93 90 67 59 55 52 53 52 48 45 45 47 49 49 50 51 53 56 57 58 60 59 52 41 36 39 44 49 52 54 50 51 50 43 36 29 28 30 30 26 24
85 92 89 96 95 82 64 60 59 60 57 56 52 49 49 50 50 53 53 53 53 57 58 47 41 35 35 40 44 47 50 50 48 52 51 43 34 28 27 30 31 27 26 26
81 67 69 68 70 68 66 66 63 60 59 56 54 53 53 54 55 55 55 51 47 42 39 35 33 36 41 44 46 49 49 47 51 51 40 31 27 28 33 33 30 29 29 29
67 69 68 69 66 68 67 68 66 64 58 57 58 56 55 56 55 51 47 45 37 34 33 35 38 42 43 45 48 48 51 53 49 36 28 27 29 35 36 34 32 32 31 31
72 72 71 69 70 71 72 69 62 53 54 59 58 57 54 54 55 52 48 39 37 37 39 42 43 43 43 46 49 54 54 43 32 27 27 32 38 39 37 34 33 33 32 34
69 68 70 68 67 59 55 53 56 64 67 64 63 63 61 60 55 50 45 42 42 43 43 42 42 43 47 53 52 51 39 30 27 29 33 39 40 41 38 34 33 34 34 35

GFSCGP_prec_cthk_012.txt.gz
RH
64 67 59 50 50 48 58 65 68 54 55 61 56 53 53 50 45 40 38 36 34 36 32 28 29 30 32 35 35 37 36 37 38 38 38 40 40 44 47 45 41 38 34 30
77 67 43 51 54 58 56 72 70 66 64 64 58 53 52 50 43 38 39 38 37 36 32 30 30 31 33 36 37 38 36 36 37 36 37 41 43 42 40 36 34 32 32 35
76 52 65 61 59 64 58 63 69 76 68 69 61 59 56 46 41 40 39 40 38 37 35 29 31 33 33 34 35 36 35 36 37 35 33 38 39 35 33 34 35 37 38 37
79 63 63 66 61 59 60 48 67 75 87 78 66 64 51 42 42 42 38 41 37 37 34 31 31 33 32 33 33 33 35 35 34 29 28 30 32 34 37 38 38 38 37 37
76 69 63 68 67 62 53 57 74 79 90 89 71 69 48 47 45 40 38 41 38 38 39 33 30 32 32 33 34 34 34 33 31 31 32 33 36 38 39 39 39 37 36 31
75 77 76 65 75 78 61 63 86 90 90 90 87 72 52 50 40 42 40 37 38 40 39 33 30 33 35 35 35 34 34 33 32 34 35 37 38 39 40 41 40 38 32 28
89 83 78 84 91 81 78 80 93 99 98 92 64 68 54 44 44 39 38 38 40 41 41 35 30 34 36 36 36 36 36 36 35 37 39 39 39 40 41 40 39 35 33 32
84 82 80 76 86 72 82 95 99 95 97 67 57 66 55 50 42 39 37 36 37 38 38 35 31 34 37 37 37 38 38 37 38 39 40 39 40 40 40 40 38 38 37 35
92 90 84 75 77 88 84 98 89 90 62 62 59 52 47 47 42 42 39 38 39 37 37 36 34 34 35 37 38 39 39 40 41 41 40 41 41 43 40 40 41 41 39 38
92 98 94 95 93 89 83 86 98 89 68 76 65 55 47 43 41 38 38 40 40 40 39 38 38 40 40 40 40 40 42 43 42 42 41 45 44 41 40 42 43 43 41 38
96 98 95 87 83 92 98 98 90 76 74 68 65 60 44 39 38 36 36 38 42 42 40 40 43 43 43 44 44 45 46 45 44 42 49 48 43 41 43 45 45 44 41 38
96 98 92 88 78 82 91 90 78 71 70 66 58 56 42 42 39 39 37 38 41 42 41 41 44 45 45 44 46 47 48 46 46 50 52 47 44 45 47 46 47 45 42 39
97 98 96 95 95 97 96 90 73 68 69 67 60 58 47 45 42 39 37 37 40 43 42 42 44 46 45 46 48 49 51 51 50 55 51 48 48 48 48 49 48 46 43 38
97 92 98 98 81 79 92 82 72 71 69 63 58 54 50 50 47 43 40 39 41 43 44 44 45 46 46 47 52 56 55 52 54 57 51 50 48 49 51 50 50 47 41 34
95 96 95 83 76 75 76 75 71 68 62 62 58 55 50 50 49 46 46 46 44 43 43 45 47 48 48 50 56 56 55 52 59 59 51 47 49 52 53 53 51 44 36 33
84 89 80 74 68 68 72 72 68 64 66 63 62 59 56 50 50 52 51 46 47 39 37 41 43 47 49 55 57 57 52 55 62 53 46 50 51 54 54 53 45 36 34 34
80 86 79 71 62 62 66 61 61 60 61 58 59 57 58 55 54 55 51 44 38 35 34 38 47 51 54 56 56 53 52 62 54 48 49 49 54 55 53 46 38 35 35 29
74 76 77 70 62 71 56 52 50 52 53 50 50 52 55 53 54 51 52 48 42 36 35 41 49 55 57 55 54 55 63 58 52 44 46 53 54 51 46 39 37 37 29 28
79 81 83 81 79 68 59 54 51 51 50 48 50 53 55 53 53 61 58 49 49 48 48 51 55 58 58 56 58 64 63 52 42 45 51 52 50 46 42 39 37 28 29 27
84 84 88 88 82 81 63 55 51 50 56 50 49 49 49 52 59 59 58 53 53 53 53 55 58 60 62 64 64 60 49 41 44 50 50 50 46 42 41 36 28 31 28 25
88 90 92 90 90 77 64 60 55 58 58 50 49 48 48 49 48 50 52 54 53 53 54 58 59 58 60 60 50 43 39 44 49 48 48 45 44 41 33 30 32 30 27 24
86 92 88 91 90 86 66 66 61 61 57 54 54 54 53 52 53 54 53 52 52 51 53 52 55 56 48 44 37 39 45 48 48 48 46 45 39 30 31 33 32 29 26 25
87 79 83 80 75 71 69 69 64 62 61 61 57 55 55 55 55 56 56 55 54 54 56 49 44 41 37 37 41 46 49 48 48 47 44 36 28 32 34 34 32 29 27 26
72 72 71 69 67 69 67 67 68 68 65 63 60 59 59 59 59 57 55 54 52 47 43 38 34 35 39 45 47 49 47 48 49 43 32 28 32 34 35 35 33 30 28 28
65 69 71 70 70 70 69 69 68 69 67 63 57 58 58 57 56 54 53 51 48 44 40 38 41 43 44 45 46 46 49 50 41 29 29 31 34 35 35 35 33 31 30 32
69 69 73 73 71 70 70 72 69 65 59 53 62 66 64 62 62 60 59 56 52 47 44 44 44 43 42 43 49 51 50 38 29 29 31 33 35 36 37 35 31 31 31 32

GFSCGP_prec_cthk_015.txt.gz
RH
62 63 65 63 59 61 60 62 65 58 57 61 53 54 46 45 51 51 44 41 37 32 33 36 31 29 29 30 32 36 37 38 40 42 44 45 45 48 50 53 47 43 38 34
71 68 63 60 59 62 63 67 59 57 63 63 60 57 46 47 49 50 45 43 41 36 34 36 34 33 32 32 34 34 39 40 42 42 43 45 46 46 42 44 38 36 36 38
71 68 63 65 65 66 62 63 56 59 61 72 73 66 50 47 49 52 47 44 42 36 37 39 34 35 34 34 36 38 40 40 41 41 43 41 39 34 31 35 37 38 39 36
79 73 70 75 68 66 67 49 53 53 70 76 78 76 52 46 46 52 48 43 42 39 38 39 35 35 33 37 39 41 42 42 41 39 37 34 30 30 33 37 39 39 38 37
80 76 76 75 58 77 62 58 54 57 62 79 87 92 52 51 47 48 46 42 41 38 38 39 34 34 32 33 38 39 38 38 37 35 34 34 34 36 38 41 41 40 40 37
88 87 83 69 66 67 61 66 60 65 72 90 78 88 62 52 41 40 44 46 41 38 39 41 39 36 31 31 36 37 37 37 37 37 38 38 38 40 41 41 40 39 35 34
97 92 86 80 79 72 75 81 76 77 85 70 76 98 86 49 42 39 41 42 40 40 40 42 41 38 32 31 35 37 38 38 39 40 40 40 41 41 41 40 39 37 38 39
97 92 85 69 68 69 71 71 82 77 67 59 86 88 72 56 43 43 44 44 42 41 40 43 42 38 35 31 35 37 37 39 40 40 41 43 43 42 43 41 40 41 41 41
90 79 69 68 68 76 71 89 51 82 66 97 88 80 62 54 47 48 44 43 41 40 40 41 40 36 33 32 35 37 38 38 40 42 44 45 44 44 44 44 42 43 43 44
71 86 81 88 90 83 82 70 89 91 86 90 86 69 55 47 46 45 43 42 41 42 40 39 39 37 36 35 36 38 39 40 43 47 48 46 44 48 51 47 44 44 46 46
81 94 93 97 98 76 86 90 82 88 91 90 85 68 48 44 46 44 44 43 43 41 40 40 40 39 40 42 42 42 43 45 49 49 48 46 49 55 53 48 46 48 48 46
89 96 98 91 80 81 78 87 82 93 97 93 68 60 49 47 45 41 40 38 41 41 42 41 41 43 44 43 44 46 47 49 49 50 51 52 54 57 52 50 50 50 49 45
96 96 89 92 93 84 83 81 70 83 98 83 64 57 52 50 44 41 40 42 42 43 43 43 42 43 45 46 46 47 48 50 52 56 56 54 58 61 54 52 50 51 48 44
97 98 94 89 89 76 72 71 88 95 98 74 61 56 51 48 45 42 41 42 42 42 43 43 44 45 47 47 46 47 51 55 58 60 58 56 62 64 52 49 53 50 47 40
97 98 97 91 85 83 78 77 91 98 84 68 61 59 53 51 48 45 45 46 46 45 46 48 47 48 50 51 50 50 54 58 61 62 57 58 69 54 51 54 52 50 42 34
95 98 98 94 88 87 86 88 90 85 76 70 69 62 56 53 50 47 50 51 51 51 48 49 48 48 50 49 48 51 58 63 63 59 57 68 60 55 51 50 51 43 34 32
89 90 97 85 92 87 89 80 78 74 69 65 69 64 57 56 55 54 54 52 52 43 42 40 41 44 43 48 54 58 62 63 60 62 67 68 59 49 49 50 43 34 33 36
81 86 88 86 74 80 67 65 69 69 66 64 64 65 60 58 57 54 53 57 58 55 46 39 39 41 45 52 58 63 63 62 64 69 73 60 50 48 50 44 36 34 37 36
79 80 83 86 84 72 64 59 57 58 57 57 59 60 61 57 55 56 54 54 57 56 51 51 52 52 56 61 64 66 66 69 71 70 58 49 48 50 43 37 35 38 36 31
78 84 86 89 84 81 62 55 52 54 58 51 51 51 53 54 58 61 58 58 61 59 56 57 59 60 63 66 68 67 67 68 60 53 45 48 49 43 39 37 38 37 32 28
89 89 86 84 86 73 65 59 55 61 57 52 53 54 53 53 54 59 63 63 62 60 59 60 62 63 61 61 61 64 62 52 45 45 48 49 43 38 37 38 37 34 30 26
80 88 92 91 91 83 64 63 60 60 56 53 53 52 53 54 55 56 57 59 60 60 59 60 58 58 57 61 58 49 43 43 47 51 50 41 38 36 38 37 35 33 28 26
85 81 85 78 76 68 69 66 64 59 58 60 57 56 55 58 58 57 56 55 55 55 55 56 57 59 52 46 40 39 45 51 50 46 41 40 35 37 37 36 34 31 29 27
78 77 76 76 72 68 67 65 66 64 62 62 61 60 59 59 59 60 60 59 57 58 55 53 50 46 42 40 44 50 51 46 45 45 39 33 35 37 36 36 34 32 30 27
74 72 70 66 69 69 66 64 65 66 67 64 65 63 62 60 58 56 56 55 54 52 51 49 47 45 47 49 49 46 45 49 46 36 32 34 36 36 36 36 36 34 31 30
70 71 68 68 68 67 68 66 69 69 68 68 65 57 56 62 63 62 60 58 56 54 50 45 43 43 42 42 45 49 51 44 35 32 33 34 35 35 37 38 37 34 29 30

GFSCGP_prec_cthk_018.txt.gz
RH
61 69 66 59 62 65 66 63 61 61 64 61 61 54 50 50 44 40 43 42 45 43 40 36 33 35 32 26 26 29 34 38 44 50 51 53 52 51 53 56 55 46 43 38
71 71 62 60 60 63 67 70 64 61 60 63 63 58 55 47 41 45 44 45 46 44 42 38 33 33 34 31 29 28 30 34 40 47 49 52 52 53 56 54 42 34 35 38
77 68 64 66 66 69 64 66 66 63 56 54 63 54 52 43 43 43 45 46 48 46 43 40 36 36 34 33 33 33 33 37 41 46 51 53 55 54 50 40 33 35 38 39
83 77 73 72 76 73 70 62 64 64 68 67 67 68 55 45 41 45 42 46 48 47 45 41 39 41 37 37 37 36 37 42 45 48 49 50 48 45 39 35 37 39 41 42
82 80 82 81 75 79 74 69 68 70 71 73 56 76 50 52 47 40 34 42 45 46 45 43 41 44 41 37 39 39 40 42 43 44 45 43 40 37 39 41 41 43 42 41
86 85 84 76 76 78 83 80 79 78 79 82 48 62 48 50 44 41 39 42 46 50 46 43 44 46 45 41 42 41 40 43 42 41 39 38 39 41 43 43 44 42 42 39
95 91 91 87 86 83 85 89 92 93 89 68 50 54 42 43 46 39 41 41 46 50 45 44 45 46 48 45 41 40 38 39 38 37 38 40 42 45 45 45 45 43 42 39
96 97 93 84 85 87 88 86 89 86 86 63 49 59 48 37 42 45 48 44 50 50 46 46 46 49 49 47 41 37 35 36 38 39 41 43 45 46 46 47 46 46 44 44
94 96 89 89 84 85 88 96 65 85 77 82 63 52 37 36 48 46 44 46 44 47 46 48 48 50 50 47 43 38 37 38 41 42 42 43 46 48 49 48 48 51 51 46
90 93 78 82 80 79 75 72 92 90 87 80 70 68 48 42 53 50 47 45 49 50 50 51 51 50 49 44 41 38 38 38 39 42 44 47 51 52 50 48 54 59 52 48
77 80 79 78 79 73 83 88 84 70 66 89 70 58 53 47 53 53 53 53 52 50 49 48 48 48 45 42 40 39 41 43 45 47 49 53 54 53 52 55 59 61 54 51
79 93 96 89 81 84 91 75 73 76 68 66 92 66 52 59 55 58 58 56 53 51 49 47 47 47 44 41 42 45 47 47 49 51 53 53 55 59 60 59 64 67 56 50
91 98 96 95 92 93 91 80 70 73 68 78 94 65 54 58 55 61 56 52 49 49 49 48 47 46 44 45 46 47 48 50 51 52 53 57 63 65 63 61 67 68 53 46
97 98 97 93 99 87 86 75 72 77 62 73 93 86 76 59 54 55 48 46 45 47 48 49 48 46 46 47 47 49 50 50 51 54 58 63 67 66 64 62 70 59 49 48
98 98 98 96 96 98 82 69 72 76 69 91 82 87 67 58 52 51 48 48 49 49 49 48 47 46 46 48 50 52 52 53 55 57 61 67 67 66 65 69 69 56 50 37
98 97 99 95 82 91 86 78 78 81 89 90 92 96 62 55 50 49 49 51 51 52 52 52 53 54 52 53 55 56 57 56 56 61 64 66 66 67 72 75 63 51 41 34
97 97 98 99 94 91 96 86 84 84 90 92 98 86 60 56 53 52 53 56 56 53 49 49 51 52 54 54 54 54 53 57 60 64 68 68 71 75 77 68 51 41 35 36
95 93 91 96 95 87 76 84 89 91 92 93 90 67 58 57 58 56 55 57 60 58 56 50 44 47 51 52 54 57 59 63 68 70 72 74 77 75 65 49 40 35 38 41
85 86 90 93 91 77 72 70 82 86 79 76 72 68 65 60 58 60 57 58 60 62 61 58 54 54 54 54 58 62 66 71 73 74 74 73 73 58 46 41 38 38 42 43
81 82 85 90 88 80 65 62 61 63 66 60 63 63 63 62 60 60 61 61 62 61 63 65 62 64 65 67 69 71 73 72 68 67 72 62 50 46 43 38 37 45 42 36
82 85 84 85 86 74 65 61 58 63 59 55 55 57 55 54 57 59 59 59 60 62 66 69 66 65 67 69 69 67 65 65 69 60 49 47 48 42 35 40 45 41 36 33
77 83 85 88 88 82 65 61 59 57 55 55 55 54 56 57 57 58 59 61 62 62 63 64 66 67 66 65 64 65 67 58 48 45 50 48 39 35 42 44 40 37 34 31
78 70 82 82 77 68 69 68 65 62 59 58 57 58 58 60 60 61 62 62 63 63 64 64 63 63 62 65 63 55 50 47 51 53 46 37 37 41 42 39 37 36 33 29
80 79 82 77 70 70 72 70 66 65 63 61 61 61 60 62 64 64 65 64 64 63 62 62 62 60 55 52 49 48 51 53 49 42 40 38 40 40 38 37 36 34 32 29
81 80 77 74 70 70 70 68 67 67 67 66 66 66 65 65 66 65 63 61 60 60 58 55 55 55 52 47 45 48 48 44 45 42 37 38 38 37 37 37 36 35 32 29
77 77 77 75 66 65 65 67 65 66 68 67 67 68 67 62 60 62 64 62 61 60 57 54 47 41 40 44 47 45 46 48 43 36 36 36 35 36 37 38 39 36 30 28

GFSCGP_prec_cthk_021.txt.gz
RH
53 62 62 59 66 67 70 73 72 67 61 59 55 53 48 45 43 41 37 37 37 38 39 44 41 37 35 37 38 32 33 40 46 54 58 61 65 66 63 61 59 59 56 42
58 59 56 59 63 66 68 71 68 66 61 60 54 48 45 44 41 40 37 34 34 37 38 42 43 39 36 35 38 35 34 35 40 47 54 59 59 59 61 61 61 56 43 32
60 53 53 59 63 69 70 71 67 66 62 59 57 40 34 33 36 36 35 32 32 34 38 41 43 41 38 36 35 36 34 34 36 43 50 53 56 58 58 58 58 45 37 39
70 64 66 70 73 75 76 71 70 69 72 69 57 54 38 37 34 33 32 33 34 34 36 40 43 42 41 40 37 36 37 36 41 43 46 50 52 56 59 56 46 39 42 44
70 71 73 76 74 80 78 75 78 77 78 74 62 73 45 37 33 33 37 34 33 36 35 39 45 44 44 45 43 41 40 40 43 46 48 51 54 56 54 45 41 43 46 47
76 77 80 77 77 84 86 87 89 87 86 82 66 72 39 31 30 30 35 36 33 35 37 40 45 48 47 49 50 45 46 46 48 48 49 50 49 48 44 42 44 46 48 47
90 86 84 84 86 87 91 95 98 98 96 81 65 67 43 29 30 28 30 34 35 35 36 41 49 50 49 51 53 48 50 48 47 46 45 46 45 43 43 46 48 49 50 49
82 79 75 77 82 86 89 93 96 93 89 80 59 52 37 30 26 22 30 38 39 37 35 41 51 51 50 53 57 56 53 47 46 43 41 42 43 44 48 50 51 51 51 50
80 79 76 80 86 89 97 97 78 93 93 97 76 51 44 32 27 24 31 39 37 36 40 45 53 51 51 56 61 63 57 52 46 39 39 42 45 48 51 52 53 53 51 50
71 77 72 80 88 93 96 88 97 98 95 92 62 65 48 39 32 23 27 40 41 38 43 48 54 50 53 59 64 64 59 52 46 41 42 43 46 49 52 56 56 55 53 56
70 78 73 78 75 74 90 93 89 86 87 81 74 56 46 36 31 34 34 41 45 44 47 51 54 53 57 61 62 61 55 48 45 45 44 47 50 53 57 58 58 58 61 60
79 86 91 84 85 79 72 72 82 84 78 71 68 48 43 45 40 58 60 54 49 53 57 56 54 57 61 60 60 56 50 46 46 48 49 52 54 57 58 59 64 66 67 63
88 95 95 95 92 94 95 86 82 76 80 67 65 35 52 68 60 68 65 62 62 62 58 56 55 57 60 57 54 51 48 49 51 52 53 56 57 57 61 66 70 70 67 63
90 97 97 93 97 94 97 93 92 88 79 59 55 53 64 73 79 75 75 71 70 65 61 59 57 57 56 54 52 50 50 53 54 54 55 55 57 61 65 71 71 70 68 70
97 98 98 97 97 98 97 83 79 78 58 60 46 65 67 79 85 79 79 69 63 60 60 57 55 55 54 53 51 51 52 53 54 55 55 58 61 65 68 71 74 72 74 71
98 97 98 96 96 91 86 80 72 64 58 52 57 78 77 86 84 74 68 64 56 55 57 56 55 54 53 53 52 53 56 57 58 59 60 60 64 67 73 76 77 80 73 62
99 98 98 98 95 90 87 77 66 59 65 70 83 75 86 77 73 67 67 61 55 55 56 57 58 60 57 56 55 57 59 60 59 59 60 64 69 75 78 80 80 73 59 37
96 99 99 98 98 97 91 86 79 76 73 79 82 85 80 73 69 66 70 66 64 59 55 56 57 58 60 61 61 62 61 59 60 62 66 71 77 80 80 78 73 52 37 41
89 94 96 97 96 86 77 92 94 91 90 91 91 86 80 75 72 73 67 66 66 66 65 63 59 56 55 57 60 61 62 64 66 68 74 77 77 77 74 65 43 39 42 40
85 87 92 89 90 85 74 72 84 88 91 79 81 84 81 77 71 68 67 67 66 65 67 68 67 66 63 66 67 68 68 69 74 76 74 73 74 72 49 42 42 41 41 45
82 87 90 85 84 78 72 66 71 84 64 60 70 74 77 79 73 68 67 66 65 65 66 67 70 73 73 72 73 73 74 74 73 72 73 71 54 47 46 41 39 43 44 40
75 78 84 84 86 83 68 65 63 60 59 58 59 60 67 72 68 65 64 64 64 65 67 68 71 75 72 72 73 71 69 69 71 67 55 51 52 45 37 40 44 42 39 36
78 73 75 73 77 69 70 69 64 60 62 60 61 61 60 62 64 65 63 63 64 64 65 66 69 71 71 70 70 69 68 60 55 53 55 50 38 37 41 42 41 40 37 33
74 73 75 79 72 69 71 71 66 63 61 60 62 62 62 63 63 64 64 64 65 65 67 68 69 68 69 69 63 59 57 54 52 51 44 39 39 40 41 40 39 37 36 33
73 77 76 79 76 74 72 72 70 68 68 66 68 67 66 65 68 67 67 67 68 68 67 65 63 60 59 59 56 49 47 49 47 44 42 38 38 39 37 38 39 39 36 30
77 79 79 76 70 70 70 70 70 69 69 70 70 71 71 69 69 68 67 65 65 64 63 60 57 55 49 43 42 47 48 46 46 43 36 36 36 36 38 40 41 38 32 27

GFSCGP_prec_cthk_024.txt.gz
RH
51 54 57 56 56 56 60 64 65 62 59 61 56 50 44 40 39 36 33 33 32 31 32 34 37 39 43 40 36 36 39 37 32 38 48 61 67 72 70 73 72 65 67 64
53 53 49 52 56 58 60 65 63 56 54 56 55 47 43 39 35 34 34 30 30 31 31 32 35 38 44 43 38 37 40 42 38 41 48 59 65 68 72 73 68 69 65 57
55 47 47 53 56 60 59 63 65 62 56 53 55 40 34 28 26 25 26 28 28 30 32 33 37 37 41 45 42 38 38 42 45 47 48 54 62 64 66 67 66 63 59 48
61 54 58 59 61 64 67 63 67 70 75 70 59 56 34 32 28 27 24 25 26 28 31 32 38 39 41 46 45 41 37 37 45 49 50 52 54 57 60 60 58 61 52 43
59 61 64 68 62 71 69 68 75 77 82 81 70 77 44 34 32 29 28 27 28 27 29 32 37 39 44 45 45 45 41 38 40 45 50 53 56 56 57 59 57 53 44 44
60 64 68 68 71 77 82 83 88 90 90 84 66 78 41 36 31 28 25 23 24 28 28 31 35 38 43 46 48 49 45 41 42 47 50 54 55 56 58 60 55 46 45 47
74 72 75 75 80 84 89 98 97 97 96 79 66 73 45 34 31 29 29 27 23 25 30 32 35 37 43 47 50 52 50 44 47 53 55 57 60 60 58 56 48 46 48 52
70 64 63 65 64 73 84 93 96 95 93 81 67 63 45 35 32 30 28 26 25 28 33 34 37 38 44 50 53 54 56 50 55 57 57 56 56 54 52 47 47 50 53 55
67 66 63 63 68 72 83 89 80 97 96 98 76 56 42 37 33 35 30 25 23 27 38 37 39 42 49 55 56 56 61 59 59 58 56 52 49 46 44 47 50 52 55 58
63 69 56 60 68 70 80 80 91 95 97 95 71 59 48 41 43 45 39 33 25 29 40 41 42 43 53 62 60 59 66 65 65 60 55 51 45 44 46 48 50 54 59 62
72 75 69 74 73 70 81 86 90 94 94 89 73 53 40 50 56 54 45 34 35 37 40 40 39 44 56 67 64 64 69 70 69 61 54 50 47 48 49 51 55 59 63 63
69 82 79 75 75 84 87 87 86 86 88 86 83 52 46 58 56 59 53 45 41 41 41 44 45 51 65 69 67 68 71 73 69 60 54 50 48 51 54 56 59 62 63 67
71 88 94 90 88 90 97 93 89 86 86 76 78 45 36 50 57 62 63 59 50 51 56 53 54 61 68 67 67 71 73 72 65 58 54 51 53 56 59 61 61 63 67 70
81 94 96 95 91 97 98 96 98 96 95 66 61 48 44 52 65 68 76 77 71 67 66 64 62 64 69 69 71 71 71 66 60 56 54 55 58 60 60 60 64 66 70 73
92 96 96 96 96 98 98 97 95 89 75 78 52 52 47 58 75 76 93 90 82 76 72 70 68 68 68 68 68 66 62 58 56 55 56 59 59 59 60 64 67 70 75 77
96 93 97 96 95 97 93 82 76 73 70 60 54 55 60 75 75 87 96 86 82 79 76 75 69 66 64 62 62 59 57 56 57 57 59 60 59 61 65 67 72 76 80 80
98 98 97 93 97 97 95 88 78 73 70 66 78 60 65 71 91 94 88 80 77 76 73 73 69 64 62 60 59 58 57 57 59 60 60 60 62 65 69 73 78 82 78 70
96 98 98 97 98 98 94 91 77 77 70 73 71 69 81 91 88 83 76 68 66 67 67 66 64 63 62 60 59 59 59 59 59 60 61 64 67 71 76 80 80 76 70 49
87 95 97 98 98 94 78 91 88 86 82 72 71 76 82 81 74 67 63 61 60 61 63 67 68 68 67 67 64 62 61 61 62 66 69 71 74 78 79 78 76 65 43 44
88 90 94 96 94 90 75 77 89 90 92 80 76 73 74 75 76 71 71 71 72 69 69 74 74 72 69 62 61 64 69 71 73 74 74 76 79 78 76 73 51 47 43 40
84 90 89 91 88 82 72 66 78 81 74 73 79 75 80 78 78 76 78 75 69 68 74 79 77 75 74 74 75 75 76 77 77 79 78 75 74 72 58 51 45 38 42 44
80 82 84 84 88 82 70 69 66 61 59 61 67 75 77 76 73 72 71 74 75 78 78 77 77 78 81 83 84 79 78 77 75 73 72 68 60 57 48 38 40 44 42 40
79 72 77 74 79 75 75 71 64 59 59 59 60 58 67 73 73 70 73 75 81 80 78 78 77 77 78 78 78 76 75 75 71 64 62 58 51 41 38 42 42 40 38 38
75 75 77 73 72 74 73 76 70 66 64 61 61 61 63 65 67 71 76 76 75 74 74 74 74 75 75 76 77 74 68 65 61 54 50 45 40 42 40 39 37 38 40 39
73 76 79 78 75 73 72 73 71 69 67 67 66 65 65 66 69 73 73 73 74 74 76 77 76 73 70 68 67 62 55 49 47 48 44 43 41 37 36 36 39 43 40 33
76 74 77 74 74 75 73 72 72 72 70 72 71 71 73 74 74 74 75 75 74 73 72 72 70 66 60 55 49 45 46 48 47 46 44 37 35 36 37 40 45 41 35 29

GFSCGP_prec_cthk_027.txt.gz
RH
49 51 51 51 51 51 55 58 55 53 49 48 44 40 39 36 36 34 31 30 30 29 31 31 31 33 37 39 41 45 42 41 38 38 45 43 49 60 67 73 78 80 86 71
53 52 46 46 50 54 54 57 56 49 49 50 45 36 35 32 31 31 28 28 27 26 28 30 29 30 34 37 38 43 43 41 40 40 43 41 49 63 68 74 80 83 83 71
51 45 46 52 55 56 57 61 54 51 53 50 48 34 25 22 24 26 28 27 25 24 25 26 28 29 30 34 38 43 44 43 42 42 46 50 56 68 75 74 78 79 76 67
54 49 52 56 57 59 60 57 58 62 67 60 54 47 29 26 25 26 26 28 26 24 25 24 25 28 30 32 38 41 44 46 43 44 47 52 58 60 62 68 70 71 63 59
54 55 59 60 58 63 62 60 64 67 72 69 62 72 34 33 31 31 30 27 26 24 25 23 24 27 31 33 36 41 44 46 45 45 51 54 64 68 68 70 64 64 58 53
57 58 60 62 63 66 69 74 77 81 84 81 63 74 37 34 31 29 32 31 28 25 25 28 26 28 32 37 40 44 44 46 46 47 52 55 63 63 67 61 60 57 52 51
64 64 63 59 61 64 71 86 87 89 90 76 65 77 42 38 37 35 32 32 30 28 24 24 30 32 35 38 42 45 47 49 49 50 51 54 59 66 67 60 58 58 56 48
67 60 54 56 52 56 64 69 75 78 78 70 70 69 45 37 36 35 34 33 31 28 28 26 29 34 36 39 41 46 50 52 53 52 54 58 66 70 66 66 58 55 49 49
66 62 56 57 60 62 71 75 66 78 69 84 62 49 40 33 37 45 49 46 40 31 27 27 32 35 38 41 41 49 52 56 57 54 57 65 71 70 71 59 56 49 48 51
60 63 54 60 62 64 73 74 84 89 85 82 65 63 47 41 48 52 47 47 43 38 30 27 38 38 40 45 45 55 58 60 64 62 66 68 68 66 60 55 50 48 50 53
57 61 57 67 72 68 84 91 96 92 87 81 71 51 41 40 51 51 49 45 48 42 35 30 35 39 41 47 50 57 62 65 70 71 69 69 66 63 57 52 53 53 54 59
56 66 70 65 66 76 85 90 92 97 87 93 85 49 52 60 58 52 59 55 50 51 42 37 41 44 44 48 58 66 71 71 76 76 74 71 64 59 56 55 54 57 61 65
60 74 81 76 81 84 94 93 96 97 98 90 93 52 51 51 51 52 65 62 62 60 53 47 49 48 50 54 63 73 77 77 80 78 75 68 62 61 58 55 59 63 65 67
68 82 85 87 90 95 98 91 95 98 97 80 78 67 63 53 47 54 63 65 74 71 62 56 55 54 59 61 67 78 82 81 83 78 76 66 64 61 56 60 64 66 67 70
84 90 93 93 90 97 98 96 82 84 83 88 66 62 59 51 49 62 66 74 78 76 70 68 68 65 66 71 78 85 84 83 83 79 73 69 62 59 60 64 66 67 70 73
86 91 96 92 91 93 97 94 75 71 72 71 65 56 53 50 56 63 70 78 84 77 79 78 74 70 75 83 87 86 83 82 80 76 70 62 60 61 64 65 67 71 74 77
91 96 98 90 87 97 98 92 91 81 69 68 72 59 55 55 67 73 85 96 85 84 83 81 78 79 82 86 87 84 82 77 71 65 61 61 63 65 65 68 74 76 79 81
87 94 98 92 95 97 95 93 87 84 80 80 76 70 78 85 87 89 87 86 80 79 78 74 74 78 80 78 75 72 68 64 62 61 62 64 64 67 71 75 77 82 81 78
79 86 95 95 96 88 86 92 95 93 92 87 85 87 89 89 90 90 83 80 79 80 79 77 77 76 73 71 69 68 65 64 64 63 63 66 70 75 77 81 82 81 74 58
86 88 94 92 93 94 79 83 92 91 89 81 83 82 81 82 87 82 79 77 75 74 73 73 74 74 74 72 70 68 65 63 63 66 71 76 78 79 82 81 77 66 50 43
86 87 88 90 92 79 74 73 82 79 80 78 77 79 81 83 82 79 81 78 76 77 79 80 80 81 80 75 68 66 70 75 77 78 79 80 81 79 76 69 55 45 39 42
78 84 86 86 87 82 69 70 72 67 67 71 77 80 82 86 86 88 82 82 80 78 77 77 79 80 80 80 81 84 86 83 81 81 79 79 75 70 60 48 40 40 44 41
78 73 74 74 70 67 67 69 66 64 61 64 70 76 79 81 82 82 81 82 80 79 80 80 80 79 79 80 80 81 82 80 80 79 74 69 61 48 42 40 42 41 38 39
71 76 82 76 65 67 67 68 68 63 62 63 62 63 71 75 76 75 76 76 76 76 75 76 77 76 76 78 80 84 82 77 74 67 56 49 45 41 41 41 37 37 41 41
74 76 77 77 71 67 66 70 69 67 66 67 65 65 67 67 68 70 71 72 74 75 76 78 79 76 78 79 80 77 71 60 53 49 49 45 43 40 38 37 40 43 43 35
73 73 73 74 71 71 72 72 73 70 70 71 71 69 69 69 69 70 72 74 76 77 78 78 78 80 78 72 66 56 51 49 50 48 45 42 38 37 38 42 45 44 34 29

GFSCGP_prec_cthk_030.txt.gz
RH
56 52 45 41 41 44 46 48 47 44 42 41 35 32 32 30 30 31 32 31 30 28 26 28 28 29 32 33 35 38 42 49 49 46 50 51 52 58 62 54 62 68 73 77
50 48 40 41 42 46 49 48 44 40 41 42 37 27 29 28 26 26 25 27 28 27 26 25 27 28 29 31 33 36 37 42 49 48 47 51 50 53 60 57 64 74 77 83
44 43 40 44 45 48 49 51 51 48 44 42 40 28 21 20 20 20 21 22 24 27 27 26 25 27 29 30 31 34 36 37 43 48 50 47 48 53 60 56 71 80 78 83
48 45 45 48 48 49 49 47 50 52 53 54 46 41 25 23 22 21 22 23 23 24 28 28 26 26 27 29 30 30 33 35 39 43 46 48 48 53 63 65 68 83 86 84
47 48 53 53 49 52 53 52 53 55 57 60 52 67 26 27 27 24 24 25 26 26 25 27 26 23 25 29 29 29 31 35 37 41 45 51 54 58 64 76 78 79 75 74
49 52 54 53 53 57 59 61 62 61 66 70 52 66 31 30 29 28 28 27 26 27 28 27 26 27 25 27 29 32 32 35 37 39 44 52 55 58 66 73 77 81 80 69
56 55 56 58 58 55 60 67 61 70 72 49 40 52 32 24 30 31 34 31 29 29 29 29 28 29 28 28 29 33 36 38 39 39 44 51 58 68 71 72 73 74 67 62
60 57 53 54 50 49 55 58 55 57 51 44 49 42 28 24 28 27 33 33 38 39 34 30 28 27 29 29 30 36 40 42 44 44 47 50 61 69 69 66 72 74 70 62
63 59 47 48 50 53 67 69 58 72 63 74 54 36 29 28 31 31 36 42 42 42 39 32 31 29 30 32 32 38 44 48 49 50 51 53 61 72 67 78 78 66 72 64
61 60 46 48 53 57 68 68 81 91 83 76 55 54 50 40 41 49 48 47 46 42 42 38 32 31 33 36 37 44 51 55 56 56 55 56 63 66 79 77 75 76 63 63
58 52 49 54 57 58 77 88 94 86 88 82 73 55 51 46 47 51 44 47 49 49 46 45 35 36 40 44 46 49 53 58 60 61 60 61 64 75 82 79 75 64 65 61
54 54 56 56 53 64 70 75 84 97 89 92 87 59 59 61 60 58 51 53 54 57 52 53 43 42 45 49 51 53 55 60 64 67 69 68 74 83 78 78 70 68 64 65
54 60 66 65 73 79 83 80 84 93 87 86 93 58 58 66 66 58 53 48 50 57 57 60 52 43 48 51 55 58 61 65 70 73 75 77 81 81 79 73 69 67 69 64
55 65 72 71 76 81 94 91 96 90 86 73 77 61 68 70 68 61 53 49 56 59 65 67 59 51 57 55 58 65 69 73 78 80 80 83 81 79 76 70 69 72 67 68
61 78 77 82 83 87 93 93 92 82 74 80 50 66 62 68 66 58 50 50 58 70 73 71 62 64 61 58 59 68 79 83 85 86 87 85 78 76 73 71 73 70 69 74
70 80 83 90 83 86 90 94 92 87 78 74 66 61 57 56 54 58 60 67 70 70 76 72 64 68 62 64 69 74 82 85 88 91 90 88 78 79 73 74 69 70 73 76
75 84 92 91 82 85 92 95 89 87 84 80 77 58 57 58 59 69 71 78 78 77 72 68 72 67 66 72 77 79 86 87 94 88 87 81 82 77 71 69 71 74 76 78
76 86 91 92 89 94 94 92 93 96 95 91 86 78 75 74 84 89 91 92 82 75 73 74 76 77 79 83 86 89 93 94 90 85 86 83 72 71 73 73 75 76 80 84
76 84 91 93 93 83 87 93 95 94 92 89 92 90 92 90 89 92 94 90 86 85 85 85 82 85 86 92 95 95 93 92 89 82 73 73 74 74 73 75 81 84 86 82
83 85 90 87 95 83 81 87 88 89 87 81 86 88 87 88 94 95 94 91 89 86 85 86 89 90 92 91 90 87 80 75 74 75 75 73 73 76 82 86 88 85 76 63
85 89 88 89 94 80 73 76 82 76 77 78 81 83 82 87 89 91 91 90 87 85 85 86 86 85 83 81 80 79 78 75 73 73 75 81 85 87 87 86 80 68 51 41
77 82 85 84 88 83 71 75 74 70 72 80 82 87 88 86 89 85 85 85 85 83 82 81 83 83 83 81 79 74 74 76 82 85 86 86 86 84 80 71 54 42 39 42
80 68 70 70 64 66 69 70 70 69 66 68 77 81 87 88 90 91 87 84 84 85 86 88 87 86 85 86 86 88 88 86 86 84 84 83 78 68 53 43 40 41 42 39
74 72 72 72 65 67 70 71 71 70 66 67 68 72 79 80 80 82 82 84 85 85 84 83 82 81 80 80 81 82 83 83 83 80 72 62 51 46 41 41 41 39 41 43
71 73 71 69 67 67 68 72 72 71 71 70 70 74 77 77 78 78 79 81 82 82 83 83 83 82 82 82 82 82 79 74 67 57 51 49 43 42 40 39 40 43 44 39
71 69 65 61 65 70 71 75 74 72 73 73 75 74 73 72 74 76 77 79 80 82 84 84 84 83 82 81 78 72 64 55 50 49 45 43 41 38 40 42 44 44 36 30

GFSCGP_prec_cthk_033.txt.gz
RH
60 59 57 53 55 52 46 45 43 41 40 37 33 30 28 27 26 25 27 28 29 30 30 28 27 27 28 31 34 36 37 36 41 46 53 59 57 58 64 65 66 68 69 62
65 61 54 48 46 44 42 42 39 34 32 32 30 24 24 20 18 19 20 22 23 24 26 28 27 26 24 27 32 35 37 37 37 41 47 57 57 57 62 60 63 69 72 73
55 47 44 45 45 45 41 41 39 39 37 35 32 25 19 18 17 18 19 20 21 21 21 22 26 28 26 25 26 30 35 37 36 38 44 52 53 54 54 55 57 64 69 79
49 46 44 43 44 42 42 42 42 41 45 43 39 35 22 18 18 18 18 18 18 20 21 21 21 25 28 27 29 29 33 35 37 39 41 40 41 46 50 53 58 68 71 75
48 45 49 48 44 45 47 45 45 45 50 52 43 55 23 23 23 22 23 22 23 23 22 21 23 22 25 29 31 31 32 36 39 40 40 39 42 44 48 56 59 63 75 81
48 49 49 47 48 49 50 49 52 52 56 58 38 41 21 22 21 22 27 29 28 27 25 25 24 23 23 25 30 33 33 35 37 40 38 39 43 42 46 57 63 66 73 84
51 49 50 50 54 53 54 58 52 60 65 47 31 42 27 20 24 23 24 30 32 32 31 31 27 25 25 25 27 35 34 37 37 37 40 42 45 43 50 55 64 72 83 82
60 61 52 57 54 51 49 52 50 51 46 40 41 39 28 26 27 31 27 27 26 26 33 36 34 29 27 29 30 31 36 40 40 36 43 47 47 47 53 59 68 76 81 82
58 59 51 53 48 46 54 61 49 61 55 60 42 36 34 37 37 37 38 35 35 41 37 34 38 35 29 30 34 35 39 40 43 44 47 50 50 53 56 65 69 76 76 72
58 61 50 51 49 49 51 52 65 78 77 65 46 44 47 51 48 53 49 55 59 52 39 33 36 39 35 33 36 40 41 42 45 50 51 53 56 59 65 67 73 73 78 82
54 53 56 51 48 46 55 61 73 78 84 75 64 45 49 46 51 53 66 64 61 54 42 39 36 40 41 36 40 46 47 48 50 53 55 57 61 65 70 72 73 82 80 78
57 57 59 45 41 49 61 73 81 90 76 87 86 60 43 52 62 68 67 71 63 58 53 42 41 46 52 46 47 54 51 51 56 58 60 65 68 70 74 68 82 79 81 78
61 66 54 58 64 67 71 75 77 87 93 88 92 53 46 57 64 69 74 70 65 56 54 45 44 52 62 59 56 60 55 57 61 66 65 70 73 73 72 74 81 87 82 78
67 58 52 59 74 75 88 84 87 98 96 83 71 60 46 58 64 68 67 67 64 58 52 50 51 62 67 62 63 61 59 63 67 71 72 76 78 80 78 83 84 85 79 76
68 65 58 70 73 82 87 88 90 98 97 96 72 80 59 59 60 62 67 68 65 55 56 54 62 72 67 63 65 62 63 68 73 76 78 82 86 81 85 84 86 78 82 74
63 65 72 81 74 81 81 80 88 92 93 91 96 86 76 59 55 57 63 62 59 57 55 66 70 76 64 60 64 63 70 74 80 80 83 87 85 87 84 86 80 78 83 81
65 80 83 79 77 81 86 92 92 94 97 95 94 84 77 73 68 66 71 75 67 69 77 74 77 70 60 68 67 68 78 84 89 88 82 87 86 86 87 84 86 82 77 76
73 81 84 85 81 87 80 82 86 91 93 93 93 90 89 89 91 91 95 97 92 85 73 73 70 63 72 71 71 73 79 84 87 86 88 94 87 86 84 86 80 78 79 81
72 80 82 86 81 74 75 78 84 91 93 89 92 95 91 94 92 97 94 86 80 75 72 69 71 74 74 73 78 77 79 82 85 89 92 93 93 87 79 78 78 81 80 84
75 80 85 78 87 76 71 74 77 82 88 81 82 89 90 93 98 97 92 88 83 79 75 75 79 80 79 82 83 85 86 91 92 93 92 85 74 74 76 80 81 85 89 84
89 90 91 90 89 69 66 67 73 77 73 82 85 88 89 93 96 97 97 96 97 95 92 91 92 92 93 94 95 97 95 96 92 84 77 76 75 80 81 85 89 85 77 64
77 81 87 87 90 84 70 70 73 68 70 75 83 91 93 91 90 93 94 92 92 89 88 92 94 94 93 92 90 83 78 74 73 74 77 79 82 85 87 85 78 64 47 40
72 65 72 73 72 69 70 71 70 69 69 68 74 83 92 90 92 92 94 91 89 88 88 87 85 83 82 82 81 80 78 77 77 81 84 86 88 85 77 59 46 40 39 40
66 68 68 73 69 70 71 68 70 71 67 69 72 79 85 86 87 88 89 90 92 92 91 91 89 87 86 85 85 86 86 86 87 87 86 81 68 56 46 42 39 39 40 44
67 70 68 69 68 70 71 71 70 70 69 73 72 77 81 81 84 85 84 86 86 87 86 84 83 82 81 80 82 83 84 84 79 72 63 53 47 43 40 39 40 44 44 40
63 64 65 63 61 67 70 73 72 71 70 73 74 78 80 80 80 80 83 85 85 85 86 85 84 83 83 84 83 80 73 67 60 52 48 44 41 40 39 43 44 43 36 30

GFSCGP_prec_cthk_036.txt.gz
RH
75 76 72 64 61 56 59 55 52 49 47 43 40 36 32 28 26 24 25 26 26 26 27 27 25 24 22 24 30 34 34 36 37 42 45 48 52 56 60 61 60 58 61 63
68 69 62 60 60 60 54 52 51 45 41 39 35 28 25 21 18 18 19 19 19 20 22 23 25 27 26 25 26 30 34 34 34 37 42 46 50 52 58 62 62 61 66 66
67 62 59 58 55 52 49 49 46 43 38 34 33 27 20 19 18 17 17 17 17 17 18 19 21 22 25 27 26 27 32 36 35 35 42 47 50 48 50 56 61 61 66 69
69 62 57 51 51 47 48 44 44 42 43 46 38 45 22 16 15 16 16 16 17 18 18 18 19 20 22 24 28 28 30 34 36 37 41 44 43 42 46 50 54 57 65 69
58 53 53 50 43 44 44 44 44 46 47 46 40 49 24 16 17 17 18 19 21 21 20 21 20 20 21 22 25 28 31 35 35 37 39 43 44 44 43 47 50 55 63 68
55 50 46 45 44 45 46 46 46 49 51 59 41 39 24 18 20 19 19 23 24 23 20 22 23 24 24 23 24 27 33 35 39 41 40 40 42 42 44 45 48 53 60 68
53 51 47 46 48 47 51 56 67 69 65 55 30 41 27 20 21 22 23 24 29 29 27 24 24 25 26 25 24 25 30 37 40 46 45 42 44 44 43 42 45 51 59 64
58 55 48 48 50 54 57 59 63 60 61 47 37 38 28 24 27 30 32 31 33 38 36 35 32 30 30 28 26 26 29 39 43 45 48 46 45 46 43 43 48 54 60 64
58 58 51 54 54 55 58 58 48 57 46 58 40 27 29 32 34 35 36 34 33 33 36 39 40 32 29 32 30 29 30 37 44 46 49 52 49 45 45 48 54 60 65 71
59 61 56 59 53 49 51 48 65 67 69 61 46 46 43 42 45 41 40 40 39 44 48 52 47 39 30 33 31 34 35 37 42 46 52 55 53 50 51 54 61 65 71 74
57 59 61 59 55 51 53 55 55 61 72 78 69 54 45 51 55 44 42 44 46 60 69 62 55 44 38 37 38 39 41 44 50 51 52 55 55 54 58 63 67 72 76 79
62 60 66 57 46 45 51 54 64 82 78 80 80 65 53 59 58 57 52 48 57 62 69 63 55 49 42 46 47 48 50 53 58 54 52 56 59 64 68 71 77 77 81 76
59 63 69 67 57 52 58 69 72 79 83 82 87 65 54 63 68 65 57 54 60 67 66 60 59 54 47 51 60 58 59 62 58 55 56 60 66 73 73 76 79 81 78 80
58 62 67 68 65 64 77 76 78 83 90 81 74 65 68 73 76 76 71 60 64 70 72 66 58 54 49 56 74 74 68 65 62 59 61 66 74 77 79 79 82 83 79 86
62 74 68 53 50 62 71 80 86 95 93 93 77 84 81 88 91 79 72 71 72 68 68 67 64 55 52 65 77 76 70 66 65 63 68 77 80 82 83 86 85 79 81 85
65 75 61 61 63 73 80 81 81 84 93 93 94 90 91 92 92 86 81 83 80 74 70 67 60 58 59 76 76 71 67 71 70 72 77 79 86 83 87 83 85 87 92 82
73 66 67 77 70 77 86 82 91 92 91 95 95 92 91 90 92 95 94 94 80 74 68 66 62 66 78 78 76 71 75 74 77 80 82 81 92 92 83 86 89 80 79 88
70 70 81 83 80 95 81 79 83 86 87 90 91 88 90 90 88 87 88 92 92 81 78 77 80 80 85 77 67 78 80 81 83 82 80 85 83 83 93 91 87 94 91 84
69 82 84 88 84 77 77 77 79 84 89 87 87 88 93 94 87 87 82 81 81 80 79 77 78 83 73 68 77 78 78 82 83 83 85 90 96 96 96 96 89 82 81 84
77 82 82 84 89 81 70 71 73 83 89 81 84 91 93 95 92 93 87 80 76 75 76 78 75 72 78 82 85 81 84 87 94 98 96 98 90 98 88 81 78 80 80 89
84 86 86 87 87 73 65 70 74 84 79 80 81 93 93 94 97 95 95 90 84 78 79 79 80 81 86 85 85 87 88 94 96 99 98 95 89 83 79 80 84 89 89 80
76 83 84 87 84 82 68 71 78 77 75 76 74 87 92 92 93 96 93 95 97 96 91 90 92 88 90 89 88 97 98 99 97 96 91 85 81 85 85 88 85 76 59 44
70 66 75 73 70 63 68 72 72 75 72 73 75 79 86 91 92 90 90 90 91 91 96 97 98 98 98 98 98 96 93 84 79 79 82 85 84 85 84 71 52 42 38 38
68 67 72 68 66 68 70 73 72 72 71 73 74 80 86 85 91 92 93 93 91 87 86 86 86 85 85 85 84 84 82 82 83 81 81 83 81 66 51 41 37 37 39 44
72 68 70 68 66 67 71 72 73 72 71 73 75 80 84 86 87 88 87 89 89 88 87 86 83 81 80 80 80 80 80 82 82 79 73 63 50 43 38 38 39 43 44 38
68 67 66 68 64 62 64 68 72 74 74 75 78 79 82 83 84 84 84 84 84 84 85 84 82 80 80 81 82 80 76 72 69 61 50 45 41 39 39 42 44 41 35 29

GFSCGP_prec_cthk_039.txt.gz
RH
72 75 77 72 66 58 59 60 56 49 45 41 40 35 32 29 29 27 26 25 24 23 23 24 24 22 20 19 22 28 32 36 37 38 41 47 46 52 52 58 53 51 53 59
73 76 71 70 66 63 67 63 55 49 46 43 39 32 29 26 21 19 18 19 18 19 20 21 24 26 27 27 24 25 33 37 39 41 40 41 50 58 58 64 63 59 56 61
67 62 65 68 65 63 60 58 57 53 48 43 36 28 23 20 19 18 17 16 17 17 17 17 17 20 23 26 28 29 30 35 43 42 40 42 48 58 60 65 64 61 56 56
66 63 62 66 65 61 61 55 51 48 46 47 39 49 28 18 17 16 16 16 16 16 16 16 17 17 18 21 24 28 30 33 37 44 42 39 39 41 47 46 54 59 62 61
66 64 64 64 61 63 57 50 48 47 47 46 41 46 30 22 18 16 17 17 17 16 17 16 16 16 17 18 20 22 24 29 35 42 42 41 40 44 46 51 56 60 61 62
62 60 62 63 57 51 49 47 45 47 49 58 41 43 31 21 18 18 19 18 18 18 19 19 18 17 18 20 21 23 24 26 30 36 40 43 40 40 45 53 58 59 59 60
59 57 55 52 51 49 50 52 62 61 63 55 39 47 31 21 20 20 22 24 24 26 25 25 25 25 23 22 23 24 25 25 28 32 34 41 44 44 43 50 57 57 57 59
63 61 53 48 50 52 54 51 61 63 67 56 39 40 28 20 22 27 28 30 31 31 29 29 29 28 29 30 29 27 25 25 29 33 32 38 42 47 51 53 57 59 61 60
60 60 53 51 50 50 58 61 55 60 52 62 42 29 21 25 32 35 37 39 40 40 36 33 31 32 30 29 28 29 30 28 28 31 39 39 41 50 57 58 62 68 65 61
54 60 57 57 54 55 56 51 61 63 63 63 46 41 39 41 43 43 45 48 48 48 47 43 40 39 41 36 31 30 31 32 31 33 40 44 46 55 59 60 62 60 60 61
53 53 63 63 59 57 59 55 52 56 61 65 71 57 48 49 50 51 53 55 60 62 59 52 46 52 52 46 39 36 37 40 38 40 47 52 62 61 61 65 63 62 64 67
53 59 69 63 54 52 51 52 57 66 64 77 80 62 53 55 57 57 60 64 71 68 68 60 51 60 60 56 44 49 42 45 45 50 55 52 61 66 56 65 65 66 68 73
58 65 70 67 57 52 56 58 61 69 78 81 86 66 57 61 66 73 76 84 87 83 71 66 62 61 59 55 52 59 48 47 58 57 56 59 57 53 63 70 69 71 75 77
59 64 62 67 65 61 61 59 67 77 88 78 75 67 66 71 75 82 84 84 87 85 81 72 71 61 63 61 60 65 53 70 70 68 60 67 64 65 72 76 76 79 82 86
59 66 65 63 59 58 55 68 76 83 83 92 71 81 76 80 84 81 82 86 89 85 81 77 67 66 65 61 64 61 61 84 79 77 79 70 73 74 78 80 81 80 80 83
64 70 69 68 53 56 77 78 83 85 86 87 85 87 83 84 83 78 78 83 91 93 87 76 71 68 65 60 55 56 77 88 83 82 85 77 78 79 79 83 83 83 89 86
68 73 68 65 59 75 88 83 84 86 88 91 92 83 83 84 83 81 78 80 86 85 75 71 69 62 57 55 61 77 89 88 89 88 82 78 80 78 84 86 85 92 92 91
75 75 66 76 81 93 83 76 79 84 86 86 85 82 86 89 91 88 81 77 77 80 72 68 68 67 62 66 79 85 88 90 88 82 82 80 81 85 87 96 93 97 94 93
76 69 81 89 90 79 78 77 80 84 82 81 84 83 90 91 95 97 84 74 74 75 76 73 76 79 80 83 79 84 84 84 83 83 85 90 84 89 98 98 94 97 95 96
72 79 87 88 92 85 74 71 72 78 82 73 76 84 89 88 93 94 96 80 72 73 75 77 79 79 79 74 80 88 87 84 87 93 90 94 91 96 98 98 96 93 87 80
80 87 88 85 90 78 72 73 79 83 76 73 73 78 87 89 93 89 93 93 86 82 80 80 81 85 88 86 87 83 83 93 96 97 98 99 99 98 92 85 80 83 88 89
78 86 88 89 88 84 70 74 79 75 73 72 73 76 86 88 92 90 92 94 95 91 89 85 86 88 89 87 97 89 94 95 97 97 97 96 96 95 90 86 93 89 68 48
81 71 79 79 75 65 68 74 75 74 73 72 73 77 84 87 92 92 92 96 96 96 97 97 97 98 97 97 98 98 97 98 96 97 94 85 82 83 87 79 58 42 36 36
77 72 75 76 71 73 70 73 75 72 72 71 74 76 84 88 88 90 88 91 97 97 95 96 97 98 98 98 98 98 97 94 88 86 85 86 82 65 50 42 37 35 38 42
78 79 75 73 71 69 71 73 71 70 72 72 76 79 82 86 87 87 87 88 91 92 94 96 95 94 93 92 89 86 84 84 83 80 70 57 48 43 39 36 38 42 44 37
72 73 77 73 68 68 68 68 69 69 73 75 78 81 83 86 87 85 86 85 87 89 89 87 84 84 84 85 84 81 79 74 64 56 51 46 41 37 38 42 44 40 34 30

GFSCGP_prec_cthk_042.txt.gz
RH
80 81 93 89 76 67 61 59 55 49 42 38 37 37 31 28 30 30 26 25 23 22 22 22 21 18 18 21 25 30 33 35 35 51 55 55 54 59 56 49 48 51 48 52
76 82 82 91 89 78 69 63 56 49 46 43 39 34 30 27 25 25 23 22 22 22 22 23 24 25 24 22 21 20 22 32 32 34 43 48 43 45 55 58 57 56 55 63
75 66 70 70 73 70 65 60 56 54 51 45 41 31 28 22 18 18 17 17 17 16 15 14 16 20 24 26 27 27 25 24 31 34 39 48 59 55 55 57 61 62 67 67
68 64 67 72 70 64 61 56 55 55 53 52 42 46 29 20 18 18 17 16 16 16 15 15 15 15 16 20 23 26 28 28 30 33 36 40 48 57 54 48 54 63 70 67
67 64 61 62 63 62 62 58 55 52 51 49 43 48 29 23 19 16 15 16 15 15 15 14 15 16 16 17 18 20 24 27 29 31 32 38 46 45 48 48 46 50 63 72
67 67 66 63 62 61 62 60 55 53 52 56 40 43 33 23 20 18 17 17 17 16 16 17 18 17 17 17 18 19 19 22 27 30 30 31 35 48 53 52 49 50 56 64
66 67 65 63 65 61 57 54 60 60 62 50 40 49 36 25 21 19 20 21 21 21 21 22 23 23 24 23 23 22 20 21 24 24 27 30 31 37 47 52 53 53 54 59
70 71 58 57 56 56 53 50 56 52 63 57 43 45 29 22 21 25 27 27 27 28 28 29 30 29 29 30 29 28 27 24 23 24 25 26 30 35 43 51 54 59 56 55
65 61 56 52 50 46 54 58 52 60 58 63 44 33 23 22 31 34 35 34 35 35 36 37 39 38 36 32 30 28 26 25 30 26 22 25 27 33 38 49 51 57 64 63
52 65 57 54 50 50 52 54 64 64 59 58 45 41 35 40 41 44 45 47 46 46 48 51 52 50 48 46 41 35 31 29 28 29 29 26 28 36 39 42 47 58 68 69
50 51 61 57 56 58 61 60 56 55 57 60 61 51 46 48 49 50 52 53 54 56 59 62 62 65 63 55 48 41 38 32 29 28 27 27 28 36 46 47 55 66 68 70
48 53 63 62 58 55 57 58 55 61 52 68 75 62 51 53 55 59 64 68 71 70 70 75 74 75 79 67 54 48 44 37 34 35 32 31 31 44 60 64 64 70 71 74
47 55 66 64 60 57 58 54 54 60 65 76 83 65 57 59 61 66 71 71 67 66 69 73 82 80 81 69 60 56 46 42 44 47 47 46 47 62 77 78 80 75 74 82
54 60 59 65 60 59 59 56 60 64 81 77 80 63 63 65 66 71 73 72 71 69 73 76 86 87 90 74 68 62 51 47 52 63 71 63 63 80 87 87 86 76 80 79
61 67 67 64 62 65 60 56 64 78 75 84 72 75 69 74 75 80 82 74 72 74 75 79 82 93 88 76 65 59 57 60 65 84 84 75 73 79 78 78 71 71 79 80
64 67 68 65 58 61 55 63 74 76 80 79 80 81 75 79 83 89 85 75 75 77 76 75 79 78 74 74 73 70 67 67 83 93 87 78 77 93 95 73 78 81 81 83
66 70 71 67 60 59 77 82 84 85 85 83 88 80 79 82 86 88 90 79 74 76 74 65 67 72 72 69 66 65 63 74 93 91 86 90 96 78 84 83 84 82 81 79
70 72 75 68 61 87 83 78 78 79 81 83 83 83 82 84 87 89 91 85 72 71 73 67 63 62 62 61 63 71 80 95 94 93 98 98 87 84 86 88 81 89 94 92
67 75 74 72 85 79 82 80 80 80 78 77 79 84 82 87 86 89 91 88 74 70 73 72 72 71 71 75 79 83 85 89 96 95 88 85 84 84 90 86 91 93 96 97
77 76 74 87 91 86 80 74 75 77 83 74 76 77 78 86 91 89 88 89 80 76 71 70 76 76 77 77 78 83 83 82 82 81 83 88 95 96 92 89 97 99 98 97
84 77 83 86 92 82 69 74 79 83 78 75 74 74 80 85 89 90 89 89 87 84 79 79 81 84 86 90 86 89 87 86 92 94 95 98 98 97 98 98 98 95 90 88
84 79 88 89 91 85 71 75 79 77 73 74 73 75 81 87 87 88 88 87 88 90 91 83 84 85 87 92 84 87 96 96 98 98 98 98 98 98 98 91 89 91 82 61
83 76 81 80 77 68 68 72 74 76 72 72 73 76 81 87 88 87 87 89 88 89 92 92 93 94 91 93 96 98 96 97 97 95 96 98 95 90 87 84 66 47 38 34
79 78 79 79 74 75 75 73 73 75 72 70 71 75 80 86 87 87 89 91 91 88 88 89 92 95 97 97 98 98 97 97 97 93 87 86 79 66 52 42 37 35 37 39
81 81 81 75 77 74 73 72 73 73 70 69 72 75 81 87 88 89 89 90 90 91 90 88 87 87 89 90 89 89 88 86 83 78 68 55 47 42 38 37 37 39 40 37
83 78 75 72 71 73 70 69 71 68 67 69 74 76 82 87 91 91 88 91 90 91 91 90 89 89 88 87 83 78 72 62 55 51 46 43 40 39 38 39 40 39 34 30

GFSCGP_prec_cthk_045.txt.gz
RH
82 89 80 71 65 60 57 55 51 46 41 38 35 35 29 26 28 27 26 25 23 21 18 18 19 19 22 24 25 30 34 35 34 35 40 47 52 60 64 59 55 50 48 51
85 83 92 82 79 73 67 64 59 48 42 42 38 36 29 25 25 26 26 25 23 22 21 22 23 24 22 21 20 20 25 34 36 34 33 36 42 52 59 61 61 59 55 55
74 81 92 93 95 92 79 69 61 54 48 45 42 34 28 23 23 22 19 18 18 17 17 17 18 20 24 25 25 24 23 23 29 35 35 33 37 41 45 51 52 53 54 63
75 69 88 84 86 80 74 66 59 55 53 57 46 51 32 24 20 18 16 18 17 16 16 16 16 16 16 18 21 27 28 29 27 27 28 29 33 39 45 52 64 66 61 62
80 69 73 74 72 69 68 60 56 55 55 51 47 52 31 22 19 17 17 17 17 16 16 15 15 16 16 17 18 18 22 27 30 30 30 30 33 36 42 47 52 61 62 62
70 63 63 63 67 64 60 59 60 61 56 57 43 45 31 22 21 20 19 19 18 18 17 16 17 18 18 18 18 19 19 21 24 27 30 31 33 37 41 48 60 63 59 59
69 68 64 64 65 64 63 65 66 56 61 52 46 48 31 24 24 22 20 21 23 22 22 23 23 24 23 22 22 20 20 22 22 22 22 27 31 36 42 41 48 64 60 56
76 77 66 68 68 68 64 62 58 48 59 55 47 50 31 25 23 22 28 31 30 29 29 29 28 30 30 29 28 26 24 24 24 24 24 25 26 31 34 38 41 42 58 69
71 65 63 62 61 59 66 65 51 56 55 61 45 36 24 23 29 35 34 34 35 36 36 37 38 39 41 41 38 36 34 30 29 28 25 24 24 25 27 30 37 40 42 52
57 68 61 61 59 57 53 51 58 58 47 55 42 41 32 35 39 42 43 44 46 47 48 48 48 49 50 50 51 51 48 41 37 34 31 29 25 24 26 25 29 37 41 48
55 58 67 62 58 59 55 57 58 58 57 57 58 40 40 45 47 50 53 55 57 59 59 57 53 52 52 54 57 63 63 58 51 46 38 32 29 32 33 29 28 36 44 47
55 59 68 61 58 57 57 57 57 58 52 64 63 57 50 52 54 56 58 62 62 60 58 53 52 51 52 55 58 67 70 70 62 52 44 37 34 35 36 36 36 42 48 64
52 57 65 62 60 58 58 58 56 56 57 64 67 62 55 57 60 64 66 69 70 61 56 57 55 52 59 67 79 86 81 71 63 52 46 44 42 42 42 40 43 53 56 71
50 54 54 61 58 58 62 58 56 57 66 66 73 67 64 65 66 67 70 77 70 65 61 61 55 51 60 78 86 85 78 72 64 57 53 52 51 53 53 49 53 63 70 85
53 61 64 63 62 64 60 55 57 57 64 78 70 72 69 71 70 73 79 78 78 65 64 61 55 60 67 85 83 79 74 69 61 55 51 57 63 65 63 63 70 78 80 85
60 72 70 65 57 60 63 58 55 70 77 83 80 80 73 73 75 78 83 80 77 63 64 64 56 60 62 65 66 66 64 60 59 60 62 74 86 88 86 87 92 86 83 89
69 72 70 69 59 60 63 53 67 76 80 79 85 77 76 77 77 79 82 81 74 64 65 66 63 58 58 60 62 66 70 71 70 76 83 92 94 90 89 94 94 90 90 83
70 71 72 72 61 68 59 74 78 81 79 81 79 76 77 80 80 83 82 81 75 67 65 66 68 68 65 62 63 67 67 79 86 87 94 94 99 98 98 97 98 98 82 90
65 70 76 73 69 63 75 80 84 84 81 76 76 74 76 75 80 84 84 81 79 73 72 66 73 73 76 80 81 81 83 89 92 96 96 98 98 98 90 92 82 88 90 89
71 72 75 75 74 84 82 81 81 81 84 77 78 75 75 78 83 82 83 82 81 81 79 75 75 78 83 80 81 82 81 80 84 91 93 90 85 86 86 89 91 92 95 97
79 79 79 70 85 79 78 77 81 85 82 77 76 73 75 81 82 82 82 81 82 84 84 80 81 82 89 87 86 90 89 88 89 90 92 93 91 95 98 98 98 98 98 98
74 82 77 82 90 87 75 81 81 79 77 74 74 72 74 81 85 83 84 83 82 82 85 87 87 86 88 86 85 92 96 94 96 98 97 98 98 98 98 98 98 97 90 76
82 79 78 81 79 76 77 73 73 74 76 74 71 70 73 83 84 86 87 85 84 83 84 86 89 92 89 92 95 97 96 95 96 97 98 98 98 96 95 86 69 50 39 34
79 81 81 82 77 80 76 74 74 73 73 72 70 70 73 81 88 87 90 90 87 87 87 87 88 91 92 93 96 97 97 97 97 95 92 84 74 59 47 39 35 35 37 39
80 80 79 78 77 77 78 76 73 72 72 71 69 72 73 81 90 90 90 94 92 89 87 87 87 88 87 88 90 90 89 85 77 67 57 50 44 39 38 38 38 38 38 35
78 80 80 76 73 72 72 73 71 68 70 69 68 70 75 82 91 92 91 92 96 95 91 90 89 88 87 84 81 72 61 54 52 48 44 42 40 38 38 38 38 35 31 29

GFSCGP_prec_cthk_048.txt.gz
RH
92 90 75 62 55 49 49 48 45 40 37 36 35 34 27 23 24 23 22 20 19 18 17 18 19 20 21 23 26 29 33 32 34 34 31 31 35 39 48 52 55 58 57 56
98 95 88 79 70 64 61 60 55 48 42 39 37 35 28 23 22 22 22 21 21 22 21 21 21 22 22 20 22 25 27 31 33 32 34 31 33 33 38 46 57 63 67 67
93 95 93 93 83 75 72 68 62 56 50 45 42 35 27 22 21 20 19 21 20 20 18 17 18 19 20 22 22 23 24 25 28 28 30 30 32 32 33 38 47 55 65 67
81 82 85 96 96 86 83 73 67 57 55 58 47 52 32 25 21 20 19 18 20 19 17 16 17 17 18 19 20 23 26 28 28 26 24 25 29 32 33 35 40 43 47 52
83 80 87 97 94 90 82 73 71 63 60 54 49 51 30 24 22 22 21 21 20 19 18 18 17 17 18 18 19 18 19 20 26 31 31 30 27 28 32 34 36 42 48 51
85 75 79 87 87 84 80 76 73 70 61 62 46 45 29 25 26 25 24 23 21 21 20 19 19 20 20 20 19 19 19 20 21 23 27 31 34 35 34 34 37 36 41 51
88 82 72 74 78 74 70 72 74 57 62 55 48 48 31 28 27 26 25 23 24 24 24 23 22 22 23 23 23 23 23 23 23 24 24 25 28 31 35 39 42 45 50 54
78 80 68 68 65 67 65 64 67 49 56 51 50 52 30 28 27 26 25 27 29 30 31 31 29 27 26 26 27 28 27 26 25 25 27 27 28 28 27 28 33 40 47 51
72 70 67 68 67 66 68 70 61 64 59 60 43 35 25 28 28 28 31 32 35 37 38 38 37 37 36 35 35 36 36 36 34 31 29 26 26 27 27 27 28 30 33 42
72 78 70 69 66 66 63 64 66 62 52 47 37 38 26 28 33 38 38 42 45 48 50 50 49 47 44 42 40 40 42 46 49 47 45 40 35 32 28 28 26 28 28 30
62 62 73 66 68 68 63 64 58 56 55 50 46 31 35 35 40 44 50 53 55 59 59 58 53 47 42 41 41 45 45 47 50 51 56 57 53 44 37 32 29 29 29 29
56 63 71 64 61 59 54 56 55 57 59 61 59 46 41 45 46 50 57 61 63 64 61 55 49 46 44 41 40 39 46 55 58 60 57 60 64 58 50 41 36 37 37 37
56 61 70 68 61 60 61 59 59 58 58 63 60 46 46 48 54 62 62 62 67 67 64 55 50 49 48 44 46 51 55 64 72 74 73 71 66 63 62 55 49 46 43 45
54 56 55 60 56 59 63 59 59 59 65 57 59 56 57 61 64 65 63 67 69 67 62 54 52 52 47 49 54 62 67 76 86 87 84 76 69 66 63 63 60 57 53 51
56 59 57 57 57 63 62 58 62 59 54 59 61 68 67 69 68 65 65 69 68 66 58 55 57 53 52 50 54 63 63 62 69 74 72 69 66 66 66 68 65 63 62 60
59 65 64 64 60 63 64 61 61 56 59 70 74 76 71 71 68 68 68 69 68 65 59 57 55 58 52 50 52 54 58 65 65 65 65 62 64 64 67 70 71 69 70 76
61 69 71 68 63 61 61 57 53 58 71 75 83 76 72 71 68 70 71 73 69 67 64 58 56 60 58 60 58 57 58 61 73 73 72 69 70 78 84 88 89 89 90 96
71 73 73 74 63 66 50 57 63 74 76 79 77 73 68 67 69 71 74 73 70 71 70 67 58 61 64 66 70 73 74 74 81 81 84 82 89 93 92 90 89 87 94 93
67 71 73 72 72 56 54 71 83 83 85 81 75 71 68 69 72 75 73 73 72 75 75 73 68 65 71 74 73 75 75 80 84 90 95 94 95 95 97 98 97 98 97 99
71 69 70 75 67 68 64 80 83 84 90 78 77 76 74 75 79 78 76 74 74 76 79 74 76 75 79 79 82 82 82 82 83 87 91 93 95 96 92 97 95 98 98 96
79 77 75 70 67 63 72 82 84 92 85 78 77 76 74 76 79 78 77 76 75 76 78 81 80 81 80 78 80 84 88 89 90 94 96 94 91 96 98 97 98 98 98 98
73 74 76 74 74 78 75 87 90 83 78 76 76 75 74 72 79 79 80 80 78 77 78 78 81 83 83 82 80 88 89 91 93 94 97 97 97 97 97 97 98 97 88 73
83 73 73 71 70 72 78 82 83 78 75 75 76 73 72 71 76 81 83 84 81 79 81 80 83 82 85 89 91 90 91 92 94 95 95 95 95 95 90 70 52 41 36 35
80 74 76 78 71 80 85 85 82 77 76 76 75 72 70 71 75 84 86 87 87 84 82 83 83 85 87 89 91 91 91 91 92 91 84 70 56 46 39 36 37 38 40 40
75 76 76 77 77 78 79 81 78 75 74 73 74 72 69 72 75 84 88 90 90 90 87 85 86 87 87 88 87 83 78 73 64 54 48 45 41 39 38 38 39 40 36 31
72 71 77 79 77 78 76 75 76 76 74 71 71 71 68 70 78 84 89 92 93 92 90 88 88 87 86 82 72 64 57 53 51 48 46 43 40 38 39 41 40 35 32 31

GFSCGP_prec_cthk_051.txt.gz
RH
95 88 68 54 54 51 44 44 42 38 36 37 37 36 28 26 24 22 21 20 19 18 18 19 19 18 20 22 23 23 23 25 27 31 33 33 32 36 41 41 45 51 54 55
97 83 75 63 57 50 50 50 49 43 38 36 36 34 26 24 24 23 22 20 20 20 20 19 18 17 17 18 19 21 22 23 24 27 29 31 33 35 37 42 42 44 46 54
97 92 86 78 68 62 62 56 54 49 44 40 38 32 25 24 23 21 19 18 19 19 19 18 17 16 17 18 19 19 21 21 21 21 25 27 29 31 34 35 36 37 39 45
97 95 94 94 82 73 73 66 62 54 52 51 43 44 31 28 23 23 23 21 20 20 20 20 18 17 17 17 18 19 20 22 25 27 26 25 25 26 26 30 35 37 40 44
93 98 96 97 96 87 81 72 68 61 58 53 48 45 30 26 25 25 25 25 23 23 23 21 21 21 20 20 20 19 19 19 20 23 28 30 30 30 30 28 28 34 36 39
86 88 90 96 96 95 88 78 73 67 62 61 49 46 28 28 28 28 28 28 27 27 26 24 23 22 22 22 21 20 20 20 19 20 21 24 28 31 32 35 36 35 35 35
95 90 84 93 95 90 85 86 83 66 70 63 53 49 33 30 29 30 30 29 28 28 28 28 26 24 23 22 22 22 22 22 21 21 21 23 24 26 28 33 37 43 45 45
96 95 80 78 83 85 82 84 82 58 56 47 51 48 32 31 31 30 31 32 31 33 33 33 32 31 30 28 26 25 25 25 25 24 24 25 26 26 26 27 28 28 29 37
87 94 81 74 70 72 71 77 65 64 58 56 41 37 29 30 32 32 32 32 33 36 39 39 39 39 37 35 33 33 33 33 35 35 35 34 33 31 29 29 28 29 29 28
67 81 74 68 66 65 63 64 69 67 57 46 35 35 26 32 32 33 33 37 41 44 46 44 44 42 40 39 37 37 37 37 37 38 39 40 41 43 42 41 38 33 30 29
67 66 74 67 67 68 70 72 68 61 54 43 34 26 29 31 35 37 39 44 46 50 51 49 49 45 40 39 36 35 36 38 39 41 39 38 40 44 50 54 50 47 42 37
66 70 74 73 65 65 64 64 59 57 56 58 57 36 34 36 40 42 48 50 52 55 54 54 53 46 44 43 42 40 38 37 37 39 43 42 47 51 56 59 64 65 58 51
58 65 73 72 64 63 64 60 56 52 53 61 54 35 42 44 43 53 56 57 59 61 58 56 50 48 46 44 40 41 40 40 45 49 52 56 63 68 71 74 74 67 71 68
57 59 57 59 57 60 63 59 57 58 66 55 50 42 41 48 57 61 61 62 65 63 60 57 52 50 46 45 46 43 40 44 49 51 55 54 62 73 78 84 81 76 73 72
55 61 58 55 56 60 60 61 61 60 57 54 42 52 56 60 64 65 65 68 67 63 63 59 49 49 47 50 48 44 43 44 45 50 56 54 61 69 73 79 81 75 72 70
57 66 59 57 55 61 64 62 62 58 53 50 58 66 65 67 67 68 68 68 68 65 63 62 54 51 52 51 51 51 52 51 49 53 59 62 62 65 69 75 76 75 78 79
59 63 60 64 62 63 64 57 55 59 52 58 74 72 72 71 70 68 71 70 68 66 67 65 59 53 53 55 56 58 59 62 68 67 69 75 77 79 87 88 87 92 90 84
60 63 69 75 66 70 51 55 54 50 61 72 77 77 76 73 69 70 71 68 65 65 67 65 64 60 59 64 64 66 67 67 71 76 81 87 91 95 97 99 99 97 95 93
64 71 76 74 72 56 54 63 68 73 79 81 81 79 74 70 71 74 73 70 67 66 68 69 69 70 68 71 70 74 74 74 70 75 81 86 89 92 95 98 98 98 98 97
72 70 71 74 67 66 56 69 75 81 92 86 82 77 75 72 75 77 72 70 69 68 68 71 75 75 73 73 72 76 78 79 81 84 86 85 87 94 93 97 97 97 98 97
81 80 76 70 70 59 57 63 81 96 89 86 79 78 75 73 72 76 74 73 71 70 69 72 75 77 77 73 74 78 79 82 84 84 89 92 92 95 95 97 97 98 98 98
73 74 75 74 71 67 57 78 92 90 85 82 79 77 74 71 71 73 77 77 76 74 71 72 73 77 79 79 81 79 80 83 85 87 89 90 93 95 96 97 96 86 64 46
80 72 74 68 64 60 62 81 88 87 85 80 76 75 72 70 70 72 79 81 81 80 75 74 76 77 81 83 84 83 84 84 85 88 88 87 80 67 48 39 36 36 38 39
78 75 76 74 69 68 72 82 88 87 85 80 77 75 73 70 70 73 80 84 85 84 82 80 80 82 82 84 83 83 81 78 73 66 55 47 41 38 37 37 38 38 38 34
74 76 76 73 71 74 74 82 87 86 81 76 75 73 73 72 70 74 80 85 86 87 85 83 83 82 83 83 78 72 68 59 51 48 46 42 39 38 38 40 40 38 33 32
74 72 72 72 72 77 76 78 81 79 78 74 74 72 70 71 70 72 80 86 88 90 87 86 86 84 84 81 69 59 53 49 49 48 45 41 39 39 42 42 39 35 35 35

GFSCGP_prec_cthk_054.txt.gz
RH
93 98 81 64 52 51 46 47 40 34 36 33 32 35 29 26 23 22 20 19 19 19 19 18 17 17 17 19 21 23 25 24 25 31 27 30 32 33 36 38 42 46 51 54
95 94 84 74 63 55 47 43 40 43 41 36 37 35 29 26 25 24 22 21 20 20 19 19 17 17 16 16 17 18 20 21 22 25 27 25 29 31 33 35 38 39 42 49
95 90 84 74 64 56 51 45 45 42 40 37 36 32 29 27 25 24 21 20 19 20 20 20 20 18 17 16 16 16 16 17 19 20 24 28 30 31 28 29 31 35 39 42
98 92 84 78 64 55 56 57 55 46 45 42 37 32 30 26 27 25 24 23 23 23 23 23 22 21 19 18 17 17 18 19 21 22 23 27 28 29 26 26 29 32 36 39
97 94 93 81 69 59 64 62 61 54 49 47 42 38 30 27 29 29 27 27 26 26 26 25 24 21 20 19 19 19 18 18 19 20 23 26 32 33 34 35 33 32 30 31
97 98 96 95 93 77 69 63 65 58 56 59 46 40 28 27 29 30 29 29 29 28 28 26 25 22 21 21 20 20 20 19 19 19 18 19 21 29 34 36 37 39 40 36
98 95 96 97 98 93 77 73 78 75 74 55 46 45 30 29 30 32 32 31 31 30 29 29 28 27 25 23 22 21 21 21 21 20 20 20 20 21 28 32 35 38 38 36
98 94 94 96 92 90 91 83 73 63 56 46 50 39 30 31 31 32 33 34 33 33 34 34 34 32 31 28 26 24 23 23 23 24 24 24 24 26 27 28 33 35 36 37
97 97 85 84 83 82 84 87 74 63 57 54 40 37 34 31 33 33 34 36 37 38 39 38 38 37 36 33 32 31 31 31 31 31 31 32 32 32 33 35 36 38 38 37
79 93 86 78 76 74 74 70 76 75 63 48 34 30 28 33 34 34 36 38 39 40 42 42 42 42 42 39 35 34 34 34 35 35 37 36 37 37 38 40 41 42 44 45
68 71 83 75 71 69 69 67 63 57 47 36 25 25 26 31 33 35 36 38 42 45 46 46 46 46 46 43 39 38 35 34 33 33 32 34 35 33 35 36 38 40 43 46
67 66 73 71 64 64 62 60 54 56 57 50 43 29 31 32 35 36 41 44 49 51 51 50 50 48 48 44 41 39 36 36 35 34 33 34 37 41 43 45 46 46 52 52
66 67 73 74 69 62 61 59 56 53 54 55 38 32 36 36 38 42 47 52 55 56 55 53 52 49 47 43 42 42 41 38 33 33 35 37 39 43 43 44 48 59 62 68
59 58 57 54 60 59 66 60 55 56 57 43 40 38 41 38 45 52 55 58 60 60 58 55 53 50 46 43 45 44 38 38 35 33 34 36 40 42 40 45 57 68 75 82
58 66 58 54 54 60 59 58 54 55 50 54 40 38 35 46 55 57 59 64 64 62 58 57 55 51 48 46 44 43 44 45 43 43 43 44 47 48 53 51 53 66 79 85
55 66 61 57 52 55 59 55 55 54 52 50 45 45 51 56 61 65 67 69 67 61 59 60 58 54 53 49 46 48 50 51 51 57 55 53 53 59 64 68 74 78 80 82
55 58 58 56 54 56 57 52 52 52 50 45 51 55 62 68 71 71 71 68 63 59 59 60 58 57 54 52 54 55 55 54 54 58 60 64 66 69 77 80 85 90 91 94
55 56 58 59 59 64 48 53 50 49 49 46 57 67 73 74 75 72 68 67 62 59 58 62 63 62 60 60 61 60 61 64 61 60 62 66 72 74 79 84 90 94 98 98
57 58 64 68 65 53 51 58 55 52 51 61 71 77 78 77 72 70 71 66 63 62 61 63 65 67 67 66 64 64 67 71 71 70 70 72 74 79 79 83 86 90 94 97
67 65 66 70 67 54 55 62 62 65 80 76 80 81 80 76 72 72 71 67 66 66 63 63 66 70 71 67 66 69 71 73 75 74 77 77 77 81 82 83 85 89 91 94
74 75 72 67 64 53 54 60 72 85 83 84 85 84 80 77 72 72 72 72 71 69 66 64 66 69 73 71 71 73 74 75 78 78 77 78 78 81 82 84 87 90 92 94
68 69 72 69 67 62 50 62 71 78 86 88 87 83 81 78 74 71 72 77 77 75 70 67 68 70 73 75 75 77 76 77 77 79 79 78 76 73 69 63 53 43 38 38
72 65 65 62 59 56 63 67 73 82 90 90 88 82 78 76 72 70 71 78 80 79 78 74 71 72 74 75 76 77 78 78 77 75 69 61 51 44 37 36 37 37 37 35
72 72 72 72 64 63 66 69 74 86 91 91 89 81 77 75 73 71 72 78 81 82 81 80 78 77 77 77 78 77 74 67 58 52 46 41 37 36 36 37 38 36 33 30
70 73 73 72 71 73 72 70 73 83 88 90 86 80 77 74 73 72 71 75 81 83 85 83 83 82 81 81 81 75 61 51 47 43 40 37 36 36 36 38 37 35 32 32
68 68 70 69 71 71 71 72 74 78 83 86 83 79 74 72 70 70 71 73 79 85 89 89 85 86 82 80 78 67 51 47 45 43 41 38 38 37 38 39 37 36 35 34

GFSCGP_prec_cthk_057.txt.gz
RH
77 89 91 66 50 46 49 48 46 46 54 49 38 37 32 34 30 28 26 24 23 21 21 22 19 18 17 16 18 21 24 27 30 31 37 35 29 27 30 33 39 43 42 45
90 83 88 75 64 55 52 53 52 53 50 51 38 36 34 29 25 24 24 22 22 21 21 20 18 17 16 16 16 17 19 21 23 26 29 34 28 25 25 30 32 38 38 41
73 89 88 91 72 60 54 56 50 48 51 50 42 37 31 28 25 24 22 20 20 19 19 21 21 18 18 18 16 16 16 17 17 19 21 25 30 28 28 28 28 29 34 41
81 88 94 93 81 64 58 53 52 53 50 40 39 29 36 29 27 25 24 22 23 23 24 24 24 21 21 19 18 17 17 16 17 19 20 21 24 30 30 31 31 31 31 33
84 89 96 85 81 71 62 58 56 49 54 50 44 37 39 30 29 28 27 28 28 27 27 27 24 24 23 20 19 19 19 18 17 17 19 21 24 27 31 36 35 34 35 34
92 96 97 89 84 75 77 62 56 53 59 59 45 37 37 30 29 31 30 29 28 29 30 30 28 26 25 24 21 20 20 20 20 18 18 18 18 20 24 31 35 37 39 40
98 98 97 94 90 86 74 67 77 77 74 65 50 45 39 30 32 33 32 32 32 32 33 32 29 28 27 26 24 22 22 23 23 23 21 20 20 20 20 25 30 34 36 38
98 98 98 97 92 88 80 70 68 63 63 59 55 45 35 33 35 34 33 33 33 33 35 35 33 32 32 32 31 28 27 26 26 25 24 25 26 25 26 28 31 36 40 44
95 98 97 96 96 93 94 81 64 53 49 52 43 39 38 34 35 33 35 35 36 36 37 35 34 34 34 35 35 33 33 32 33 32 33 34 34 34 32 33 34 35 37 40
84 96 91 92 93 89 89 81 81 71 62 49 41 36 32 34 34 35 37 38 39 38 40 39 38 38 38 38 37 36 34 33 33 33 34 35 36 35 33 31 30 30 32 33
75 79 92 81 82 80 79 79 76 73 59 47 34 32 32 32 35 36 39 40 40 43 43 41 40 40 41 40 40 40 37 35 33 32 32 32 31 30 30 30 32 33 35 38
70 71 83 81 72 70 67 67 63 68 67 57 49 40 32 33 35 35 39 41 42 47 46 45 44 44 45 44 44 42 39 37 35 32 32 31 30 29 31 32 35 37 39 42
65 70 75 73 66 63 64 59 55 55 59 63 41 40 33 34 36 37 40 44 49 51 50 49 49 48 49 45 44 42 40 38 36 34 32 30 28 29 30 34 36 38 42 47
61 60 61 62 67 60 60 53 54 61 65 49 39 40 37 36 37 43 45 50 56 55 53 53 53 53 52 47 44 42 40 40 40 38 36 36 36 36 35 38 40 42 47 50
62 69 59 53 53 60 59 57 57 65 56 58 41 37 39 37 41 44 52 59 60 58 55 54 57 56 53 50 45 41 43 44 45 42 44 44 44 43 41 43 46 52 56 60
63 71 63 63 52 53 58 54 57 56 52 46 45 44 40 39 42 56 61 64 63 61 59 58 59 56 55 54 49 46 48 50 50 46 45 47 49 52 55 57 62 60 65 70
62 65 65 65 55 52 53 47 48 50 48 48 50 41 42 47 59 65 67 69 68 63 60 57 56 55 55 55 52 52 55 55 55 52 48 51 52 58 61 62 65 69 72 74
56 57 58 59 54 61 50 47 46 47 46 46 42 45 51 61 65 70 73 73 68 62 57 56 57 58 59 59 59 59 59 59 60 59 58 58 57 62 64 65 66 68 73 78
52 55 60 59 54 48 43 48 52 50 46 46 45 55 65 71 75 78 78 72 66 63 60 58 58 60 62 65 64 63 62 64 66 64 64 65 63 64 66 66 68 70 73 77
56 58 60 61 62 56 59 56 54 52 58 49 59 67 76 80 81 81 77 71 69 66 64 59 59 62 63 64 66 66 66 67 68 68 68 68 67 68 67 68 70 70 71 74
66 68 67 63 63 53 48 58 64 74 76 70 74 80 84 84 81 78 74 74 71 70 66 63 64 64 64 66 67 68 70 71 71 71 70 69 69 68 64 60 56 56 57 53
64 65 65 64 68 63 48 58 65 72 73 78 84 86 86 85 81 77 73 73 74 73 71 70 66 66 65 65 67 70 72 73 72 71 72 71 65 56 48 42 38 34 34 33
66 61 61 58 59 54 55 62 63 68 73 80 88 90 88 85 82 78 72 70 73 74 75 74 72 68 67 67 67 68 70 71 69 67 62 52 41 35 33 33 34 34 32 30
67 65 65 68 60 59 62 63 65 71 75 81 89 90 88 85 80 76 72 70 71 74 75 74 75 74 71 70 71 71 70 67 60 51 42 37 34 34 33 33 34 33 31 30
68 70 68 66 66 69 68 67 69 70 73 77 85 88 88 84 78 75 74 72 69 72 76 77 75 77 76 73 75 75 70 58 48 42 37 36 35 35 34 34 34 32 32 31
62 62 67 66 67 67 70 70 70 71 69 72 81 86 87 85 79 75 72 71 71 71 76 81 81 79 81 77 75 74 67 56 45 40 37 37 38 37 37 36 33 33 33 33

GFSCGP_prec_cthk_060.txt.gz
RH
77 82 67 49 56 60 56 61 62 55 58 60 65 58 49 47 44 40 36 32 30 28 26 25 24 22 21 20 18 18 20 23 26 32 39 41 36 35 37 33 35 35 40 39
85 71 62 64 69 71 66 59 50 58 58 57 61 53 44 41 40 38 34 31 27 26 25 24 23 22 21 20 18 17 16 17 20 23 27 33 35 34 31 30 30 30 37 41
74 61 63 69 71 73 64 55 50 59 57 58 59 54 45 38 34 34 32 27 25 24 23 22 22 21 19 17 17 17 16 16 16 16 17 19 24 26 27 24 23 23 26 39
85 73 69 78 80 71 70 54 56 59 59 61 54 49 47 43 31 29 27 24 23 22 23 23 23 22 21 19 18 18 17 17 17 18 19 19 20 23 27 29 25 25 27 30
83 81 77 91 82 78 71 57 60 62 61 65 57 56 46 45 36 30 26 25 26 28 28 27 25 24 23 21 19 19 18 18 17 17 16 17 18 21 25 30 36 37 36 35
77 84 88 93 94 88 76 69 61 60 64 78 59 51 51 42 34 32 30 30 31 32 31 30 28 26 25 24 21 20 19 19 20 19 18 17 17 18 19 21 25 28 31 34
89 87 88 97 96 88 84 81 78 82 81 74 53 59 47 39 38 36 34 33 35 35 34 32 30 29 27 26 24 22 21 21 21 21 21 22 23 22 21 21 22 26 30 34
87 94 97 98 93 89 84 75 78 67 77 63 55 62 42 35 36 38 36 37 36 36 38 36 33 32 31 29 28 27 26 27 27 27 26 26 27 26 26 27 28 30 33 37
98 96 93 97 95 89 89 89 68 65 57 68 52 48 49 47 40 38 37 36 37 36 37 36 34 33 32 32 31 31 31 31 31 32 32 32 33 33 33 32 31 30 29 29
88 96 95 96 96 93 89 80 78 77 72 68 52 48 44 46 45 39 40 41 38 37 40 38 36 35 35 35 35 35 36 36 34 32 31 31 32 33 33 33 32 29 26 26
83 87 97 97 98 98 96 97 78 70 61 63 53 43 36 41 40 39 43 40 39 40 41 40 39 39 39 39 39 39 39 38 36 34 33 32 31 30 30 29 27 26 27 27
73 83 94 86 83 86 90 82 85 90 76 65 57 50 34 36 40 42 42 41 41 43 42 42 42 43 44 43 42 40 41 40 38 36 32 30 30 30 29 28 28 28 28 31
66 72 87 83 77 76 79 78 76 76 80 83 73 58 43 39 42 41 41 43 42 46 47 47 47 47 47 46 46 43 42 40 38 35 33 32 32 29 28 29 30 29 31 34
62 63 68 74 75 71 71 67 64 68 74 64 59 54 48 43 40 42 41 42 48 52 50 50 49 50 51 50 50 46 42 40 37 37 38 39 38 37 38 39 36 35 38 42
61 68 62 58 57 64 62 58 58 64 60 63 54 47 42 40 40 42 42 48 56 56 52 49 50 52 51 51 51 47 42 41 41 42 44 43 42 42 43 45 45 44 47 47
65 73 66 64 53 54 57 54 55 55 58 56 54 51 44 41 41 42 45 57 59 56 55 53 53 53 54 54 53 50 47 46 49 50 49 46 44 46 47 50 52 51 53 57
63 68 69 71 58 54 58 48 49 53 53 54 53 45 45 43 45 44 57 62 63 63 59 56 56 56 55 55 54 52 52 54 54 54 56 53 51 51 51 54 54 55 57 61
62 63 64 70 60 69 51 45 45 47 50 50 49 48 44 44 46 57 63 67 68 65 64 59 55 55 56 57 58 59 59 57 57 61 61 60 59 57 56 58 57 58 60 64
60 61 63 70 66 51 49 47 50 49 48 46 48 46 47 54 61 66 68 74 74 69 64 58 55 56 58 59 61 63 63 64 66 66 63 62 62 61 60 60 59 59 59 58
62 57 58 65 66 63 58 55 52 52 61 47 48 50 58 65 72 80 81 81 76 69 64 61 58 60 62 60 61 62 62 64 66 67 67 66 65 63 63 62 56 53 53 55
68 63 67 64 65 54 52 55 61 70 70 56 54 60 70 76 80 83 82 79 76 71 69 67 64 64 63 62 62 64 64 66 68 69 68 67 66 65 57 51 45 39 31 29
67 67 66 66 68 66 53 55 64 68 67 70 70 76 81 83 85 85 81 77 74 77 75 72 71 66 64 63 63 64 65 66 66 68 69 67 63 54 43 33 31 31 29 27
67 60 61 60 61 56 55 55 60 64 68 73 76 82 86 88 87 85 84 79 76 76 76 74 72 70 66 65 65 65 65 65 64 63 62 56 44 33 31 32 32 31 29 28
68 64 64 64 60 58 58 61 62 63 65 70 74 79 86 89 88 85 83 81 75 71 75 74 71 70 69 67 68 69 69 68 65 58 49 40 31 33 34 33 32 31 30 29
71 70 69 65 63 65 64 62 65 66 65 68 70 74 80 88 88 87 84 80 73 72 74 72 71 70 71 71 70 71 72 67 59 53 42 34 33 36 36 36 33 32 31 31
61 65 70 69 66 67 65 68 70 69 69 68 68 71 75 82 85 87 84 78 74 72 73 72 72 73 73 75 73 72 70 64 57 52 42 35 35 37 39 39 36 35 34 33

GFSCGP_prec_cthk_066.txt.gz
RH
99 95 73 54 58 54 57 61 65 59 58 60 62 64 63 53 51 46 47 47 43 37 35 34 31 29 28 27 25 26 30 31 31 32 33 32 33 34 36 37 42 45 53 55
98 78 73 68 62 59 63 61 64 62 58 59 58 60 65 65 56 49 47 48 46 42 38 35 33 32 30 29 27 26 26 26 29 31 32 30 28 27 26 31 37 40 50 54
91 77 75 66 62 60 60 62 65 63 63 62 58 60 57 56 58 55 50 47 45 43 41 39 35 33 31 29 28 28 26 25 24 23 24 24 23 21 21 21 23 26 30 33
89 79 73 71 66 64 64 58 60 64 66 70 59 64 48 51 56 60 54 49 45 44 41 38 37 35 32 31 29 27 26 24 23 23 22 21 21 21 20 20 20 20 21 23
94 80 74 74 63 67 65 58 54 57 65 65 63 64 45 46 54 49 50 49 42 40 42 40 38 36 33 31 32 29 26 25 23 20 19 19 19 19 20 20 20 21 22 25
89 84 82 78 70 70 66 62 62 68 74 79 62 61 50 42 41 44 47 48 43 42 41 41 39 36 32 30 28 27 28 27 24 23 21 20 18 18 18 17 17 16 17 19
97 92 84 81 75 71 69 66 84 89 90 77 65 69 43 37 39 42 46 48 43 42 39 38 38 38 35 30 27 25 24 24 24 23 21 21 20 20 21 20 19 19 19 19
86 92 83 75 74 73 73 65 77 85 86 77 66 66 43 37 39 42 44 46 46 45 39 37 37 34 31 31 29 27 25 25 24 24 24 25 26 25 25 24 25 25 24 25
79 84 79 76 74 76 80 80 70 73 72 78 64 52 40 39 40 44 45 46 49 47 40 37 36 35 32 31 30 29 28 27 27 27 28 28 28 28 28 29 29 29 31 31
75 82 82 82 82 83 88 84 84 86 77 79 66 54 45 41 41 44 50 51 50 47 40 38 37 35 34 33 34 34 34 33 33 33 33 32 30 30 29 29 28 29 28 28
62 64 79 83 82 86 91 87 80 77 77 74 70 60 42 39 38 45 53 56 52 53 47 43 40 39 38 37 37 38 37 35 34 34 33 33 32 32 31 30 29 28 27 27
79 84 82 78 82 87 88 84 78 87 80 78 71 59 46 45 47 50 54 55 53 54 50 48 46 43 41 40 41 40 39 39 38 36 36 36 34 33 31 29 29 28 28 27
83 85 91 87 78 84 87 85 83 82 82 81 78 56 48 45 49 55 57 61 62 59 55 51 49 47 45 45 44 44 44 43 42 40 38 37 35 33 33 33 33 35 35 35
72 81 79 83 74 75 83 85 84 84 87 79 75 60 57 57 53 53 53 55 56 57 57 54 54 51 50 47 47 47 47 47 47 43 40 38 36 35 35 36 38 39 40 41
68 74 80 76 76 79 80 84 83 82 80 85 70 65 68 66 62 59 55 51 50 51 53 57 57 53 51 50 51 50 48 49 48 44 42 40 40 41 41 41 42 44 45 46
66 75 70 74 70 67 67 70 77 76 77 75 76 70 64 57 52 57 49 50 48 51 58 59 58 57 54 52 52 52 52 50 48 46 45 46 49 49 47 47 47 48 50 51
59 64 70 71 63 61 60 54 58 62 64 65 64 52 49 46 48 51 50 52 49 48 64 66 61 58 55 55 55 55 55 54 51 49 51 53 52 53 53 52 52 53 55 55
61 61 66 75 70 69 46 49 47 47 48 51 49 49 51 51 51 53 49 46 50 56 65 66 65 62 59 57 57 56 56 57 57 58 57 55 57 58 56 56 57 58 59 57
60 64 68 73 74 56 50 52 52 53 49 46 46 47 50 55 55 52 48 49 51 64 69 73 70 64 60 60 61 60 60 58 59 59 61 61 61 61 60 60 60 60 57 56
70 64 65 74 72 69 56 53 51 53 56 46 43 48 49 56 61 56 54 54 64 72 76 75 72 68 65 65 63 62 60 58 59 61 62 61 62 61 62 62 62 58 47 37
73 77 73 71 74 57 44 56 55 62 57 54 50 48 52 57 55 59 65 72 75 79 79 81 79 76 70 65 64 61 62 61 62 64 64 62 61 62 61 56 44 36 33 29
72 78 78 70 70 64 50 53 62 63 66 58 53 54 55 58 62 69 73 75 79 80 85 87 84 77 72 70 67 65 64 64 63 64 63 61 61 59 48 35 33 32 29 29
71 64 68 66 61 52 57 55 57 61 67 68 62 60 61 66 71 75 79 81 82 84 85 85 86 79 77 74 70 68 67 66 65 64 62 61 56 46 35 33 33 31 31 32
70 69 69 68 61 57 58 60 60 62 65 70 73 75 77 77 81 86 89 91 89 88 87 87 88 84 77 72 72 71 70 68 66 65 62 59 50 39 36 36 35 32 33 34
72 72 72 72 68 65 63 64 65 66 68 68 70 72 75 78 81 84 86 87 90 90 88 87 87 88 78 72 70 72 72 70 68 66 62 55 43 40 39 39 38 34 34 36
67 67 70 72 71 72 70 67 69 70 71 73 72 70 70 71 74 76 78 80 82 88 92 89 88 88 82 76 73 72 75 72 72 67 60 51 45 42 41 42 41 39 37 37

GFSCGP_prec_cthk_072.txt.gz
RH
91 98 82 55 49 50 54 58 65 62 65 69 75 81 81 87 92 83 76 71 65 62 57 54 49 44 41 38 36 35 35 35 38 40 39 39 39 42 40 40 40 39 37 39
97 97 90 70 53 48 52 55 57 64 72 73 79 83 87 87 88 84 77 72 68 65 61 57 53 47 43 39 36 33 32 30 30 33 33 35 37 37 36 35 36 37 37 37
93 96 90 76 67 55 53 53 57 69 75 75 80 86 87 80 81 78 73 67 63 61 59 57 54 51 46 40 38 36 34 33 31 31 30 29 29 28 29 30 31 32 33 33
94 94 92 79 75 63 61 53 56 65 69 79 76 85 73 68 68 69 68 62 58 54 55 53 49 46 45 41 39 38 37 36 33 31 29 28 27 26 26 26 27 28 28 27
92 91 94 90 80 69 63 60 58 64 72 69 69 79 59 58 64 56 56 56 54 52 50 51 49 47 44 42 42 40 38 36 34 33 31 29 28 26 25 24 25 25 25 24
95 94 95 87 83 73 65 68 67 72 73 81 68 70 56 55 48 47 47 52 54 54 52 50 48 49 47 45 43 41 39 36 34 33 32 30 28 27 25 25 24 24 25 25
96 98 96 86 86 76 67 70 84 85 85 79 62 63 43 41 45 44 44 42 44 48 52 52 50 52 50 45 45 44 42 39 37 35 33 30 29 28 29 29 29 30 27 25
98 98 96 85 82 79 71 68 75 73 78 70 55 56 40 33 33 38 41 42 40 42 48 51 54 53 52 48 47 45 42 40 38 36 35 34 33 32 31 30 29 30 29 26
96 95 93 86 81 72 74 76 65 65 63 66 53 42 38 37 35 35 38 39 39 39 45 52 54 53 53 49 46 44 43 43 42 41 40 37 36 35 31 29 29 28 27 26
84 90 85 82 76 72 70 67 73 71 69 67 51 51 46 41 38 38 36 39 38 40 46 51 52 53 54 52 48 46 44 41 41 41 40 39 38 35 33 31 29 29 29 30
77 76 88 85 80 77 74 75 71 68 64 61 56 47 44 44 41 38 37 39 41 44 48 52 54 55 54 54 50 46 43 42 41 41 39 37 36 34 32 31 32 33 33 33
75 76 85 81 77 75 74 71 66 71 68 67 62 54 44 47 45 43 40 42 44 48 52 53 55 54 53 54 53 50 47 45 44 42 42 41 37 35 35 35 35 35 35 34
74 77 83 85 76 75 74 70 69 68 68 70 73 58 46 50 50 50 50 46 49 52 55 59 62 61 58 56 55 54 50 47 44 46 45 42 40 40 39 39 38 36 36 38
67 70 68 72 63 67 74 69 69 74 73 71 60 58 55 57 58 56 55 54 54 55 58 62 63 65 60 57 58 58 57 50 46 46 46 46 47 45 43 41 40 39 38 37
69 75 79 81 79 75 71 67 71 75 70 78 66 62 60 63 64 63 58 58 59 58 59 61 66 67 65 63 63 62 59 55 52 51 49 50 50 50 46 42 41 41 43 43
78 82 81 88 87 85 81 75 77 73 76 75 73 66 66 69 66 67 67 66 63 65 65 62 62 67 68 69 71 68 63 60 58 56 57 56 51 47 46 47 48 48 48 49
69 73 77 78 77 75 73 68 69 72 72 75 80 63 68 68 70 69 72 67 63 66 63 62 62 60 69 72 70 72 69 66 65 64 62 55 51 49 51 54 54 52 53 53
64 68 69 72 66 74 55 58 59 59 59 62 62 58 57 57 68 66 62 56 55 59 61 62 60 66 72 74 73 69 67 66 64 60 58 56 56 57 58 57 55 55 57 57
66 68 75 76 74 56 47 53 56 58 53 51 50 48 46 48 49 51 57 55 52 52 56 59 58 60 71 79 76 71 69 69 70 66 65 62 64 64 63 61 60 60 61 61
71 73 74 77 76 65 50 57 54 55 59 58 57 53 49 49 50 46 48 56 57 56 57 59 60 63 74 78 77 74 70 68 68 67 67 65 65 66 65 63 62 61 60 55
72 73 77 81 83 67 54 51 55 62 55 58 55 52 50 50 46 48 51 55 60 62 58 56 57 71 79 80 79 79 77 73 70 70 68 67 68 67 66 62 62 61 53 40
71 74 77 78 80 79 60 63 62 58 56 56 57 53 52 51 51 53 55 57 61 64 66 70 77 83 86 84 83 80 78 75 73 71 69 70 69 67 63 63 61 45 33 28
73 67 69 68 66 59 62 65 63 60 58 58 60 58 56 60 60 59 61 64 66 69 73 76 79 83 86 90 88 86 83 81 78 75 75 73 70 67 64 60 40 33 31 29
72 70 67 65 61 62 62 64 63 62 61 62 63 67 65 67 68 70 71 71 75 79 80 83 85 86 89 92 90 87 84 81 80 80 78 75 72 70 66 53 38 35 34 33
78 74 70 68 65 64 64 65 65 64 64 65 67 69 71 75 79 79 80 77 79 85 89 90 95 94 91 91 94 92 88 85 80 77 77 76 75 71 65 49 43 40 38 37
81 78 76 70 65 67 68 68 71 71 70 68 70 72 72 73 76 79 79 81 81 82 85 87 92 94 92 92 91 92 92 88 84 76 74 75 76 74 65 53 48 45 43 41

GFSCGP_prec_cthk_075.txt.gz
RH
92 97 93 71 60 50 56 61 69 64 69 72 81 87 81 79 79 80 79 75 69 62 58 60 56 58 56 50 47 48 47 48 47 45 43 41 39 40 42 42 43 43 42 42
96 97 95 85 60 54 56 63 68 69 68 70 78 78 73 76 76 79 83 77 72 65 60 56 55 53 51 48 43 39 38 38 38 36 35 35 34 33 34 36 37 38 38 38
92 90 95 86 72 58 56 57 63 62 69 73 75 74 71 70 75 78 84 80 72 64 61 60 59 56 54 51 47 41 37 35 34 33 32 33 32 32 32 32 32 32 32 32
92 98 97 90 75 56 57 51 52 55 64 74 71 69 64 68 68 73 81 78 67 64 64 63 62 59 57 53 51 46 41 36 35 34 32 31 30 29 28 27 28 28 28 28
97 94 97 90 77 66 56 51 53 56 62 67 65 69 54 63 62 58 67 75 73 69 67 64 62 60 58 55 51 47 43 41 40 38 36 34 33 32 30 29 28 27 26 26
96 96 97 84 86 68 58 57 60 63 64 73 64 69 54 55 54 58 67 71 76 65 64 65 62 58 56 52 49 47 45 43 41 39 37 36 35 33 31 30 28 27 26 25
97 95 97 92 89 79 67 63 78 77 79 74 61 70 57 50 51 53 56 58 61 68 62 61 59 58 57 54 51 48 45 43 42 41 40 37 35 33 32 31 30 30 28 28
95 98 97 91 91 80 72 65 65 69 73 67 63 66 47 40 40 47 49 52 50 51 58 55 55 55 55 54 52 52 48 45 43 41 40 39 38 37 35 35 35 33 32 32
91 98 94 91 86 80 77 79 62 64 64 63 55 50 37 34 38 37 36 43 46 47 49 53 50 54 57 56 54 52 50 46 44 42 41 40 40 39 39 38 37 36 35 32
82 93 94 91 84 83 78 65 70 64 66 63 51 48 38 38 40 37 33 33 35 41 45 47 55 55 57 58 57 53 51 50 46 44 42 42 41 40 40 39 38 38 35 32
78 84 96 89 86 83 81 76 70 63 60 57 57 43 37 42 40 39 37 36 35 35 40 47 51 56 57 55 55 54 53 52 51 48 46 43 41 40 39 38 37 36 34 32
87 85 96 92 80 78 76 71 67 69 66 64 57 48 37 45 47 46 44 38 41 41 43 47 51 54 56 56 55 54 52 52 52 51 46 42 41 40 40 39 38 36 33 33
78 84 90 88 82 81 80 77 69 66 66 66 63 50 41 45 51 53 51 49 46 48 52 53 53 54 55 56 57 57 57 56 55 54 50 47 45 44 43 43 42 38 36 35
76 78 74 76 68 71 78 74 74 72 74 64 51 47 40 45 53 55 54 54 54 52 54 55 56 56 57 59 59 59 59 58 57 54 53 52 49 47 47 45 42 40 40 40
73 76 73 68 68 72 75 73 70 69 65 66 52 50 46 56 59 58 59 58 59 60 58 55 58 57 59 59 61 63 64 62 59 59 59 58 56 51 49 47 45 44 45 46
73 75 71 72 76 80 82 78 75 71 68 60 59 48 58 64 60 61 66 64 65 64 64 62 59 56 57 62 65 70 70 68 65 63 60 59 58 54 49 51 52 52 53 50
74 77 78 77 74 74 74 70 73 71 67 67 68 47 63 63 65 65 68 68 66 64 62 65 63 61 59 61 68 74 78 74 71 69 67 67 62 61 60 59 60 56 57 56
65 67 68 72 66 75 54 58 61 63 61 63 59 58 60 58 57 61 66 65 67 66 68 66 66 65 64 69 71 72 75 75 73 72 72 71 71 68 66 61 60 60 58 58
63 65 70 72 75 59 49 53 54 59 59 58 59 55 54 52 51 50 58 67 67 60 59 56 58 63 63 67 73 76 75 75 74 71 71 72 69 68 68 65 65 64 63 63
73 72 73 79 79 66 48 54 53 55 58 60 62 60 56 53 51 45 43 50 58 57 59 57 56 60 64 61 69 75 77 77 76 75 73 73 73 70 70 70 72 70 68 67
74 73 73 74 78 67 58 57 58 62 55 58 58 55 53 55 51 49 47 49 51 56 59 61 60 62 62 64 73 77 79 80 80 78 75 75 73 73 73 71 69 69 68 60
65 75 77 78 83 76 58 66 69 60 58 59 58 52 52 52 53 51 53 54 56 58 61 64 64 63 63 68 80 82 85 84 82 80 77 76 74 74 74 72 70 69 63 49
67 65 71 70 68 60 59 63 65 66 63 62 62 56 55 59 61 60 60 61 61 62 65 65 69 72 78 84 90 89 86 85 84 82 83 82 79 76 73 71 70 63 43 35
71 72 70 70 64 64 63 61 62 64 66 64 64 60 63 65 65 67 68 67 68 71 70 72 76 78 78 83 88 90 88 88 86 84 85 85 83 80 77 75 69 50 43 39
82 80 78 73 68 66 63 63 64 66 68 70 67 66 67 72 74 75 79 82 80 78 75 81 87 88 89 92 91 94 94 91 89 88 85 83 83 83 80 76 68 50 48 45
81 80 81 78 75 74 70 67 67 69 72 76 76 73 72 71 76 78 81 85 85 84 83 84 86 92 92 97 96 94 93 93 92 91 90 86 84 82 80 78 69 55 52 49

GFSCGP_prec_cthk_078.txt.gz
RH
93 94 86 70 58 58 66 71 73 61 59 58 65 72 74 73 75 75 76 71 70 67 62 59 60 62 65 76 72 68 64 63 57 54 53 50 48 47 46 46 46 46 44 43
97 96 89 76 65 57 62 66 64 67 59 59 62 61 62 65 70 74 75 72 69 68 62 59 59 59 64 65 61 58 59 56 52 51 48 45 44 44 42 40 40 39 38 39
95 97 90 82 68 56 58 56 60 60 64 62 60 59 55 57 67 71 70 73 72 68 64 60 60 57 54 53 54 53 51 50 48 46 43 42 41 40 37 35 35 35 34 33
92 96 96 87 73 55 54 51 52 53 57 60 54 49 46 52 59 61 64 62 70 74 69 63 61 60 56 53 52 50 49 47 45 41 38 37 36 35 33 32 31 30 29 28
95 95 96 86 80 65 49 46 48 49 51 55 58 62 45 50 50 53 63 61 73 77 72 66 64 62 61 58 56 55 53 51 48 44 39 36 35 34 32 31 30 29 28 28
95 95 97 84 84 69 47 48 51 56 59 59 50 56 49 48 49 53 55 61 73 78 72 70 67 64 62 62 61 60 58 54 49 46 45 43 40 38 36 35 34 32 30 30
97 97 95 89 85 73 56 50 65 70 68 55 51 61 49 48 49 49 51 60 66 74 77 72 66 62 61 61 62 61 58 54 51 47 46 44 43 41 39 37 35 34 33 32
96 98 97 86 83 71 65 48 53 54 56 48 53 55 45 47 47 50 49 52 58 65 77 73 69 64 62 63 63 61 56 54 53 51 47 45 42 41 39 38 36 36 36 35
90 92 95 88 84 79 72 64 51 53 53 50 48 44 40 34 32 40 46 50 51 50 52 66 71 68 66 65 63 61 59 57 56 53 49 46 44 41 39 38 38 38 38 38
79 90 92 92 89 82 78 65 64 62 63 50 43 40 36 34 33 35 36 37 39 46 48 52 64 69 67 63 63 63 61 60 56 54 51 50 47 44 42 41 40 40 39 39
75 78 94 87 88 81 78 72 70 63 58 47 43 35 33 35 37 41 39 39 38 37 39 47 52 59 67 64 59 60 61 59 57 54 52 51 50 49 46 43 41 40 39 38
73 76 93 93 83 81 78 72 66 65 65 58 48 37 34 37 41 46 45 44 43 40 39 40 43 48 57 65 69 67 62 60 58 56 54 52 50 49 48 46 43 41 40 39
77 78 89 94 84 79 76 71 68 66 64 64 51 41 34 36 39 44 47 48 47 43 46 46 48 48 51 56 59 60 61 59 55 53 53 53 53 52 50 50 46 44 44 42
80 77 74 73 70 68 74 69 68 68 75 59 51 44 38 38 39 44 48 48 48 48 49 50 53 55 55 54 53 54 56 56 56 56 55 56 56 55 53 51 49 48 47 45
76 82 73 66 64 70 69 68 67 71 63 61 51 46 44 40 38 38 38 45 52 52 54 55 52 56 58 57 56 57 59 59 59 58 58 57 56 56 55 55 55 55 51 48
72 80 80 79 72 71 71 65 65 65 62 58 56 48 49 48 46 46 49 50 52 55 59 60 59 59 58 59 60 59 60 62 64 66 65 62 60 59 59 58 55 54 53 49
74 72 74 72 69 67 63 61 66 65 65 59 58 51 52 50 49 49 53 57 56 57 64 64 61 62 61 59 58 57 60 65 68 70 72 69 69 67 66 63 60 56 56 59
67 69 71 70 70 73 53 54 55 60 60 57 54 52 50 50 45 48 54 59 57 58 62 64 64 66 66 66 64 64 69 70 71 71 76 77 75 73 72 70 68 68 68 68
59 62 66 65 61 50 45 52 53 53 51 55 58 58 58 56 54 50 47 47 51 62 65 66 67 71 70 68 68 71 75 74 76 76 78 78 75 72 73 75 76 75 72 70
66 65 64 67 69 57 45 54 52 52 53 55 58 62 62 59 55 51 48 45 51 62 61 67 65 63 63 62 62 62 65 73 78 79 80 79 75 75 75 76 77 75 75 73
66 69 70 66 65 51 51 55 57 60 56 53 55 55 54 57 56 56 52 49 45 52 56 58 60 60 62 60 63 64 66 70 73 78 80 80 78 78 77 78 80 80 76 75
56 60 61 64 68 63 51 57 59 56 60 60 59 58 55 52 52 53 53 53 50 50 57 61 62 65 67 66 68 68 68 75 80 81 84 86 85 82 80 80 81 80 79 77
62 57 57 58 58 54 54 56 57 58 61 64 65 64 61 59 56 60 60 59 59 60 61 62 64 68 72 73 71 71 77 84 86 85 85 87 86 84 83 82 79 78 77 70
68 69 67 66 62 63 62 62 59 59 61 62 66 67 66 66 64 65 68 68 68 68 69 68 69 70 70 74 79 84 85 90 90 89 88 87 88 89 88 85 82 80 73 52
82 84 81 76 75 76 72 68 65 63 63 66 70 72 71 69 72 72 77 76 76 78 78 77 76 81 81 83 84 85 91 96 95 94 92 91 90 88 88 87 86 83 69 53
81 80 79 75 76 76 76 77 75 72 68 70 75 77 78 75 74 77 79 83 85 86 87 86 83 82 87 91 94 94 95 96 96 95 94 93 93 92 90 89 87 84 71 59

GFSCGP_prec_cthk_081.txt.gz
RH
97 97 98 76 67 53 54 56 61 62 74 72 76 79 72 74 78 75 75 74 75 72 68 69 63 63 63 65 69 74 67 67 68 65 61 59 57 57 57 57 57 54 53 51
98 97 96 79 73 76 66 64 66 61 64 63 66 64 63 64 64 67 71 73 72 74 69 67 65 63 64 64 64 66 69 69 70 70 66 62 57 54 53 53 50 50 49 48
95 95 92 85 71 73 67 58 64 60 62 58 57 54 51 52 56 58 64 67 69 71 73 69 64 63 63 66 63 63 64 70 67 66 64 61 57 50 48 47 46 44 42 39
90 95 86 82 68 61 72 65 60 62 65 58 49 41 39 41 48 51 57 60 67 70 71 72 67 65 64 62 64 60 53 54 59 57 56 56 56 54 51 46 42 37 35 32
94 91 89 83 69 64 66 59 55 56 60 58 59 54 43 47 45 44 51 57 63 69 73 72 72 67 64 61 57 55 53 52 50 51 54 54 52 47 42 39 36 34 32 32
94 95 94 88 75 73 57 53 53 51 54 61 52 52 41 49 41 42 47 51 54 64 70 71 73 66 64 62 60 59 56 56 56 55 54 51 48 46 44 41 38 35 34 34
96 98 94 91 82 70 58 50 62 65 67 55 45 47 40 43 41 40 40 47 51 60 63 71 70 68 66 65 62 62 63 63 61 59 57 55 52 48 46 44 43 41 40 38
97 97 97 91 84 76 63 54 51 56 51 45 48 44 38 39 41 38 38 42 48 53 62 70 71 69 68 65 65 64 65 64 64 63 61 59 56 51 47 46 43 42 41 40
90 97 92 92 88 75 71 64 58 57 54 54 48 37 34 36 37 38 38 43 45 47 58 67 78 74 71 68 66 68 67 67 64 65 64 62 58 55 52 48 45 42 41 40
83 96 95 88 85 72 75 67 57 57 59 46 42 36 38 37 36 32 33 37 42 47 51 60 75 77 77 75 73 71 68 69 67 66 65 62 59 55 52 49 48 46 44 43
78 83 94 85 89 83 74 72 62 58 52 50 41 38 32 34 35 35 35 37 37 39 44 52 58 64 75 79 78 74 72 71 68 66 65 62 61 58 56 53 51 50 48 46
71 78 93 87 82 82 81 73 68 66 60 50 50 45 35 31 34 35 36 37 38 38 37 37 42 51 55 65 72 75 75 72 70 67 65 64 62 58 55 52 50 50 50 49
69 77 89 92 84 80 77 72 69 66 71 71 58 46 43 35 33 35 35 37 39 39 40 40 42 41 44 49 56 63 69 71 69 68 64 59 58 57 55 55 53 52 51 50
75 74 74 76 74 70 75 70 68 71 79 63 56 48 45 38 37 38 38 38 41 40 41 42 42 44 46 49 49 51 56 60 63 63 62 62 62 61 59 55 53 53 53 52
76 81 74 69 68 71 70 66 65 72 67 65 55 50 46 45 43 41 42 37 41 39 38 46 46 46 49 52 55 56 53 52 54 56 59 60 61 60 58 56 55 55 54 54
74 85 80 78 69 69 68 63 59 60 61 61 61 54 54 47 45 44 43 41 40 39 42 48 51 53 54 52 54 55 56 57 57 56 59 62 63 63 62 62 61 59 56 55
71 73 72 73 68 64 61 54 52 52 56 58 62 61 57 51 48 49 46 47 47 47 50 54 55 58 60 60 59 57 56 57 58 61 63 64 64 64 65 65 66 65 64 62
67 71 71 70 63 67 47 46 44 45 51 56 54 55 54 49 48 46 45 46 47 51 54 56 59 64 64 67 64 63 62 60 61 63 64 64 65 67 71 70 71 74 73 72
55 58 64 67 63 50 42 42 44 46 43 46 47 53 59 59 55 53 46 44 44 49 54 54 56 63 68 70 70 69 68 68 69 71 72 73 75 75 75 75 75 76 76 77
59 60 61 63 66 60 46 50 49 47 47 49 51 54 57 62 60 56 56 49 45 45 49 54 64 68 70 73 67 66 67 64 65 68 74 75 77 76 77 77 78 79 78 80
64 68 69 66 68 52 47 49 52 58 58 56 56 55 53 52 51 56 55 54 53 49 53 59 65 67 72 68 66 64 64 64 65 66 68 72 74 77 80 79 80 80 81 83
51 57 60 58 65 60 46 50 52 54 55 55 57 60 60 55 53 54 56 62 62 58 52 58 62 64 64 64 64 67 66 65 68 69 74 77 77 81 85 85 85 83 84 84
60 51 54 56 57 52 49 51 54 55 54 56 57 59 63 62 59 62 59 59 60 59 58 59 64 64 65 68 66 69 72 72 73 69 77 82 83 86 90 89 86 84 83 82
65 65 67 68 60 60 59 57 57 58 59 59 59 60 62 63 65 65 66 63 65 67 67 67 67 68 68 69 70 72 74 75 77 81 94 90 87 87 86 87 89 87 85 85
80 78 79 75 76 78 74 73 71 69 66 64 64 65 67 67 68 69 70 69 70 73 75 75 75 74 72 72 74 77 78 80 84 85 87 91 88 90 90 89 89 89 91 88
74 75 80 80 80 80 80 80 79 77 77 76 74 72 72 73 74 73 75 75 76 79 82 84 83 83 81 81 85 87 87 88 88 89 96 97 94 94 93 92 93 91 89 88

GFSCGP_prec_cthk_084.txt.gz
RH
98 97 93 89 62 65 65 62 66 62 71 85 81 76 75 67 60 57 55 60 64 69 69 66 61 61 66 74 65 65 64 66 69 71 70 66 61 58 56 57 61 60 58 58
98 98 95 88 79 70 71 67 76 78 74 74 78 77 68 61 60 61 64 65 65 68 69 66 65 63 65 64 73 72 77 66 73 75 70 66 65 61 58 59 58 58 55 53
98 98 92 88 80 82 71 67 89 82 82 79 74 69 61 58 57 52 54 59 62 65 71 69 67 66 68 68 66 66 69 75 71 76 73 73 71 71 67 62 54 53 50 49
96 95 90 88 78 71 73 65 66 71 68 70 62 63 50 47 45 45 49 52 53 63 68 70 67 69 69 67 69 65 64 64 68 68 68 69 69 69 68 65 65 52 49 47
97 93 92 87 82 78 78 67 66 62 67 67 66 62 47 49 49 41 47 49 50 57 66 69 65 71 69 69 70 73 69 67 61 57 55 57 63 63 62 62 59 54 48 42
97 89 83 80 79 77 84 79 70 63 64 77 58 57 39 44 43 37 35 39 47 51 57 68 65 66 68 71 68 68 68 64 60 56 55 55 56 56 55 55 51 47 44 43
87 85 81 81 76 68 69 72 84 81 77 69 44 51 45 40 39 34 34 39 41 45 50 58 60 63 65 67 73 69 65 62 60 58 58 59 58 58 55 54 52 49 47 45
93 93 89 84 81 72 66 59 69 64 68 53 45 49 40 37 34 35 34 34 37 43 46 53 57 61 68 70 71 72 69 65 64 63 64 62 59 58 56 56 55 52 49 46
89 91 90 85 86 75 63 68 62 64 51 63 54 40 37 33 29 32 35 32 37 41 48 52 63 62 69 73 70 71 72 69 68 67 66 64 63 63 63 63 61 59 54 50
77 90 91 92 89 81 78 68 69 68 68 55 57 41 39 36 34 34 34 31 33 42 47 51 61 63 64 70 69 68 71 72 70 69 67 67 65 68 68 67 66 62 58 54
78 80 92 92 91 84 85 84 72 62 58 68 62 50 32 35 35 35 35 35 34 34 39 46 52 58 61 72 75 73 75 75 72 69 69 71 72 69 69 67 65 62 58 55
72 81 90 85 83 79 75 78 70 77 66 55 58 56 42 40 34 33 33 34 35 35 37 38 43 49 58 67 77 76 83 81 78 75 74 73 73 72 68 66 65 63 60 57
67 77 90 87 82 77 84 76 74 72 71 68 68 48 41 38 37 37 35 35 33 34 34 38 40 40 44 48 54 59 68 79 79 81 79 81 79 74 67 62 58 58 57 55
70 69 70 84 77 76 78 74 74 79 88 74 69 61 50 49 46 42 39 38 35 35 36 37 39 42 42 42 44 44 46 51 58 65 68 71 70 67 67 67 64 62 61 60
74 77 72 71 67 74 75 70 70 75 68 75 60 54 50 50 49 46 43 42 38 38 38 38 38 38 42 44 45 46 48 50 52 54 56 59 64 64 62 61 62 61 60 58
70 85 79 74 67 69 70 66 65 64 62 66 62 56 51 48 48 47 46 45 44 40 39 38 40 41 44 47 49 50 51 51 52 54 57 58 59 59 60 61 62 62 61 59
68 70 71 75 68 67 67 60 60 58 56 56 59 54 53 53 52 51 49 46 44 44 43 43 41 44 48 50 51 52 54 54 54 55 56 57 60 61 63 63 63 61 61 62
63 68 72 77 67 71 52 50 49 48 48 49 50 53 52 49 49 49 45 42 40 43 46 47 45 49 54 56 57 60 61 62 61 60 60 62 62 63 65 65 64 67 67 69
58 63 68 73 72 58 49 47 47 45 42 40 41 43 45 47 49 53 52 49 45 43 45 48 49 51 59 61 64 66 69 70 67 66 66 70 70 70 71 72 73 73 72 73
59 64 67 68 72 63 52 53 52 48 52 50 49 50 51 51 55 53 55 57 51 51 47 46 50 51 56 65 69 70 74 72 69 68 70 68 67 71 71 71 73 72 74 76
64 65 67 70 75 62 51 52 54 59 59 58 59 59 57 58 55 50 49 50 54 55 53 48 52 53 60 71 74 77 79 74 70 68 68 67 66 67 68 70 75 80 83 80
69 68 66 65 69 68 52 52 53 59 61 61 60 60 61 60 60 58 57 55 53 54 58 60 62 62 67 75 76 74 74 73 71 70 68 68 68 70 74 76 81 83 83 84
74 65 68 68 68 65 64 60 56 57 59 61 62 61 63 64 64 63 66 64 63 60 58 58 62 72 73 76 74 74 77 77 72 74 74 74 75 70 78 82 84 86 86 85
65 69 72 73 70 74 74 75 74 70 67 68 66 65 66 67 69 69 68 70 71 71 68 66 67 68 72 72 74 75 76 77 76 77 77 77 75 81 90 86 86 88 88 87
61 60 63 63 70 68 78 79 83 83 82 80 77 75 74 74 75 75 73 73 76 78 78 76 79 80 79 78 77 77 76 75 75 76 78 80 86 87 90 89 88 88 88 88
45 53 58 65 63 67 70 83 90 85 85 84 82 82 84 83 81 80 78 80 82 82 83 82 80 84 84 83 82 81 80 82 84 85 86 87 88 88 95 96 95 92 92 90

GFSCGP_prec_cthk_087.txt.gz
RH
93 94 95 95 89 84 71 67 77 76 76 91 93 90 87 84 76 64 57 53 50 51 52 53 56 62 65 67 63 71 75 77 68 65 66 65 65 72 60 56 58 59 55 53
91 93 92 93 89 82 74 77 78 77 80 79 84 85 83 80 73 65 56 48 49 52 52 53 54 58 66 64 69 69 71 72 70 68 71 74 74 77 79 73 71 65 62 60
86 96 93 92 82 79 78 79 80 79 88 85 81 81 75 71 65 59 53 53 50 48 47 50 55 57 64 66 69 67 74 75 73 78 79 78 79 79 76 77 74 70 66 59
91 89 90 88 79 71 77 72 73 74 78 95 85 84 69 61 60 59 55 48 48 52 51 48 51 58 62 66 69 68 66 76 80 82 81 85 86 82 80 80 84 83 77 72
99 94 91 89 81 76 71 69 74 91 85 88 80 75 57 53 53 47 41 38 39 44 49 47 50 57 62 66 66 72 73 72 75 75 76 80 80 79 74 70 72 71 65 61
95 92 89 91 84 79 73 72 78 86 83 81 69 64 54 52 46 43 40 33 35 39 41 45 46 54 57 62 66 72 75 73 77 78 78 71 66 64 61 59 58 63 61 57
90 96 90 84 80 83 91 82 95 93 87 75 60 64 53 43 42 39 38 38 36 34 35 41 47 50 55 61 66 70 72 76 78 80 76 71 66 64 62 62 61 58 57 54
80 80 85 83 84 88 90 75 79 80 79 66 54 56 43 42 40 36 35 32 32 31 32 34 40 51 57 61 67 68 70 73 76 76 71 66 65 63 62 61 60 59 55 57
82 81 76 78 76 78 80 79 66 69 60 67 54 43 33 34 36 33 31 30 27 28 33 33 37 44 50 57 61 67 70 70 74 75 72 70 69 67 67 63 62 64 62 62
72 85 80 76 70 68 70 67 69 75 72 63 61 49 39 34 32 30 30 31 30 30 31 39 42 45 52 56 62 67 68 74 75 78 77 73 73 74 71 67 68 67 66 68
70 73 84 79 78 74 67 69 65 66 70 68 59 46 37 33 36 33 35 34 32 31 31 36 44 49 56 62 67 74 73 72 77 79 80 78 79 76 75 74 73 70 69 69
69 76 80 82 78 78 80 76 70 75 63 62 61 54 43 41 38 32 33 34 33 32 31 32 34 39 49 56 63 72 81 77 76 74 73 75 77 75 74 72 71 72 73 69
65 75 83 82 80 77 76 75 80 75 71 70 65 53 45 44 40 37 37 35 34 33 31 32 33 37 39 44 53 60 74 82 82 75 73 78 88 85 85 84 85 82 79 75
57 64 69 75 73 75 76 73 74 78 83 68 63 51 47 43 44 45 43 40 38 36 34 33 35 35 38 41 44 47 53 58 61 66 73 73 77 84 83 77 75 70 68 68
71 76 71 68 70 76 79 74 77 82 73 76 60 61 54 55 54 53 51 48 45 42 39 36 35 35 36 37 39 44 45 47 50 53 56 60 60 61 64 64 66 68 66 64
74 85 84 81 74 72 73 73 73 71 69 71 64 59 54 55 54 54 54 52 50 48 45 41 39 37 36 36 38 42 47 49 51 53 55 56 58 60 59 60 62 60 59 60
74 77 77 79 68 69 71 65 66 66 66 67 68 55 55 55 56 55 53 53 53 52 50 47 44 43 40 40 41 47 49 52 55 57 57 57 57 56 57 61 62 63 62 62
61 63 67 73 66 72 53 52 54 60 59 58 58 56 55 56 57 58 55 52 49 46 43 42 43 42 45 45 48 53 56 57 58 59 62 61 61 61 63 64 64 65 65 65
53 55 59 64 66 54 45 49 52 53 51 47 45 49 53 54 52 52 49 52 55 52 49 48 46 47 50 52 54 58 64 65 67 68 70 68 67 69 71 70 70 71 72 71
56 57 63 68 70 65 53 54 55 54 54 54 55 58 57 54 56 50 48 48 50 50 52 53 52 49 55 54 59 64 68 72 73 74 75 73 71 71 72 71 69 69 69 70
65 66 71 73 77 66 55 53 54 57 54 58 59 59 59 61 60 57 56 55 54 51 50 52 57 54 53 58 58 63 70 77 79 80 80 77 71 71 71 68 68 69 70 74
61 68 73 78 80 81 66 66 64 61 58 58 59 60 60 60 60 60 60 60 61 60 53 50 53 57 60 61 68 76 83 85 87 87 85 78 73 72 70 70 71 74 78 80
56 54 59 61 66 64 63 62 69 75 75 75 71 65 65 63 63 63 63 63 65 66 65 59 57 60 67 80 86 83 86 86 84 80 79 75 76 77 74 72 70 76 80 80
53 51 52 52 51 54 58 60 64 61 66 69 80 84 82 73 69 69 70 71 70 70 71 72 69 67 69 74 78 84 87 87 85 81 80 80 78 77 81 80 75 86 88 85
47 47 50 49 49 45 49 50 53 56 67 69 85 84 88 90 86 82 80 78 76 77 74 76 80 80 79 77 79 80 80 81 81 82 80 79 77 80 80 83 85 89 89 87
43 48 50 52 48 52 45 49 48 48 55 70 82 90 80 90 91 90 91 89 86 86 82 81 85 83 84 84 85 86 84 83 82 82 81 84 86 88 88 88 89 90 94 97

GFSCGP_prec_cthk_090.txt.gz
RH
95 88 88 95 98 86 68 72 77 82 86 87 90 90 90 88 81 72 66 62 54 48 48 50 57 57 63 65 66 64 69 72 74 78 80 83 74 70 71 69 64 62 58 51
88 89 94 94 95 88 77 70 74 76 78 80 90 92 91 84 81 73 68 62 58 51 47 46 49 52 55 59 63 63 69 72 73 73 73 75 73 69 75 71 67 68 70 64
83 86 90 96 87 86 76 68 67 86 93 85 84 86 76 85 85 81 71 61 58 55 49 47 48 49 53 53 55 60 67 74 72 72 70 69 70 74 79 81 83 82 83 80
90 81 81 97 87 76 78 68 65 79 94 99 88 87 75 71 72 72 62 56 54 51 47 44 45 46 49 51 57 58 61 69 73 76 74 69 68 76 81 81 85 84 86 82
98 92 88 87 86 78 79 76 76 83 89 97 97 92 71 64 62 60 57 55 50 49 48 43 42 43 46 49 53 58 61 65 71 73 81 75 78 78 81 82 84 90 87 84
88 92 89 87 81 78 82 85 87 88 95 96 83 84 62 59 53 51 50 46 48 44 40 43 43 44 45 47 51 56 61 67 74 72 78 76 81 80 80 80 83 82 75 71
84 89 85 80 77 75 76 87 98 98 98 82 74 79 57 53 47 47 48 44 40 35 33 36 36 39 41 45 49 56 62 65 76 77 78 82 82 83 86 84 80 76 74 70
95 92 87 88 87 86 79 83 87 93 88 72 73 73 54 47 45 42 41 38 38 37 34 31 31 32 36 43 52 55 58 65 69 76 82 83 88 92 84 83 80 76 72 67
82 85 86 87 89 93 82 79 68 76 72 72 63 52 44 47 46 43 39 36 33 30 29 30 28 30 34 40 48 57 62 65 69 75 77 84 85 86 81 77 71 66 66 63
65 77 75 79 83 81 79 71 66 70 68 63 60 53 41 37 37 37 35 32 28 27 24 25 30 35 37 39 44 50 57 61 65 71 74 75 82 81 80 79 78 74 72 69
66 67 72 68 72 79 75 71 68 65 65 61 61 53 40 37 37 36 32 31 29 28 28 29 31 37 45 48 46 48 56 61 65 68 70 74 78 78 83 81 79 79 79 77
68 73 79 74 69 67 67 73 71 72 67 69 64 53 42 39 39 37 31 31 31 34 33 31 30 32 40 45 49 52 54 61 65 71 71 74 81 87 87 86 87 88 82 79
66 74 79 77 73 71 73 70 68 71 70 73 70 54 47 45 45 42 38 36 36 36 34 33 32 31 31 34 41 47 54 61 68 77 76 75 77 78 83 78 83 87 87 84
59 67 67 76 71 74 74 70 72 78 83 70 67 56 53 55 54 47 43 41 38 37 35 34 33 31 31 33 35 40 45 50 59 71 82 82 80 78 80 84 76 83 84 75
63 68 67 68 67 73 74 73 68 72 71 76 63 68 61 58 55 53 52 51 47 45 42 40 39 37 35 34 36 38 38 44 49 54 61 65 67 75 81 78 77 69 65 65
62 72 69 68 64 65 68 69 72 73 73 74 70 66 65 65 64 61 58 54 52 50 48 48 46 43 41 39 37 37 37 41 47 50 53 57 60 60 60 60 59 58 57 57
62 65 66 69 63 61 66 64 68 70 69 67 66 61 62 59 58 55 54 54 53 51 51 50 49 47 46 44 42 40 40 43 48 52 55 57 59 60 60 58 56 57 59 61
58 60 60 66 60 67 53 53 53 57 58 57 58 57 57 58 56 56 56 56 54 49 45 45 44 42 43 45 46 49 49 49 52 56 57 58 59 61 62 61 62 63 64 65
55 59 61 63 64 53 46 45 47 46 49 53 54 53 54 56 56 54 53 52 50 48 47 46 46 45 44 44 48 55 56 55 58 61 64 64 66 67 69 68 68 69 69 69
54 58 62 68 70 65 50 50 48 45 49 48 52 54 56 56 58 55 52 51 48 46 46 44 44 47 49 50 52 61 61 64 67 68 71 73 75 76 75 73 72 71 71 72
60 61 61 65 67 61 53 55 57 60 53 51 51 50 51 55 55 53 54 55 53 53 52 49 46 46 49 55 56 63 69 68 73 76 78 80 81 81 80 76 74 73 72 69
53 57 59 63 65 63 49 50 51 50 54 59 61 63 67 64 56 55 56 56 57 57 58 57 54 50 48 52 58 58 69 75 79 80 84 86 87 86 84 82 77 75 72 72
50 48 49 52 52 50 50 50 52 52 52 53 55 55 58 55 61 74 65 61 62 62 62 60 60 59 57 58 62 66 72 81 85 90 92 93 94 91 88 85 82 79 76 76
47 46 45 46 47 52 53 56 57 58 60 59 58 59 64 67 66 72 84 80 70 70 69 67 68 68 66 67 71 74 81 91 95 93 94 94 92 89 88 89 87 84 83 82
45 44 48 49 49 45 44 42 40 40 42 42 46 54 62 73 76 85 82 83 87 84 78 78 77 75 76 74 74 77 78 82 90 93 92 91 90 89 88 85 82 81 83 85
41 43 43 44 41 42 39 40 38 39 40 41 46 51 64 71 74 98 96 87 90 93 91 88 87 85 83 82 84 83 83 85 88 88 86 85 85 86 84 85 86 88 89 90

GFSCGP_prec_cthk_093.txt.gz
RH
94 92 97 98 86 83 57 68 82 85 94 95 91 94 87 88 77 69 68 67 61 54 56 67 75 77 79 73 82 90 91 82 82 78 83 77 76 74 79 76 75 72 71 68
94 98 92 95 97 76 65 70 77 87 93 89 92 96 93 82 80 74 68 64 63 58 51 51 59 62 70 74 76 84 84 79 79 80 82 76 70 72 76 75 76 74 72 68
92 89 83 81 82 77 67 72 69 83 94 91 91 95 88 79 76 73 69 64 61 61 58 52 48 53 61 61 64 68 70 77 74 76 81 85 82 76 82 73 73 75 78 81
94 91 94 96 83 70 70 73 68 74 89 93 88 95 91 82 76 72 69 67 63 58 59 59 54 50 51 57 66 65 64 68 76 80 84 78 75 76 76 75 77 72 75 85
93 96 98 97 89 77 72 69 71 76 89 95 97 89 82 73 69 65 64 60 57 56 54 54 54 54 51 49 53 55 62 68 70 71 82 81 78 76 81 81 86 86 80 80
91 90 95 94 82 77 74 75 80 83 85 96 91 91 76 69 65 58 56 56 53 52 50 50 50 51 49 47 46 47 52 58 63 69 73 73 82 85 86 88 89 92 91 88
93 92 90 89 80 83 86 84 95 93 95 88 79 86 68 62 57 49 49 47 46 46 47 47 48 47 47 46 46 45 46 48 53 60 66 75 84 88 87 92 95 97 95 93
89 90 92 87 90 93 92 81 85 91 89 78 76 76 60 52 50 46 44 43 41 39 41 41 39 38 41 41 43 44 43 46 50 55 63 70 77 82 88 93 93 97 95 93
89 91 86 86 83 85 83 84 76 78 75 74 75 62 51 49 49 45 41 38 38 39 40 38 36 34 35 37 37 38 39 43 49 55 59 63 72 73 80 86 85 91 91 92
74 87 86 84 90 85 74 71 77 80 80 63 65 60 52 47 49 45 44 43 41 38 34 32 30 29 30 31 32 35 39 43 48 55 58 61 63 71 77 81 86 86 85 83
62 65 79 77 80 86 75 69 66 68 70 66 68 57 48 45 45 46 48 45 39 33 30 29 28 28 29 34 35 35 37 39 44 49 52 57 64 71 75 76 79 82 83 86
62 68 78 76 71 75 76 78 72 72 67 69 64 56 49 46 47 49 40 36 34 33 32 31 29 27 26 32 37 41 43 44 46 50 54 58 62 66 70 73 77 82 86 85
59 66 73 70 67 65 65 64 69 67 67 70 68 55 53 54 51 46 41 38 36 36 36 34 31 30 28 28 30 36 40 43 47 54 58 58 63 71 72 79 81 79 80 81
56 61 58 65 62 66 69 69 69 68 73 68 67 59 54 56 59 56 49 43 39 37 37 36 36 34 32 31 31 33 35 38 42 46 51 60 70 77 82 79 77 78 76 85
53 60 61 61 64 67 68 69 68 71 70 75 67 63 57 59 58 55 51 48 44 42 40 40 39 38 36 36 35 35 36 39 39 41 44 51 58 68 78 83 75 81 83 85
56 65 60 61 61 60 61 61 62 65 67 66 67 67 66 59 57 57 56 54 50 48 47 47 44 44 43 42 42 40 39 38 40 40 42 47 50 55 59 62 66 69 68 66
57 61 62 64 61 57 58 52 56 59 61 61 64 59 58 59 58 56 54 55 55 54 53 51 49 47 46 46 46 44 42 41 40 40 43 45 49 52 55 58 59 60 60 58
55 57 58 62 52 53 42 44 45 47 46 49 50 49 50 53 55 55 56 55 53 52 51 50 48 45 46 46 45 45 44 43 44 44 45 48 54 56 58 60 60 59 59 59
48 52 56 57 58 47 40 40 42 42 42 43 45 47 49 52 51 52 53 54 54 52 49 47 45 43 43 44 46 46 46 48 51 52 53 53 57 60 61 61 62 63 63 65
50 52 52 60 61 56 41 46 44 42 48 47 49 50 48 47 50 49 52 55 57 56 53 51 50 47 42 40 40 44 46 48 53 57 58 62 63 64 66 68 69 70 69 69
54 55 57 59 58 49 43 43 42 48 44 48 51 56 59 61 64 59 56 53 54 55 56 55 52 50 48 45 42 43 50 52 60 65 66 67 70 72 74 76 78 76 75 73
50 55 55 57 59 56 42 41 44 48 45 47 48 51 51 53 51 51 53 58 65 59 57 58 57 56 54 51 48 45 49 60 66 74 77 78 78 80 83 83 81 80 79 79
48 43 47 48 46 43 45 46 51 52 50 50 52 52 56 56 56 59 58 60 63 62 68 67 63 61 60 60 57 57 53 56 67 76 84 87 87 87 87 88 87 86 88 87
42 43 43 43 43 46 46 49 48 45 44 45 43 43 43 45 51 47 47 53 67 72 75 85 77 68 67 66 65 67 65 63 69 77 82 88 87 93 96 94 93 92 90 89
42 44 45 45 44 42 44 41 34 29 29 28 28 30 33 40 42 47 45 51 54 65 86 95 93 81 77 73 73 73 74 77 78 83 90 97 96 95 96 95 93 93 92 92
40 43 44 41 35 34 33 31 27 25 26 27 31 37 42 49 52 64 81 84 73 68 95 91 94 95 90 86 83 81 80 82 84 86 85 89 94 97 97 94 91 89 88 87

GFSCGP_prec_cthk_096.txt.gz
RH
98 99 94 77 86 85 85 66 61 69 81 87 95 97 96 94 82 78 73 71 67 66 70 75 81 83 87 91 91 89 89 85 78 74 80 74 78 76 77 77 74 75 77 71
92 95 89 93 91 89 81 73 70 79 82 91 93 95 96 91 81 76 72 71 66 61 62 64 67 75 81 89 88 87 83 79 78 67 70 71 66 75 77 75 80 81 80 79
91 93 88 96 92 93 72 73 75 76 82 95 91 90 92 91 81 78 72 70 66 62 62 61 64 69 78 77 80 76 80 88 79 79 81 82 84 88 85 82 75 77 83 82
99 90 91 98 87 80 69 63 68 76 97 92 93 92 90 91 86 78 73 69 65 64 62 59 58 59 65 71 79 85 79 85 82 90 88 84 95 91 87 87 88 90 88 84
96 95 90 92 85 76 65 66 66 79 84 87 92 92 82 88 86 74 75 74 70 66 65 63 59 56 56 59 64 71 74 81 80 79 82 87 81 85 86 92 91 95 93 92
98 96 97 86 73 67 67 75 80 82 77 83 88 83 78 79 80 75 71 68 69 69 67 65 63 60 58 57 58 58 56 60 66 70 72 75 79 84 85 84 87 92 94 96
94 93 91 90 80 76 72 73 90 86 83 82 79 77 73 69 74 64 61 57 64 64 64 60 58 56 54 55 54 54 55 54 55 56 63 66 73 75 76 80 84 84 93 96
88 97 96 88 91 93 85 73 77 81 82 75 75 80 67 61 64 61 55 53 57 57 57 57 55 53 53 49 50 52 52 51 50 50 52 55 58 64 65 73 76 84 91 85
86 96 90 90 91 93 92 79 64 72 72 80 77 68 59 60 62 61 54 51 55 55 54 55 56 53 45 40 42 45 48 50 50 50 50 53 57 55 56 63 67 78 85 87
76 87 88 89 84 82 82 76 77 75 72 63 70 62 58 57 62 60 56 54 52 50 46 44 43 40 41 39 37 40 41 42 44 45 47 48 49 49 52 56 62 71 81 82
65 73 85 82 92 82 78 75 71 69 68 66 64 56 54 52 53 59 55 51 47 45 41 38 37 36 36 36 37 38 37 37 39 41 43 44 45 46 49 56 64 69 72 73
66 73 82 87 84 80 72 69 58 64 64 70 63 56 51 52 52 48 47 45 42 39 38 36 35 33 31 31 37 41 43 45 47 46 45 44 44 46 49 51 55 57 64 71
59 66 74 72 67 65 66 68 66 62 61 63 58 51 49 51 50 47 45 45 40 40 39 37 36 35 34 34 33 34 39 44 46 47 47 48 51 52 52 54 55 60 65 68
57 61 57 64 62 64 64 63 64 61 67 63 63 54 50 50 48 46 44 43 43 42 38 35 35 35 36 35 33 31 31 32 34 36 38 41 44 46 49 52 57 69 74 73
52 63 63 60 60 60 60 60 60 62 61 65 60 58 52 52 51 48 45 44 45 43 41 38 35 35 36 36 35 33 32 31 31 32 33 34 37 42 45 49 53 61 74 84
52 60 55 58 58 57 55 54 55 58 60 63 62 62 56 55 54 52 51 48 45 46 45 43 41 39 38 38 39 38 37 36 35 34 34 36 37 40 44 45 49 54 59 65
51 54 55 60 55 50 52 49 52 55 54 53 54 51 51 50 50 51 53 54 55 55 54 51 48 45 42 42 42 41 41 40 39 38 38 38 39 43 46 46 49 51 55 57
50 51 52 56 44 41 37 38 39 41 41 42 43 43 45 47 48 50 51 53 55 56 58 59 58 55 51 49 48 44 41 40 40 40 41 42 44 46 46 48 49 53 55 58
46 47 50 50 51 39 37 38 39 38 40 42 46 49 48 46 46 43 48 52 56 59 60 60 58 56 55 53 50 47 47 47 46 46 48 50 51 50 50 52 56 58 60 59
45 46 47 51 52 44 34 41 40 37 41 47 48 49 48 48 52 48 51 53 53 55 58 60 60 60 58 57 54 48 43 42 45 52 53 55 58 60 59 61 61 62 62 62
49 51 54 54 54 46 39 40 39 43 38 44 45 45 45 47 49 47 45 47 55 61 65 62 61 61 65 65 61 55 51 46 46 49 58 60 61 64 65 64 64 67 68 68
46 51 52 55 56 51 39 38 37 42 43 41 42 44 45 45 43 43 41 41 43 43 45 55 64 70 66 66 65 62 56 55 51 52 62 67 68 70 72 72 74 75 76 76
46 41 43 44 42 39 40 42 43 44 41 41 40 36 33 30 29 26 27 28 31 32 31 34 43 60 70 76 69 63 63 61 57 57 64 69 76 79 82 83 83 83 83 83
42 42 43 41 39 43 42 43 42 39 36 32 26 23 25 27 29 35 37 37 34 34 41 46 44 51 66 78 75 71 69 68 65 63 66 71 80 80 83 87 89 90 88 88
41 43 43 43 41 41 42 40 38 31 25 21 23 26 28 32 35 41 42 49 61 69 74 70 58 52 61 76 83 81 76 76 76 71 72 77 82 87 82 90 91 93 95 95
40 40 43 43 40 37 33 33 29 25 24 28 30 32 33 39 43 48 55 67 87 86 87 92 78 59 69 85 96 93 85 83 83 84 84 87 86 84 91 97 98 97 97 96

GFSCGP_prec_cthk_099.txt.gz
RH
93 98 98 92 82 87 99 77 71 68 72 65 67 77 88 89 88 89 92 88 85 83 73 89 96 95 95 93 90 87 87 86 79 77 74 73 75 76 85 76 74 74 73 74
93 96 91 84 81 84 98 80 78 71 77 67 75 72 88 87 89 92 89 91 87 87 77 85 80 91 95 89 90 89 89 91 83 79 75 81 85 83 82 79 76 82 83 82
97 95 97 97 81 93 91 76 80 71 78 75 76 82 88 92 93 82 83 88 86 82 79 80 81 78 87 85 88 93 85 94 86 83 79 79 86 90 89 84 84 89 89 87
95 98 96 96 88 93 84 73 69 70 74 88 88 92 93 94 87 89 82 81 78 75 73 72 76 78 79 86 79 78 86 93 96 92 92 86 87 84 83 84 86 88 91 89
94 98 94 94 82 78 71 77 81 85 75 83 92 93 91 93 93 85 83 77 75 72 71 70 71 72 73 77 77 83 85 88 94 86 87 88 86 88 86 84 81 87 87 87
98 95 93 87 78 73 63 76 87 87 72 78 87 81 81 86 89 87 79 76 73 74 75 71 67 68 65 62 66 71 77 84 81 77 76 78 86 83 89 92 89 87 85 92
98 90 90 89 85 82 75 73 88 78 81 80 79 79 79 78 87 81 75 74 74 79 77 74 69 69 66 60 57 59 61 62 65 68 66 68 72 72 78 84 82 85 82 84
94 98 96 89 89 89 83 74 72 74 81 82 82 80 79 72 80 73 69 68 64 70 71 70 68 66 66 63 60 59 58 56 57 56 58 58 60 61 65 68 71 71 70 75
87 93 95 92 90 84 77 69 60 65 70 79 78 70 67 71 76 69 64 61 60 61 65 64 63 63 60 60 58 55 54 52 54 57 57 58 56 58 60 60 59 61 60 63
83 96 95 92 94 81 79 66 65 70 68 74 68 65 61 66 67 65 63 58 56 55 56 56 56 56 56 53 50 49 49 48 49 51 54 57 56 54 53 52 51 53 57 62
75 82 88 85 93 92 85 75 63 62 60 57 59 58 52 55 61 62 61 56 52 50 48 47 47 45 43 44 43 42 40 41 45 46 48 51 50 49 49 48 48 51 57 60
67 76 87 86 79 78 75 74 63 63 58 60 55 59 56 55 51 51 53 54 52 49 46 45 44 43 42 38 41 42 43 44 44 44 45 46 46 45 44 44 45 49 51 55
58 67 71 70 66 68 69 66 62 59 57 62 52 54 52 52 51 50 49 48 46 46 47 45 43 41 41 39 36 35 40 43 45 45 45 45 45 44 43 45 48 51 51 51
53 59 55 61 58 59 58 60 58 53 55 54 51 49 47 49 50 49 47 46 45 47 50 50 48 46 43 42 41 38 37 35 35 37 40 43 44 45 46 47 47 49 48 50
50 61 60 61 60 58 60 57 56 58 55 54 53 53 50 48 45 43 42 43 45 45 45 47 48 50 48 46 44 43 43 40 38 36 34 35 36 39 41 43 44 45 46 49
47 57 53 57 54 53 54 53 53 53 55 55 55 53 48 44 44 44 44 44 44 45 45 46 46 48 50 52 54 52 47 46 44 42 38 37 36 36 37 40 41 42 46 51
49 50 50 55 49 44 46 44 45 48 49 48 47 47 49 48 47 46 44 46 47 49 50 51 52 51 52 51 49 48 48 47 46 46 48 45 43 41 40 43 43 45 47 49
46 46 48 52 38 35 36 37 36 37 38 38 39 41 40 40 38 40 38 40 42 43 44 46 49 50 51 53 54 51 50 49 47 45 48 52 50 47 48 48 48 50 53 53
41 41 45 45 45 34 35 37 38 36 40 42 42 43 41 39 36 37 38 40 41 42 44 45 47 48 51 57 58 56 56 55 53 51 52 52 52 50 50 51 53 54 53 53
41 41 41 47 46 33 32 38 38 36 39 41 42 42 40 38 39 32 30 29 29 30 33 36 38 42 46 49 51 56 60 60 61 58 53 55 59 57 55 57 58 61 58 60
45 46 48 48 48 41 35 36 36 39 32 39 39 39 40 40 39 35 30 22 17 17 17 20 24 27 30 37 47 49 49 55 62 62 58 54 54 61 64 63 66 66 65 65
42 46 49 52 52 43 35 35 36 36 37 37 39 36 34 30 23 20 20 23 26 27 28 28 25 24 26 31 42 42 48 59 56 62 64 59 54 59 64 67 67 67 69 71
43 38 40 40 38 34 36 36 38 38 37 37 33 27 24 25 28 29 30 30 32 34 36 40 41 34 29 36 39 44 46 56 62 58 66 66 63 64 66 69 72 74 76 78
42 40 41 38 36 39 39 40 39 37 35 32 25 25 27 31 33 32 34 36 37 39 44 54 68 69 65 68 51 45 60 58 60 64 64 68 69 74 70 73 78 82 83 86
40 43 42 41 39 40 40 40 38 33 28 25 24 26 31 33 34 35 32 34 39 48 61 80 89 89 82 81 76 55 68 68 64 65 68 69 71 78 78 75 80 83 88 92
39 39 41 39 35 37 37 38 32 29 27 25 26 29 31 34 35 35 36 40 45 53 69 87 96 96 95 97 84 62 74 72 70 73 76 77 75 80 85 95 95 86 86 89

GFSCGP_prec_cthk_102.txt.gz
RH
74 90 90 94 91 86 81 77 71 70 60 58 57 53 51 59 75 85 82 82 82 87 95 93 91 99 97 93 87 88 95 91 82 75 70 69 69 69 67 73 68 65 59 65
95 95 92 85 80 84 95 81 76 80 67 57 59 51 48 56 77 88 87 83 80 83 95 96 95 94 99 96 97 96 95 91 84 86 74 72 74 74 75 76 80 72 72 80
97 94 95 86 76 86 90 85 76 83 79 68 63 64 60 69 83 80 83 84 82 87 94 97 93 87 93 98 98 96 94 93 90 84 82 77 84 82 78 79 81 79 80 83
96 93 90 88 81 83 79 76 73 66 66 75 78 77 67 77 83 72 83 84 90 89 90 98 95 95 86 84 88 92 88 91 88 83 84 88 91 87 87 85 81 81 84 88
89 86 80 93 87 83 80 76 74 67 76 78 71 78 85 84 86 82 86 85 92 87 90 92 96 95 97 94 89 87 85 80 86 94 95 95 93 92 89 89 84 84 87 88
93 91 92 87 83 87 88 88 90 82 79 90 78 75 93 95 94 90 88 86 90 88 88 87 86 82 81 87 91 84 87 79 88 96 87 88 88 87 95 93 89 87 86 86
95 97 84 80 78 82 91 96 92 88 87 86 78 80 89 88 89 92 86 80 78 83 84 80 78 78 73 74 78 79 80 83 82 82 87 86 85 93 94 95 89 84 88 90
95 97 98 89 81 78 82 80 75 76 74 77 77 94 89 82 76 86 82 78 77 78 78 74 77 77 74 73 70 69 67 68 70 72 73 74 81 78 85 76 82 80 81 80
87 97 93 91 82 85 76 76 67 66 70 69 77 76 79 77 74 72 75 78 73 66 69 74 74 72 72 72 70 69 66 67 66 65 65 66 69 68 67 66 69 68 71 72
85 98 93 90 79 74 68 67 65 65 65 67 66 63 73 72 71 69 65 63 64 63 66 67 66 65 63 63 63 63 62 63 62 60 59 59 59 62 63 63 62 61 62 64
77 81 95 84 81 78 71 62 59 54 54 49 51 59 59 65 65 62 58 59 59 59 60 56 52 50 50 50 51 52 53 54 53 52 52 53 56 59 60 61 59 55 54 58
74 80 92 89 85 76 70 64 55 56 51 54 43 55 54 52 51 51 52 51 52 51 49 48 46 44 45 44 44 47 44 43 46 48 47 47 49 53 54 55 54 52 52 56
66 68 72 74 73 70 69 64 57 51 50 52 43 52 49 47 46 45 44 44 45 45 43 41 39 39 40 40 41 40 43 49 48 47 46 47 48 50 51 51 49 47 49 52
54 57 55 57 63 62 58 52 48 47 52 42 43 48 49 46 45 44 44 44 43 42 43 44 45 44 44 42 41 40 38 38 38 42 47 48 48 49 49 47 47 49 52 56
50 61 60 56 55 57 54 52 49 51 45 47 47 48 48 45 43 42 42 42 42 42 43 45 47 49 48 45 44 46 46 44 42 42 40 39 40 41 41 43 45 48 49 49
44 55 53 54 50 49 48 46 46 47 47 44 44 45 46 45 44 41 40 40 41 43 46 48 49 47 46 49 49 47 47 48 49 48 47 45 43 42 41 41 42 43 47 47
41 42 42 46 42 38 40 41 41 42 41 40 36 41 41 40 41 40 41 41 41 41 41 42 44 46 49 50 51 51 53 54 53 52 51 51 50 47 46 46 44 43 43 46
37 37 39 38 30 32 34 34 33 33 35 34 36 37 38 38 36 34 35 35 34 33 34 34 35 36 38 40 44 44 47 51 55 57 56 54 52 52 52 51 49 49 49 48
34 33 34 32 29 30 32 32 34 33 36 39 39 38 38 37 35 35 36 33 29 25 23 21 21 22 25 27 32 37 41 46 47 50 58 62 62 58 57 56 55 53 54 54
35 33 30 35 31 23 28 34 34 32 32 38 36 35 34 31 29 26 28 23 19 19 19 20 21 20 19 17 19 25 31 35 41 48 51 54 62 62 62 65 65 60 57 58
37 37 35 34 35 28 28 32 34 33 26 33 33 32 31 29 27 22 20 21 22 25 26 28 29 29 30 31 30 25 24 28 37 49 51 52 55 61 65 64 72 71 70 67
34 35 37 40 40 32 30 33 30 27 31 32 34 32 29 23 21 23 24 26 29 30 32 35 37 37 36 41 44 40 32 31 30 42 52 56 58 62 62 69 70 75 79 78
36 33 32 34 28 29 31 31 33 32 32 35 32 28 25 26 27 28 29 30 31 31 31 34 36 39 40 49 61 65 60 60 47 41 56 62 65 67 68 68 76 77 79 82
36 37 35 34 30 32 34 36 36 34 35 31 25 24 27 29 28 29 30 31 30 31 33 35 37 39 46 62 68 78 82 76 72 51 56 72 68 75 72 73 82 84 80 83
35 39 36 35 33 35 35 36 37 35 31 25 24 26 29 29 28 30 32 33 33 32 33 34 37 45 60 75 81 92 86 92 84 65 65 80 74 76 79 80 84 89 86 88
33 32 33 30 28 30 31 35 38 34 25 25 26 28 27 26 30 33 33 34 34 33 35 38 41 49 64 83 92 79 93 99 93 68 79 85 80 82 87 85 91 94 94 92

GFSCGP_prec_cthk_105.txt.gz
RH
78 88 83 82 88 92 81 73 71 74 53 79 62 61 54 58 52 56 63 74 64 74 78 85 89 98 98 96 98 97 96 89 79 74 68 62 59 59 60 59 60 59 60 59
95 93 84 93 84 85 94 70 65 65 75 66 60 60 52 49 46 53 67 80 76 72 85 87 90 98 99 99 97 98 96 90 90 90 78 78 79 74 71 69 66 66 64 69
96 88 89 90 72 68 71 71 80 97 67 69 58 57 53 51 50 56 70 83 81 82 88 89 95 97 90 94 98 97 95 95 94 90 88 83 78 89 89 81 77 74 77 75
86 80 83 78 71 64 71 72 89 84 66 69 50 65 71 68 62 65 77 82 82 82 91 95 95 95 92 92 99 96 95 88 94 94 96 91 91 88 88 83 82 82 86 78
77 78 78 80 71 68 72 76 79 85 76 72 67 97 91 83 73 75 82 80 81 87 95 92 91 97 95 92 98 97 96 93 94 94 95 94 95 88 89 89 88 90 89 91
74 75 82 83 78 75 75 81 94 95 89 72 84 85 93 88 83 86 81 86 88 92 91 89 88 89 93 90 92 92 92 92 89 88 89 88 90 84 86 88 91 91 90 88
80 77 77 85 87 92 98 98 95 92 94 70 76 78 95 87 80 87 85 81 93 96 92 93 87 86 85 85 90 91 89 91 94 91 91 85 83 86 87 85 84 87 85 89
86 92 83 85 94 97 98 87 87 94 89 75 79 96 97 92 93 91 81 82 90 89 83 86 83 79 74 76 76 81 83 84 87 87 89 96 95 94 94 93 96 86 90 92
97 89 82 88 86 85 83 77 72 76 67 75 88 92 91 79 86 93 89 80 81 88 87 80 79 80 77 75 72 71 68 69 70 72 74 78 79 83 83 82 91 87 84 82
83 86 77 76 79 79 73 69 72 69 65 70 86 94 93 79 76 84 84 79 77 79 75 76 77 78 75 70 67 63 64 64 62 63 66 66 66 66 69 68 71 73 70 69
85 79 77 76 75 78 66 59 52 52 49 47 57 70 68 69 70 70 72 72 71 70 72 68 67 65 61 59 55 52 53 55 55 55 58 59 57 58 61 63 62 63 65 69
77 77 79 74 69 62 64 58 51 59 44 42 43 63 60 59 56 57 55 55 58 59 57 56 55 52 49 46 44 46 46 42 44 48 51 54 52 53 56 57 58 60 59 60
74 74 79 67 62 56 54 50 48 47 52 51 47 59 56 51 50 49 47 47 48 46 43 42 42 41 40 39 37 37 37 40 46 47 47 49 51 52 53 52 53 55 58 58
58 65 68 71 68 57 54 48 44 50 58 46 50 54 54 53 51 48 46 47 46 43 39 39 43 40 39 39 39 38 36 36 36 37 43 49 52 54 55 54 52 53 53 56
53 58 58 55 55 54 48 45 44 48 46 51 49 51 53 51 52 52 49 46 43 41 40 41 40 40 41 42 41 40 39 38 38 38 38 38 39 44 49 53 53 52 53 56
47 52 50 46 43 44 41 40 41 41 43 44 45 48 46 46 44 45 45 46 46 43 41 38 36 37 37 37 38 39 41 41 40 40 43 44 46 47 47 46 47 48 51 55
35 37 42 44 36 34 36 36 35 36 38 39 39 42 40 40 39 40 42 41 38 36 33 33 32 31 30 28 27 25 26 28 32 38 45 47 47 48 48 49 50 51 49 49
33 33 34 34 29 35 31 30 29 30 31 32 34 34 33 32 31 29 30 29 26 24 23 22 21 20 17 16 16 18 22 24 23 23 26 32 42 51 55 54 53 51 51 50
31 30 30 32 27 26 28 26 28 28 27 28 29 29 29 27 23 28 27 23 18 13 13 14 16 17 18 20 23 24 21 18 18 25 28 29 30 32 39 49 57 60 60 57
30 29 30 30 29 22 27 28 30 28 30 29 29 28 29 27 25 24 22 16 15 16 18 20 21 21 22 23 25 28 31 33 30 28 21 28 41 39 39 40 42 56 69 66
32 30 33 28 30 24 26 29 30 31 30 27 28 28 28 25 22 17 15 15 17 20 21 20 22 24 27 29 32 34 37 39 44 45 40 30 22 38 51 52 50 47 54 71
31 31 31 32 34 32 27 29 28 28 26 27 28 28 25 20 18 19 20 22 23 25 26 28 29 29 29 31 36 40 43 48 51 54 50 48 39 31 40 65 67 61 56 62
32 29 30 29 28 26 26 27 27 28 28 29 30 26 22 21 22 24 25 27 28 29 31 32 32 32 32 34 39 43 44 49 51 55 60 65 65 53 45 54 74 76 69 65
30 30 31 30 26 27 28 28 29 29 30 31 27 21 23 24 25 25 25 27 27 29 31 30 30 31 32 37 42 47 50 54 65 73 73 73 80 74 60 53 77 80 78 70
31 32 31 30 27 28 28 29 31 32 32 29 23 21 23 25 25 26 27 27 29 30 30 31 32 33 35 38 42 49 56 71 78 73 78 93 94 86 67 64 84 85 84 79
30 26 29 25 26 25 26 27 30 32 33 29 23 24 26 26 27 27 27 27 28 29 30 30 32 34 37 40 44 48 60 81 84 70 84 98 95 87 66 77 96 88 89 86

GFSCGP_prec_cthk_108.txt.gz
RH
78 90 84 78 75 74 78 83 74 65 67 70 55 67 61 89 69 55 52 41 38 46 50 68 77 78 88 94 94 95 96 94 92 85 73 71 68 76 72 61 52 49 52 54
93 89 77 73 78 75 76 78 76 67 63 60 62 71 60 66 69 55 47 43 42 47 58 70 72 86 92 95 97 98 97 92 92 86 71 58 56 52 52 53 55 58 61 62
91 79 78 79 75 68 74 71 70 80 82 67 78 90 65 50 53 51 43 43 50 63 74 78 80 93 93 93 98 97 98 95 95 91 80 79 71 64 63 58 59 62 63 63
80 73 76 72 67 71 80 78 74 81 95 94 78 72 55 59 58 54 46 51 67 74 79 84 92 93 93 93 95 97 98 96 94 96 90 88 89 84 77 79 84 82 80 80
76 76 68 69 70 75 72 86 86 81 88 86 67 90 90 83 74 66 62 73 79 69 89 92 94 93 89 88 93 96 98 96 94 98 92 92 93 94 92 95 92 94 89 96
74 72 74 70 76 84 84 93 95 97 98 98 86 95 99 98 91 86 85 86 84 90 99 95 92 90 84 93 97 98 98 97 94 94 92 91 92 92 93 92 92 92 93 91
74 75 78 82 87 88 92 98 98 96 96 98 95 95 98 96 90 90 87 86 95 97 92 91 89 86 90 93 90 92 89 90 87 88 88 87 91 91 93 92 92 95 91 89
86 87 84 86 95 98 98 98 98 97 97 98 85 97 98 93 93 88 87 92 94 94 97 95 94 93 88 89 94 95 92 89 89 87 89 88 87 95 93 93 91 90 90 87
94 85 79 87 88 91 90 96 88 98 78 90 98 99 97 96 97 92 92 94 93 94 94 90 86 82 81 80 81 83 85 87 87 93 91 93 92 93 92 93 91 90 90 88
72 83 80 82 85 84 85 77 86 94 92 95 97 97 97 98 98 87 89 91 96 92 87 84 83 80 79 77 74 73 73 74 77 77 79 80 82 81 77 84 85 82 84 84
69 79 77 77 74 76 71 68 65 67 63 62 81 96 88 94 94 94 86 84 81 80 79 76 74 71 66 66 62 58 55 57 60 62 63 65 66 68 67 67 68 71 69 67
66 70 77 69 63 62 62 57 58 70 66 62 67 84 71 68 68 71 73 74 71 70 68 66 60 53 50 47 44 43 46 49 46 47 50 54 54 56 58 62 60 61 61 63
61 66 76 66 67 58 55 52 54 54 63 57 64 78 68 64 63 63 62 61 62 60 56 52 46 46 45 43 40 37 35 37 37 41 45 45 45 48 51 54 54 53 54 55
63 65 71 77 66 63 59 52 51 56 61 58 65 61 59 59 61 58 56 57 55 50 46 46 45 44 43 42 40 39 38 36 36 37 36 36 38 44 47 47 47 50 52 53
53 59 59 53 53 53 50 50 50 50 48 55 55 56 51 46 45 44 45 44 41 39 40 37 34 34 34 33 33 32 33 33 34 34 36 38 39 40 40 39 42 44 48 51
47 53 51 47 42 41 42 42 44 45 46 46 49 51 46 40 38 35 35 35 32 30 28 26 25 25 23 22 21 22 23 24 27 30 32 33 35 36 39 42 43 45 45 47
36 39 45 47 35 34 42 36 36 37 39 41 44 42 41 37 33 29 26 23 21 20 18 12 10 10 11 11 12 12 12 14 15 17 20 21 25 31 34 39 41 44 46 49
31 32 34 42 28 39 32 28 28 30 31 33 34 33 35 34 34 33 32 29 25 20 14 12 13 13 12 11 11 10 10 11 12 13 15 17 20 24 28 30 34 39 45 48
29 29 32 39 29 25 26 25 27 28 32 29 31 30 30 29 30 39 42 36 24 16 16 16 16 16 16 18 18 16 14 15 17 18 19 19 20 20 23 30 36 37 41 45
27 27 33 33 37 30 27 26 26 24 33 29 26 26 26 23 26 28 25 18 20 23 26 28 25 26 29 28 28 27 28 29 29 28 27 27 29 28 26 25 30 39 42 41
33 33 37 39 39 30 28 25 25 32 33 24 23 25 26 26 22 19 16 18 19 22 23 26 30 32 31 34 35 35 38 39 42 42 39 39 42 42 41 37 29 26 35 47
30 33 37 34 35 37 26 27 27 28 24 23 24 25 24 20 17 17 19 19 21 22 23 23 22 20 22 25 28 30 33 38 43 46 49 51 51 52 54 53 50 46 36 42
34 29 34 30 33 27 23 25 24 24 24 25 25 24 21 16 17 19 21 21 22 22 22 21 20 20 22 25 27 28 31 35 38 43 47 54 59 61 62 64 66 67 59 51
30 29 30 28 25 25 24 26 26 26 26 26 27 25 18 16 18 21 22 22 22 21 19 18 18 19 23 26 29 33 37 41 43 44 47 54 62 66 61 65 71 71 70 66
30 32 30 28 27 27 26 26 26 27 27 29 29 25 19 19 21 22 22 22 22 21 19 18 19 23 26 28 30 34 36 41 43 44 49 55 71 82 69 75 87 90 88 83
29 28 30 30 24 26 25 24 26 27 28 30 30 24 20 21 22 23 23 23 23 22 19 20 22 27 29 30 33 36 40 42 44 44 48 55 73 80 80 87 90 94 88 77

GFSCGP_prec_cthk_111.txt.gz
RH
69 77 77 73 71 69 67 72 72 63 58 65 60 57 45 40 46 44 50 42 41 33 31 33 32 36 49 63 73 83 95 90 86 90 98 99 96 85 65 57 55 45 41 40
71 71 63 67 68 70 74 74 67 61 59 69 73 62 54 50 57 67 67 48 46 40 33 30 36 41 58 70 80 95 99 91 94 99 99 95 95 85 67 60 51 46 45 47
68 66 69 74 75 74 70 70 68 70 63 66 68 59 49 51 73 74 68 55 46 44 39 36 44 58 68 74 80 95 98 94 91 97 94 98 98 92 86 79 69 64 54 56
67 63 64 65 67 69 72 65 80 81 79 82 69 82 56 52 57 58 54 49 42 45 47 55 64 72 78 81 85 93 93 99 96 92 92 92 89 90 91 88 84 75 74 68
65 71 70 65 65 72 71 71 79 88 94 86 75 93 77 81 73 73 60 49 48 52 69 76 82 78 76 85 91 95 93 99 93 94 93 91 86 88 85 86 83 77 71 77
75 75 78 76 76 82 85 85 91 96 96 96 85 93 97 96 93 77 66 63 64 77 83 93 91 85 96 95 94 91 95 98 96 96 96 93 92 87 85 89 86 83 90 90
81 75 80 82 87 90 96 98 97 98 97 98 95 98 98 98 89 86 86 90 90 90 98 95 92 95 97 95 92 98 99 98 97 99 96 97 94 95 97 94 94 92 97 95
80 77 82 89 95 98 99 98 98 97 96 98 96 98 98 98 91 93 92 94 98 98 96 97 99 99 99 98 93 95 96 95 94 95 96 95 95 95 94 91 93 94 93 90
82 83 84 89 90 95 96 96 94 99 94 91 98 98 97 96 95 97 98 98 95 96 96 96 95 92 89 88 91 95 96 93 95 95 92 91 88 88 88 89 90 94 89 92
81 92 81 83 81 83 88 83 88 93 96 96 97 96 98 98 98 97 98 96 89 91 93 91 90 88 87 83 81 79 82 85 85 86 87 87 91 93 95 96 95 94 92 96
75 83 77 71 70 73 76 78 72 80 82 93 94 97 98 98 97 91 94 94 92 87 84 82 80 78 72 68 66 63 63 63 65 68 71 72 74 76 76 79 83 87 88 91
65 69 75 69 61 57 61 67 67 77 75 74 83 95 89 94 92 85 84 83 81 79 76 71 68 61 54 48 45 43 43 44 45 46 49 55 61 64 64 65 64 64 66 69
59 66 76 67 56 52 59 55 58 64 67 73 77 91 77 74 71 69 69 68 67 65 66 60 54 49 46 43 42 39 36 34 36 36 37 43 46 46 47 51 54 58 62 61
56 62 63 68 63 60 57 52 48 48 65 67 74 72 68 67 65 62 58 54 52 49 46 43 41 39 38 36 33 31 30 30 30 31 31 31 32 34 37 41 47 50 51 50
51 56 57 53 51 47 46 47 46 46 46 52 54 55 50 48 46 44 41 38 35 32 31 29 25 27 24 22 22 20 20 21 22 23 24 25 26 28 30 31 33 33 38 45
45 49 49 43 38 38 39 42 39 38 40 45 47 47 42 41 38 35 33 30 26 25 23 20 11 10 12 11 11 10 10 10 10 10 11 13 17 21 25 28 30 31 32 35
37 41 45 46 35 34 40 34 35 35 36 37 40 37 36 36 34 31 29 27 24 21 19 14 14 16 14 14 14 13 16 14 13 13 14 13 13 13 15 19 25 28 31 36
33 33 36 42 30 36 30 27 28 33 33 34 33 30 29 28 27 26 25 25 24 21 16 15 16 16 16 15 13 13 13 13 13 13 15 17 19 20 20 18 17 20 27 30
28 31 32 36 38 27 31 27 28 30 29 28 28 26 25 25 23 23 23 23 22 16 12 13 14 14 13 12 11 10 11 12 13 15 17 18 20 20 21 23 24 23 21 24
26 28 32 35 33 30 24 25 25 25 31 27 28 27 26 25 32 27 23 25 21 15 16 16 15 15 16 16 15 15 15 14 13 14 16 18 23 26 29 31 34 33 33 30
31 33 34 37 42 31 27 26 26 31 25 24 26 27 26 27 24 23 23 18 19 20 20 20 21 22 22 20 19 19 22 21 21 21 24 26 29 30 33 35 38 38 38 38
31 37 38 37 39 36 26 26 26 23 23 23 25 25 24 22 19 18 19 21 23 23 24 25 25 24 24 26 28 28 28 29 32 35 35 33 32 34 37 42 43 47 48 49
34 30 31 32 30 26 24 22 22 22 22 24 25 26 26 22 18 18 20 23 24 24 22 20 20 20 21 23 26 28 30 32 33 34 35 37 37 40 44 46 52 61 60 57
32 30 31 28 22 25 24 24 23 23 24 25 27 28 28 21 18 20 21 22 21 20 20 20 20 21 21 22 25 27 28 29 30 31 33 35 38 42 47 54 60 67 74 67
29 32 31 31 26 25 25 25 25 25 25 27 28 30 28 21 18 20 22 21 20 20 20 20 20 19 19 18 20 23 24 24 26 27 30 34 38 43 48 58 65 80 88 85
30 29 31 30 24 23 23 24 25 25 26 27 29 30 26 20 19 21 22 20 19 19 20 19 18 18 17 15 18 20 21 23 25 27 30 35 39 45 53 62 72 93 92 85

GFSCGP_prec_cthk_114.txt.gz
RH
67 70 69 65 66 58 56 58 59 51 52 59 56 49 45 39 43 42 34 26 24 31 44 46 47 40 31 28 30 42 45 56 75 80 86 70 74 90 91 89 96 97 92 87
64 64 58 58 56 58 60 63 59 56 61 68 66 62 54 51 40 36 29 26 27 33 37 44 33 29 30 29 35 43 51 74 84 89 93 78 80 90 94 92 88 90 92 83
60 54 53 58 59 60 60 66 67 72 75 75 69 64 63 54 47 44 46 45 49 43 39 36 32 28 31 34 38 44 55 66 85 80 95 94 91 93 91 89 91 79 76 65
60 56 60 60 63 63 72 65 74 76 82 83 69 73 57 64 61 53 61 59 52 48 48 39 41 37 39 48 54 60 65 78 77 89 94 99 97 98 90 91 88 75 65 64
66 70 71 74 69 72 75 76 81 86 92 87 70 82 78 71 68 69 68 61 53 48 48 44 50 54 57 61 63 69 71 77 83 89 99 98 99 98 98 98 94 90 80 61
76 75 77 76 79 83 84 92 87 90 92 95 87 89 97 96 90 76 65 60 56 52 54 71 78 89 76 81 78 72 83 87 87 96 99 98 97 97 98 97 96 95 96 92
72 76 78 85 91 93 97 99 95 97 97 96 98 97 98 97 87 75 72 66 72 75 85 93 98 94 92 87 97 90 91 92 92 98 98 98 96 94 95 93 94 94 94 92
79 81 82 84 96 99 98 98 98 97 97 97 98 97 97 98 94 86 90 98 99 96 97 98 95 97 97 98 99 96 98 98 99 99 98 98 98 97 97 97 94 93 92 92
84 86 75 80 85 94 95 98 96 98 95 93 97 98 95 96 95 93 95 96 98 99 98 95 95 95 94 94 96 95 95 95 95 97 96 97 97 98 96 94 94 93 92 90
79 89 75 71 75 82 92 88 96 96 94 94 92 97 97 98 98 97 97 98 98 96 93 93 93 93 91 90 89 87 89 95 97 96 98 96 94 96 93 92 92 93 93 92
73 79 70 69 68 75 80 80 79 82 87 94 94 97 98 98 98 98 97 95 94 90 89 85 80 76 75 72 71 72 74 77 78 79 80 86 89 87 91 90 92 94 93 92
61 67 71 58 58 61 64 69 70 76 80 81 90 97 94 96 96 95 87 84 80 77 73 70 67 58 55 54 55 55 55 52 52 55 58 62 65 69 70 70 73 77 77 79
56 60 63 47 46 49 55 51 52 58 71 84 85 93 82 84 81 78 73 72 68 64 64 57 53 48 44 41 39 37 36 34 33 32 32 35 39 43 46 48 54 58 63 68
50 53 54 55 52 53 50 45 46 51 66 70 73 75 71 68 65 63 60 54 49 45 41 37 32 28 27 26 25 24 23 23 24 24 25 25 26 26 27 28 32 37 40 44
45 47 45 42 42 41 41 41 41 42 42 47 49 50 50 50 47 43 40 35 32 31 28 24 18 17 16 14 14 12 12 12 11 11 12 14 17 19 21 24 25 26 27 29
38 40 41 37 32 33 34 37 36 37 39 42 43 42 39 39 38 36 33 31 29 25 21 16 12 12 12 11 11 10 10 8 9 9 9 9 9 9 9 10 13 19 24 28
34 38 40 42 33 31 36 31 33 34 35 36 38 33 33 33 33 31 29 27 24 22 19 14 14 13 13 13 12 13 12 13 14 13 13 13 12 11 12 12 12 12 11 12
32 34 36 41 29 35 25 25 27 30 32 32 33 30 30 29 28 26 24 25 25 23 19 15 15 16 16 14 13 13 12 13 12 12 12 12 12 13 15 16 17 18 18 17
29 32 33 32 35 24 25 24 26 26 23 29 29 29 27 27 26 23 22 23 22 21 18 15 14 12 12 13 13 12 11 11 12 12 13 14 16 16 17 19 21 21 21 22
29 30 31 37 30 29 18 22 23 23 25 21 23 25 25 24 21 21 21 21 21 19 13 12 12 11 11 11 11 10 10 10 10 10 12 14 15 17 18 19 21 24 27 28
34 35 36 36 41 31 22 24 23 25 17 20 20 20 21 21 19 18 17 17 17 15 14 14 13 12 12 12 12 12 12 13 14 12 12 13 13 15 17 19 21 23 27 31
31 38 40 40 41 34 26 28 26 19 21 20 20 20 21 21 21 19 16 15 16 16 16 15 14 13 13 14 15 15 17 18 17 17 17 14 14 15 16 18 20 24 27 30
38 33 32 33 30 23 24 21 21 22 20 20 20 21 23 25 25 19 16 17 18 19 18 18 18 18 20 21 23 25 23 25 25 25 24 23 23 23 21 23 23 27 32 38
31 32 35 31 23 25 27 26 25 24 23 22 23 25 27 28 27 19 17 17 19 19 18 20 21 21 20 23 24 25 24 24 23 25 26 27 27 27 28 31 35 38 41 46
31 33 33 33 29 27 25 24 25 27 27 26 27 29 31 31 27 20 19 21 21 21 22 23 23 21 19 20 19 20 23 24 25 27 28 28 30 33 34 39 44 48 51 59
28 28 32 29 25 26 24 23 24 26 27 28 29 30 31 31 26 20 20 21 21 21 21 22 22 21 19 19 20 20 24 25 27 28 32 34 37 39 42 45 47 61 67 71

GFSCGP_prec_cthk_117.txt.gz
RH
60 60 58 53 55 53 52 54 55 48 47 55 54 53 47 45 44 36 37 33 28 26 21 25 42 56 60 57 51 45 40 39 38 40 42 47 54 54 55 61 63 71 90 97
53 54 50 52 54 55 60 62 60 56 58 68 64 57 54 59 54 46 39 36 30 25 22 18 23 46 55 56 49 42 36 34 39 42 46 55 65 65 73 75 59 73 89 96
58 50 50 54 55 60 65 70 69 70 64 66 65 57 49 60 61 46 41 40 35 28 28 26 25 37 45 41 35 30 25 29 38 47 53 65 74 77 80 75 63 85 92 97
64 61 64 66 70 72 75 71 77 85 88 86 71 73 60 68 65 68 63 55 46 46 42 37 39 48 41 35 30 26 29 33 41 52 62 70 76 84 75 76 73 88 95 98
67 70 73 77 76 77 78 78 83 92 91 95 92 96 72 80 69 66 68 77 79 73 52 46 43 47 34 33 36 36 36 40 46 61 66 77 75 86 92 87 96 97 97 98
69 70 77 77 79 81 78 85 90 91 94 96 89 96 90 94 88 70 64 64 67 58 54 49 49 49 51 53 48 42 40 48 57 65 76 84 92 94 98 99 96 89 91 93
67 72 75 79 85 88 90 93 89 92 95 94 98 98 98 95 84 77 69 66 61 59 60 72 84 91 88 81 73 62 58 66 73 81 87 97 95 99 98 98 99 99 98 95
78 71 72 75 86 93 94 94 96 96 97 95 94 97 97 95 88 84 80 76 79 77 89 96 98 97 96 94 94 92 86 90 90 96 98 98 97 98 98 97 98 99 98 98
79 72 63 68 80 89 95 97 96 97 94 94 95 94 96 97 97 97 93 96 96 96 99 98 99 96 96 97 98 99 97 93 99 99 99 97 99 98 97 95 97 96 95 94
71 76 64 64 74 82 90 93 95 94 97 94 93 96 95 97 98 97 98 98 98 98 97 96 96 95 94 95 96 97 98 98 98 97 96 96 97 96 97 95 95 96 94 93
67 71 61 58 61 73 75 77 85 83 90 91 91 97 98 98 98 98 98 97 96 92 90 83 78 78 75 77 80 82 83 85 86 88 89 90 93 95 94 95 95 94 94 93
57 60 64 50 51 56 57 61 73 83 79 88 90 96 94 95 95 95 90 87 80 77 75 70 65 59 56 53 51 50 52 50 52 60 61 72 76 81 76 74 73 76 78 76
53 56 57 40 38 43 53 57 68 76 79 83 86 91 83 83 85 81 76 70 65 59 52 46 41 37 35 33 31 29 28 28 27 30 32 36 39 41 43 46 48 49 53 57
47 49 46 47 41 42 45 48 53 58 66 66 75 73 71 70 65 63 56 48 42 40 34 27 22 20 19 18 16 16 16 16 17 17 17 18 20 22 23 25 25 27 29 33
42 41 41 38 39 37 34 36 42 45 43 45 44 52 50 49 46 41 36 32 30 27 21 14 10 10 10 9 9 9 8 8 8 8 8 8 8 9 11 13 15 17 20 22
35 36 37 37 32 32 32 31 34 38 40 40 41 40 36 37 36 35 32 29 26 23 19 15 12 12 12 12 11 11 11 9 9 10 10 9 9 9 8 8 8 8 9 9
32 35 38 37 33 28 27 27 29 31 34 37 42 33 32 33 32 30 28 26 25 24 21 16 12 13 14 15 13 12 12 11 11 12 11 11 11 10 10 10 11 11 11 11
33 34 36 41 27 24 17 23 23 26 26 30 29 30 30 30 29 27 25 24 24 22 20 16 15 15 15 14 13 12 12 11 11 11 11 10 10 10 10 10 11 11 11 12
31 34 33 33 35 21 19 22 24 25 20 23 25 26 27 27 26 23 21 21 22 22 19 16 16 15 14 13 12 12 12 12 12 11 10 10 10 10 10 10 11 11 13 15
34 33 33 37 32 21 15 21 22 21 23 17 21 25 27 26 27 20 19 20 21 18 16 16 15 15 13 13 12 12 12 11 11 11 11 11 10 10 11 11 11 12 14 15
39 40 42 39 40 27 21 24 22 17 13 19 20 23 25 25 22 20 19 17 15 15 15 15 15 14 13 13 13 12 12 11 11 10 10 10 11 12 13 14 13 16 19 19
34 38 41 42 41 32 25 26 24 18 19 19 20 20 21 20 20 20 19 17 15 14 15 16 15 14 14 14 13 12 11 12 13 12 12 12 12 13 15 17 17 19 24 28
35 32 33 36 31 24 26 24 22 21 21 20 21 22 21 21 21 22 21 17 15 15 17 17 15 15 15 15 14 14 15 19 21 22 21 22 23 21 22 25 26 28 30 35
29 30 33 30 23 25 25 25 26 25 24 23 22 22 22 22 23 24 23 19 17 17 19 17 17 17 18 18 18 21 20 23 24 24 23 24 24 24 22 22 26 30 35 42
27 29 30 31 25 24 24 25 24 26 27 26 26 25 24 25 26 27 26 21 18 20 20 19 19 19 19 17 18 21 22 24 24 23 23 21 22 22 21 22 29 36 44 57
24 24 29 27 22 23 21 23 25 25 26 27 26 27 27 28 29 30 28 21 20 22 20 20 20 20 19 19 20 22 22 24 23 21 22 22 25 25 26 30 28 39 53 62

GFSCGP_prec_cthk_120.txt.gz
RH
48 49 51 47 47 47 47 50 58 48 48 50 51 48 44 46 50 49 42 39 30 25 24 23 22 22 33 48 57 57 58 54 52 48 42 40 36 37 39 40 43 46 48 48
43 47 43 44 47 52 60 61 58 54 55 61 56 50 49 52 58 58 48 41 37 34 30 26 22 19 22 44 54 58 57 52 46 43 39 39 39 39 39 41 46 51 51 50
55 50 53 61 64 66 67 68 67 68 64 69 73 71 54 62 73 57 53 55 39 37 33 26 22 18 17 30 49 55 54 49 43 41 41 41 41 42 40 40 44 53 60 66
62 61 65 72 73 72 74 66 71 76 81 79 79 80 76 81 84 71 70 70 77 58 36 32 27 21 18 27 49 52 48 41 40 38 39 36 37 39 38 42 52 64 76 78
59 65 70 74 74 75 73 70 76 82 87 88 88 95 80 88 90 85 74 77 85 81 73 44 37 41 46 43 40 48 47 33 34 37 38 39 38 39 40 52 62 70 79 76
64 69 74 75 78 76 72 76 82 84 90 92 87 98 89 93 89 82 74 77 85 80 80 81 70 52 53 53 54 48 42 29 29 33 39 43 43 48 61 72 79 86 84 80
65 69 71 81 87 84 87 85 84 85 91 92 93 96 97 95 96 96 96 89 86 88 87 88 83 80 70 68 57 42 34 29 30 35 43 48 53 67 75 90 95 98 95 96
79 69 73 78 83 88 89 90 92 93 94 93 87 96 97 98 97 97 90 89 91 86 89 89 91 92 91 87 76 69 55 50 48 51 60 69 75 84 94 96 98 98 98 97
82 75 66 76 81 84 86 92 92 96 93 96 92 92 95 97 98 98 97 94 93 93 94 97 99 98 98 96 99 96 81 69 70 81 84 96 93 97 98 95 96 94 96 98
74 76 59 64 68 71 77 80 87 91 92 94 88 95 98 98 97 98 98 98 97 98 98 97 94 96 97 96 97 97 96 87 91 94 98 99 96 99 98 98 96 95 95 93
66 70 57 53 52 59 67 71 80 86 88 94 93 94 97 98 98 97 96 96 94 89 87 87 81 84 83 80 79 83 87 90 90 95 97 99 93 92 90 86 91 88 95 88
59 62 64 49 47 48 62 70 75 85 79 88 89 96 89 88 86 86 84 81 77 65 61 58 54 56 56 56 55 57 59 55 56 64 69 77 85 78 81 79 75 75 72 72
50 53 53 36 37 37 49 60 66 73 80 84 86 82 73 75 76 71 67 62 55 52 45 38 33 30 28 28 27 28 27 30 29 30 33 35 37 42 46 46 45 47 47 48
45 45 41 44 36 39 42 41 48 56 66 72 68 59 57 60 58 54 48 42 40 35 27 18 13 12 11 11 11 10 9 10 10 10 10 11 13 15 17 18 19 21 22 23
41 40 39 36 36 36 36 33 35 44 43 45 41 45 41 40 40 39 36 31 28 25 20 14 11 11 11 11 11 10 10 10 10 10 9 9 8 8 8 8 8 8 8 9
35 39 37 35 31 31 31 29 31 36 38 39 39 39 34 35 35 34 31 27 25 24 21 16 12 13 12 12 12 11 11 10 10 10 10 10 9 9 8 8 8 8 8 9
35 38 39 32 30 26 22 22 26 28 29 32 36 29 30 31 32 30 28 26 26 25 21 17 14 15 14 13 12 11 11 11 12 13 12 11 10 9 9 8 8 8 8 7
33 34 38 41 27 17 14 22 22 25 25 28 27 26 26 26 25 25 24 24 23 22 20 16 14 14 14 13 13 13 13 13 13 12 11 11 10 9 8 8 8 7 7 7
34 34 36 37 37 20 14 20 24 24 18 19 22 24 25 25 25 23 22 21 20 20 18 14 15 16 15 14 14 13 13 12 11 11 11 10 10 9 8 7 7 7 8 8
38 37 37 39 32 20 13 20 21 21 19 16 20 24 26 26 29 22 17 19 19 17 14 16 17 17 15 14 13 13 12 11 11 11 10 10 10 9 8 9 9 10 10 10
41 43 45 43 44 29 20 23 23 18 14 17 18 21 25 26 23 19 19 19 18 15 16 16 16 16 15 14 13 13 12 11 11 11 11 11 11 11 12 12 13 14 16 15
32 40 43 44 45 35 24 27 25 19 19 20 20 21 23 23 21 20 20 20 18 17 17 16 16 16 15 15 14 13 11 11 12 12 12 12 12 13 14 15 15 15 18 25
33 27 28 30 27 20 23 22 23 23 24 23 21 21 22 23 22 21 21 21 20 18 17 17 18 18 17 16 15 13 12 12 13 14 14 15 16 17 19 23 25 26 28 30
25 25 28 27 20 21 22 22 23 24 24 26 27 26 24 23 23 23 23 24 23 21 19 18 20 18 17 16 15 13 14 15 17 18 21 22 21 23 26 26 27 28 30 32
23 25 25 26 20 20 20 20 22 23 25 26 27 29 29 28 26 25 27 27 26 24 20 19 21 18 17 17 15 16 17 18 21 24 25 24 26 26 26 24 26 28 32 36
30 25 27 22 17 18 18 19 20 22 25 26 27 29 30 31 31 30 29 30 29 27 21 22 22 20 20 18 17 18 19 22 26 28 29 29 28 27 27 26 22 26 28 31

GFSCGP_prec_cthk_123.txt.gz
RH
38 38 40 38 38 37 41 45 49 44 44 47 50 48 44 42 40 40 46 45 33 29 26 29 22 23 20 16 25 41 49 55 60 58 53 51 47 42 39 36 33 34 34 37
37 41 40 44 48 52 55 57 56 53 55 59 57 55 54 54 57 54 57 52 41 42 31 28 29 24 23 17 17 29 40 49 56 55 52 47 44 39 37 35 34 36 37 37
51 48 53 58 62 62 64 68 67 68 66 68 67 63 62 64 70 71 71 61 55 54 55 33 31 29 23 20 16 26 32 40 48 51 49 46 42 40 39 37 36 34 36 40
56 56 61 65 67 67 72 67 73 77 80 78 69 75 69 75 76 75 75 65 66 73 76 62 35 34 27 21 17 23 33 38 40 44 43 42 41 46 43 43 39 35 34 35
58 61 67 73 72 72 74 74 76 78 86 85 80 86 72 80 86 92 77 74 79 85 85 82 54 45 40 28 24 23 39 37 36 39 43 45 46 45 45 44 40 36 39 42
63 67 73 74 77 79 78 79 81 84 87 85 79 90 83 93 97 98 97 94 95 94 93 90 90 78 68 48 45 39 38 37 36 38 44 46 42 42 43 40 38 37 53 65
68 71 75 77 82 82 85 87 85 81 86 84 87 95 90 97 97 98 96 93 97 93 93 98 96 90 85 70 50 41 35 39 41 45 46 39 39 40 45 46 53 67 78 79
75 69 72 75 75 80 88 91 92 93 92 91 90 96 98 98 98 98 98 99 97 98 97 98 98 98 97 85 67 56 54 58 52 42 39 39 44 50 63 66 72 80 84 91
72 65 58 64 69 73 78 86 89 93 87 95 90 93 97 97 98 98 99 99 99 98 94 97 96 99 92 97 93 88 69 61 60 49 45 50 57 72 76 80 81 95 96 94
64 70 52 53 61 69 77 78 83 86 91 89 83 94 97 96 96 97 97 98 97 96 94 94 97 93 93 94 95 97 86 75 74 76 77 82 97 95 94 97 95 97 96 97
61 64 50 48 52 61 69 70 77 84 87 90 90 93 95 96 93 95 95 90 73 65 65 65 68 72 75 82 82 92 84 95 89 86 95 99 99 98 96 95 93 92 96 85
54 55 55 42 41 49 57 63 70 81 78 84 85 83 74 75 74 78 72 65 61 53 49 49 47 48 49 52 55 62 64 61 67 74 79 73 74 78 79 77 77 72 75 74
47 50 48 30 30 34 40 45 51 70 75 72 72 67 58 57 58 52 50 42 41 40 33 25 23 26 32 31 34 38 36 37 38 40 42 38 39 41 43 41 40 37 37 38
44 46 42 38 29 33 37 35 39 47 56 53 54 46 44 41 39 36 35 30 28 25 22 15 14 14 14 12 12 10 10 10 10 10 10 11 11 10 13 11 10 10 10 10
40 42 41 36 33 34 34 34 34 40 39 40 32 38 32 33 34 32 30 27 25 25 23 17 14 14 14 13 12 12 11 10 10 10 9 9 9 9 8 8 8 8 8 8
35 39 37 36 29 34 33 29 30 31 35 37 37 34 26 27 29 29 27 26 24 24 23 19 14 14 13 12 11 11 10 10 11 11 11 10 10 9 9 8 8 7 7 7
35 38 39 37 29 29 23 20 24 24 27 27 33 24 24 26 27 25 24 23 23 23 23 19 14 14 13 12 12 11 11 11 11 11 11 10 10 10 9 9 8 8 8 8
37 37 39 42 27 16 13 20 21 22 22 24 23 22 24 23 23 23 22 21 21 21 21 18 14 14 14 13 13 13 13 12 12 11 11 11 11 10 10 10 9 9 8 8
41 40 39 40 39 22 15 18 22 22 17 18 19 21 24 25 24 22 21 21 21 20 18 15 13 14 15 15 14 13 13 12 11 11 11 11 11 11 10 9 9 9 8 8
42 43 40 43 37 23 14 21 23 22 18 15 17 19 23 26 29 22 17 20 20 18 17 13 14 15 16 16 15 13 12 12 11 11 11 12 12 12 11 11 11 11 11 12
42 43 45 45 44 30 21 25 26 19 15 17 19 19 22 25 22 19 16 18 19 19 16 16 17 17 18 18 16 14 13 13 12 11 12 13 13 13 13 13 13 14 14 14
33 40 43 44 44 33 21 25 23 19 21 24 23 22 22 23 24 23 21 20 19 18 18 18 19 19 19 19 17 15 14 13 12 12 13 14 15 16 15 15 15 15 17 17
30 23 24 27 23 17 18 19 20 22 23 24 25 25 26 26 25 25 23 22 22 21 21 20 20 19 20 20 19 17 15 13 13 13 14 15 17 18 18 18 18 19 23 28
24 23 25 23 15 17 17 17 18 19 20 21 24 27 28 28 28 29 30 27 25 24 24 23 22 21 22 22 20 18 16 15 15 15 16 18 19 21 22 24 28 31 33 32
33 33 30 30 26 22 21 21 21 21 21 20 20 24 27 29 31 31 32 34 34 34 32 28 25 24 25 25 22 20 18 17 17 17 18 19 22 27 33 34 32 33 34 35
35 32 32 28 23 24 24 23 24 24 23 23 24 24 22 23 26 31 32 33 37 38 37 37 34 30 29 28 25 22 20 20 20 20 21 22 27 35 38 38 29 32 34 33